[[[{"header":{"parameterUnit":"kt","parameterCategory":2,"dx":1,"dy":1,"la1":29.285339999999998,"la2":30.599998999999997,"lo1":-89.70041500000002,"lo2":-87.6738589999976,"nx":112,"ny":82,"refTime":"2022-10-03T12:00:00:Z","depth":0,"parameterNumber":1,"parameterNumberName":"U-component_of_WINDS"},"data":[6.5646,6.6427,0.0,6.0424,6.0603,0.0,5.5325,0.0,0.0,0.0,0.0,0.0,0.0,0.0,0.0,0.0,0.0,0.0,0.0,0.0,0.0,0.0,0.0,0.0,0.0,0.0,0.0,0.0,0.0,0.0,0.0,0.0,8.9865,8.9865,9.0254,9.1569,9.3669,9.4821,9.7048,10.0314,10.0314,10.061,10.1169,10.209,10.2517,10.255,10.3569,10.3997,10.3997,10.3997,10.3997,10.3997,10.3997,10.3997,10.3997,10.3997,10.3997,10.3997,10.3997,10.3997,10.3997,10.3997,10.3997,10.3997,10.3997,10.3997,10.3997,10.3997,10.3997,10.3997,10.3997,10.3997,10.3997,10.3997,10.3997,10.3997,10.3997,10.3997,10.3997,10.3997,10.0677,9.7964,9.7964,9.468,9.1962,9.1962,9.1962,9.1671,9.0827,9.074,9.074,9.074,9.074,9.106,9.1874,9.1962,9.1227,8.9711,8.9538,8.9538,8.9538,8.8812,8.7315,8.5665,8.5702,8.415,8.0801,8.1192,8.1728,8.2412,8.2485,8.2875,0.0,0.0,6.3767,5.7325,0.0,0.0,0.0,0.0,0.0,0.0,0.0,0.0,0.0,0.0,0.0,0.0,0.0,0.0,0.0,0.0,0.0,0.0,0.0,0.0,0.0,0.0,0.0,0.0,0.0,0.0,0.0,8.7596,8.7596,8.7107,8.7596,8.8709,9.031,9.2117,9.4619,9.7854,9.8552,9.9098,9.9591,10.0545,10.0972,10.1005,10.2057,10.278,10.3208,10.3208,10.3537,10.3997,10.3997,10.3997,10.3997,10.3997,10.3997,10.3997,10.3997,10.3997,10.3997,10.3997,10.3635,10.3208,10.3208,10.2879,10.2484,10.2484,10.2484,10.2484,10.2484,10.2484,10.2484,10.2484,10.2484,10.2484,10.2484,10.2879,10.3045,10.2321,9.9901,9.7664,9.7058,9.3452,9.0624,9.0624,9.0624,9.0333,8.9489,8.9373,8.9373,8.9373,8.9373,8.9722,9.0566,9.0624,8.9736,8.7787,8.8004,8.7875,8.6956,8.6208,8.5472,8.4955,8.4974,8.4189,8.1948,8.2314,8.2851,8.3534,8.2802,8.2875,0.0,0.0,0.0,5.3054,0.0,0.0,0.0,0.0,4.9027,0.0,0.0,0.0,0.0,0.0,0.0,0.0,0.0,0.0,0.0,0.0,0.0,0.0,0.0,0.0,0.0,0.0,0.0,0.0,0.0,0.0,8.6691,8.5236,8.5114,8.6961,8.5084,8.5084,8.7107,8.8814,9.1394,9.4587,9.6481,9.8046,9.9427,9.946,9.9492,9.9492,9.9525,10.0347,10.1597,10.1597,10.2484,10.3865,10.3898,10.3898,10.3865,10.3865,10.3865,10.3865,10.3865,10.3865,10.3865,10.3865,10.2846,10.1597,10.1597,10.0643,9.9558,9.9558,9.9558,9.9558,9.9558,9.9558,9.9558,9.9558,9.9558,9.9558,9.9558,10.0643,10.0885,9.9023,9.8251,9.7086,9.5105,9.1035,8.8035,8.8035,8.8035,8.8035,8.8006,8.7977,8.7977,8.7977,8.7977,8.8006,8.8035,8.8035,8.7521,8.6297,8.7297,8.6845,8.4457,8.2132,8.1385,8.2317,8.1194,8.0923,8.1997,8.3046,8.3534,8.3534,8.3534,8.3534,5.7349,0.0,0.0,0.0,0.0,0.0,0.0,0.0,0.0,0.0,0.0,0.0,0.0,0.0,0.0,0.0,0.0,0.0,0.0,0.0,0.0,0.0,0.0,0.0,0.0,0.0,0.0,0.0,0.0,0.0,8.4605,8.4533,8.4379,8.4933,8.435,8.5084,8.7107,8.8814,9.0923,9.3082,9.5012,9.604,9.6468,9.7487,9.7947,9.8013,9.9098,9.9755,10.0117,10.0117,10.038,10.0873,10.1893,10.1662,10.0775,10.0775,10.0775,10.0775,10.0775,10.0775,10.0775,10.0775,10.0479,10.0117,10.0117,9.9854,9.9558,9.9558,9.9558,9.9558,9.9558,9.9558,9.9558,9.9558,9.9558,9.9558,9.9558,9.8832,9.7979,9.7411,9.5018,9.2812,9.2231,8.9823,8.8035,8.8035,8.8035,8.7715,8.6785,8.6668,8.6668,8.6668,8.6668,8.7046,8.7977,8.6647,8.5599,8.5263,8.2155,8.0153,7.9445,8.0354,8.1385,8.2317,8.3655,8.38,8.3095,8.3388,8.3534,8.3534,8.3534,8.3534,0.0,0.0,0.0,0.0,0.0,0.0,4.7929,0.0,4.627,0.0,0.0,0.0,0.0,0.0,0.0,0.0,0.0,0.0,0.0,0.0,0.0,0.0,0.0,0.0,0.0,0.0,0.0,0.0,0.0,7.8576,8.2564,8.3732,8.4225,8.4225,8.4225,8.4657,8.5808,8.774,8.9263,9.0225,9.2118,9.3333,9.4179,9.4993,9.5789,9.6533,9.7388,9.8079,9.8638,9.8638,9.8999,9.9558,9.9788,9.9361,9.8703,9.9328,9.9558,9.9558,9.9558,9.9558,9.9558,9.9558,9.9131,9.8638,9.8638,9.821,9.775,9.775,9.775,9.775,9.775,9.775,9.775,9.775,9.775,9.775,9.775,9.682,9.567,9.486,9.2766,9.048,8.8517,8.7163,8.6436,8.6436,8.6436,8.5829,8.4068,8.3953,8.3634,8.2639,8.2448,8.2758,8.3626,8.2522,8.1874,8.2342,7.8829,7.6948,7.7593,7.8739,7.9701,8.0805,8.2988,8.4063,8.3534,8.3534,8.3534,8.3534,8.3534,8.3534,0.0,0.0,0.0,0.0,5.1956,0.0,0.0,0.0,0.0,0.0,0.0,0.0,0.0,0.0,0.0,0.0,0.0,0.0,0.0,0.0,0.0,0.0,0.0,0.0,0.0,0.0,0.0,7.4306,7.6112,7.8141,8.063,8.2978,8.4166,8.4166,8.4361,8.4516,8.4662,8.6374,8.7318,8.7318,8.92,9.0725,9.2215,9.2215,9.3207,9.4977,9.4977,9.582,9.7125,9.7125,9.7881,9.8933,9.7618,9.7125,9.729,9.8605,9.9065,9.9065,9.9065,9.9065,9.9065,9.9065,9.8177,9.7125,9.7125,9.6237,9.5251,9.5251,9.5251,9.5251,9.5251,9.5251,9.5251,9.5251,9.5251,9.5251,9.4977,9.4494,9.3568,9.1651,9.0769,8.9061,8.4912,8.4225,8.4071,8.3887,8.3732,8.305,8.0677,8.0515,7.9698,7.7726,7.7557,7.7557,7.7557,7.7388,7.7619,7.8608,7.6432,7.5662,7.6657,7.6672,7.7116,7.8556,8.0923,8.2583,8.3534,8.3534,8.3486,8.3363,8.3363,8.3437,0.0,0.0,0.0,0.0,0.0,4.9833,0.0,0.0,0.0,0.0,0.0,0.0,0.0,0.0,0.0,0.0,0.0,0.0,0.0,0.0,0.0,0.0,0.0,0.0,0.0,0.0,7.3803,7.6585,7.716,7.8309,8.0618,8.3077,8.4335,8.4335,8.5249,8.6261,8.7308,8.813,8.8465,8.8465,9.0475,9.1012,9.0299,9.0299,9.1267,9.3048,9.3048,9.4029,9.5678,9.5678,9.5843,9.604,9.5777,9.5678,9.5711,9.5974,9.6073,9.6073,9.6073,9.6073,9.6073,9.6073,9.5909,9.5678,9.5678,9.5481,9.5251,9.5251,9.5251,9.5251,9.5251,9.5251,9.5251,9.5251,9.5251,9.4856,9.3333,9.1885,9.0189,8.831,8.6672,8.5242,8.4313,8.4225,8.3548,8.1858,8.151,8.0705,7.8539,7.8204,7.8036,7.7557,7.7557,7.7557,7.7557,7.5821,7.4881,7.5062,7.2875,7.1776,7.1973,7.2046,7.3675,7.7409,8.1265,8.3339,8.3534,8.3534,8.3095,8.2241,8.2241,8.2705,0.0,0.0,0.0,4.9296,0.0,0.0,0.0,0.0,0.0,0.0,0.0,0.0,0.0,0.0,0.0,0.0,0.0,0.0,0.0,0.0,0.0,0.0,0.0,0.0,0.0,0.0,7.3855,7.5485,7.6796,7.7854,7.8898,8.2395,8.4308,8.4308,8.6179,8.7395,8.8035,8.826,8.8375,8.853,8.9423,8.9723,8.9372,8.9372,8.999,9.1135,9.1135,9.1663,9.2634,9.3459,9.3333,9.2634,9.3459,9.3866,9.4023,9.4856,9.5251,9.5251,9.5251,9.5251,9.5251,9.5251,9.5251,9.5251,9.5251,9.5251,9.5251,9.5251,9.5251,9.5251,9.5251,9.5251,9.5251,9.5251,9.4547,9.3617,9.2762,9.033,8.8169,8.7223,8.5538,8.4225,8.4225,8.4225,8.3732,8.2707,8.1538,8.0026,7.7895,7.6509,7.5301,7.4303,7.4126,7.4126,7.4126,7.3086,7.2394,7.2394,7.1356,7.0674,7.0674,7.0674,7.2455,7.6286,8.0045,8.1948,8.1948,8.1948,8.0968,7.9086,7.9086,7.8462,0.0,0.0,0.0,0.0,0.0,0.0,0.0,4.452,0.0,0.0,0.0,0.0,0.0,0.0,0.0,0.0,0.0,0.0,0.0,0.0,0.0,0.0,0.0,0.0,0.0,0.0,7.4285,7.4505,7.6159,7.7269,7.7269,8.1334,8.3975,8.4348,8.6608,8.8042,8.8791,8.8559,8.8442,8.8442,8.8442,8.8484,8.8643,8.8643,8.9057,8.9603,8.9603,8.9726,8.989,9.1431,9.0868,8.9509,9.1267,9.1956,9.2215,9.3617,9.4147,9.4147,9.4147,9.4147,9.427,9.458,9.4702,9.4824,9.5131,9.5251,9.5251,9.5251,9.5251,9.5251,9.5251,9.5251,9.5131,9.4824,9.3585,9.2377,9.1563,8.9124,8.6961,8.6521,8.5236,8.4225,8.4225,8.4225,8.3916,8.305,8.1378,7.9176,7.6509,7.4628,7.2728,7.104,7.0674,7.0674,7.0674,7.0674,7.0674,7.0674,7.0674,7.0674,7.0674,7.0893,7.2431,7.5505,7.8312,7.9947,8.0362,7.9947,7.8267,7.5768,7.5123,7.365,0.0,0.0,0.0,0.0,0.0,0.0,4.9365,5.0347,0.0,0.0,0.0,0.0,0.0,0.0,0.0,0.0,0.0,0.0,0.0,0.0,0.0,0.0,0.0,0.0,0.0,0.0,0.0,7.6726,7.6974,7.7173,7.7173,7.9743,8.2332,8.4528,8.5872,8.8176,9.1496,9.0391,8.9838,8.9838,8.9838,8.9274,8.8123,8.8123,8.8405,8.8882,8.8882,8.932,8.9754,9.0027,8.8954,8.7513,8.9371,9.0194,9.0163,9.0299,9.0434,9.0434,9.0434,9.0434,9.0734,9.2247,9.2794,9.3175,9.4702,9.5251,9.5251,9.5251,9.5251,9.5251,9.5251,9.5251,9.4856,9.3175,9.2634,9.1694,8.8311,8.7368,8.6521,8.481,8.4379,8.4225,8.4225,8.4225,8.2893,7.8899,7.8063,7.6338,7.2058,7.1381,7.1016,7.0857,7.0674,7.0674,7.0674,7.0674,7.0674,7.0674,7.0674,7.0674,7.0674,7.1601,7.3187,7.5505,7.6848,7.8458,8.0362,7.8434,7.647,7.4513,7.1923,7.1038,0.0,0.0,0.0,0.0,0.0,0.0,0.0,4.527,0.0,0.0,0.0,0.0,0.0,0.0,0.0,0.0,0.0,0.0,0.0,0.0,0.0,0.0,0.0,0.0,0.0,0.0,0.0,0.0,7.7165,7.7165,7.7165,7.9565,8.1422,8.2348,8.5743,8.8277,8.9711,9.0678,9.1147,9.1147,9.1147,9.0478,8.9199,8.9199,8.8926,8.8396,8.8396,8.8062,8.7628,8.8406,8.7862,8.6631,8.8572,8.881,8.8281,8.9371,8.9754,8.9754,8.9754,8.9754,8.989,9.0734,9.1002,9.1267,9.3048,9.3617,9.3866,9.4977,9.5251,9.5251,9.5251,9.5251,9.5098,9.4302,9.2505,9.06,8.8985,8.6901,8.5084,8.4379,8.4225,8.4225,8.4225,8.305,8.1698,7.9698,7.7165,7.4778,7.2907,7.1539,7.0674,7.0674,7.0674,7.0674,7.0674,7.0674,7.0674,7.0674,7.1259,7.1601,7.1601,7.265,7.3944,7.553,7.5994,7.697,7.8483,7.5859,7.3495,7.0897,6.8101,6.6141,4.3654,0.0,0.0,0.0,0.0,0.0,0.0,0.0,0.0,0.0,0.0,0.0,0.0,0.0,0.0,0.0,0.0,0.0,0.0,0.0,0.0,0.0,0.0,0.0,0.0,0.0,0.0,0.0,0.0,7.7165,7.7165,7.8831,8.0124,8.0872,8.4379,8.6596,8.7135,8.974,9.0857,9.0857,9.1595,9.1467,9.0566,9.0566,8.9838,8.8617,8.8617,8.8064,8.7279,8.821,8.7832,8.6798,8.8086,8.7895,8.6911,8.8257,8.8556,8.825,8.825,8.825,8.8361,8.8814,8.9093,8.9371,9.1267,9.1794,9.2086,9.3333,9.3742,9.3742,9.3742,9.3742,9.3617,9.3081,9.1033,8.8954,8.8392,8.6017,8.4225,8.4225,8.4225,8.3916,8.3392,8.1858,8.0515,7.9149,7.6113,7.3924,7.3239,7.1696,7.0674,7.0674,7.0674,7.0674,7.0674,7.0966,7.1113,7.1113,7.2138,7.2723,7.2723,7.3773,7.4725,7.553,7.5847,7.5962,7.6061,7.3056,7.0272,6.7307,6.5374,6.2808,0.0,0.0,0.0,4.2104,4.1939,4.203,4.4952,0.0,0.0,0.0,0.0,0.0,0.0,0.0,0.0,0.0,0.0,0.0,0.0,0.0,0.0,0.0,0.0,0.0,0.0,0.0,0.0,0.0,0.0,7.7165,7.7165,7.7141,7.8461,8.0872,8.1064,8.2158,8.4564,8.7135,8.8432,8.8432,9.0829,9.1932,9.1903,9.1903,9.1205,8.9984,8.9984,8.9955,8.9926,8.9984,8.9199,8.7977,8.7977,8.7351,8.6087,8.6215,8.5428,8.4379,8.4379,8.4379,8.4657,8.6521,8.7107,8.7513,8.9371,8.989,8.989,8.989,9.0027,9.0027,9.0027,9.0027,8.9509,8.7771,8.7223,8.6668,8.481,8.4225,8.4225,8.4225,8.4225,8.3548,8.135,8.0839,7.9314,7.4926,7.4075,7.3239,7.1199,7.0857,7.0674,7.0674,7.0674,7.0674,7.0674,7.165,7.2235,7.2235,7.3236,7.3846,7.3846,7.4895,7.553,7.5554,7.6579,7.581,7.3033,7.0083,6.7307,6.4517,6.4297,6.2808,4.2114,4.0454,3.8745,4.0987,4.0723,4.0267,4.1928,0.0,0.0,0.0,0.0,0.0,0.0,0.0,0.0,0.0,0.0,0.0,0.0,0.0,0.0,0.0,0.0,0.0,0.0,0.0,0.0,0.0,0.0,0.0,7.6067,7.6091,7.678,7.8436,7.8461,7.9565,8.2158,8.4564,8.6596,8.8256,8.9161,9.0286,9.1962,9.1962,9.1729,9.1322,9.1322,9.1322,9.1322,9.1322,9.0536,8.9373,8.9373,8.8559,8.7308,8.6436,8.5883,8.5389,8.4516,8.4225,8.4225,8.4933,8.5084,8.5508,8.7483,8.8057,8.8311,8.9478,8.9754,8.9754,8.9754,8.9754,8.9616,8.9093,8.7884,8.6961,8.6255,8.5084,8.4225,8.4225,8.305,8.1698,8.1,7.8317,7.5768,7.4251,7.2907,7.1539,7.0857,7.0674,7.0674,7.0674,7.1308,7.1747,7.1747,7.2723,7.3334,7.3334,7.4383,7.4993,7.4993,7.6042,7.6628,7.6628,7.5035,7.1972,6.7285,6.6225,6.4318,6.1546,6.1546,6.089,3.9792,3.7961,3.6066,3.9076,3.9466,3.9438,4.0075,4.0468,0.0,0.0,0.0,0.0,0.0,0.0,0.0,0.0,0.0,0.0,0.0,0.0,0.0,0.0,0.0,0.0,0.0,0.0,0.0,0.0,0.0,0.0,7.492,7.4969,7.5286,7.5969,7.5969,7.6904,7.8985,8.1786,8.4009,8.5664,8.6596,8.7697,8.9364,9.0286,9.0658,9.0658,9.1595,9.1962,9.1962,9.1962,9.1467,9.074,9.074,8.9926,8.8675,8.7861,8.7221,8.6639,8.536,8.4923,8.4836,8.4371,8.4225,8.4379,8.5688,8.6106,8.6225,8.7422,8.7823,8.7823,8.7823,8.7823,8.7945,8.8431,8.7232,8.6106,8.6106,8.5084,8.3916,8.3207,8.1858,8.0324,7.8651,7.5941,7.3747,7.3061,7.172,7.0674,7.0674,7.0674,7.0674,7.0674,7.165,7.2284,7.2284,7.3626,7.4481,7.4481,7.553,7.614,7.614,7.6799,7.6714,7.5632,7.3904,7.0061,6.4297,6.3233,6.1975,6.0043,6.0043,6.0043,3.3971,3.3069,3.3031,3.6622,3.8153,3.9077,3.9402,0.0,0.0,0.0,0.0,0.0,0.0,0.0,0.0,0.0,0.0,0.0,0.0,0.0,0.0,0.0,0.0,0.0,0.0,0.0,0.0,0.0,0.0,0.0,7.3605,7.3797,7.3822,7.387,7.387,7.4383,7.5457,7.8884,8.05,8.0692,8.3078,8.4192,8.456,8.6997,8.794,8.7856,9.0286,9.1363,9.1392,9.1648,9.1677,9.1677,9.1903,9.1205,9.0129,9.0071,8.9257,8.7948,8.661,8.6145,8.5941,8.472,8.4342,8.4342,8.4342,8.4342,8.4313,8.4254,8.4225,8.4225,8.4225,8.4225,8.4574,8.5825,8.5156,8.4254,8.4313,8.4167,8.3375,8.1237,8.0811,7.9341,7.4752,7.3898,7.3239,7.1016,7.0674,7.0674,7.0674,7.0722,7.0771,7.0771,7.1772,7.2455,7.2455,7.4407,7.5627,7.5627,7.6604,7.7165,7.694,7.694,7.5632,7.2826,7.2596,6.9637,6.4077,6.1321,6.0043,6.0043,6.0043,6.0043,3.5257,3.3911,3.311,3.5929,3.6148,3.547,3.5685,0.0,0.0,0.0,0.0,0.0,0.0,0.0,0.0,0.0,0.0,0.0,0.0,0.0,0.0,0.0,0.0,0.0,0.0,0.0,0.0,0.0,0.0,0.0,7.2437,7.2675,7.3041,7.3846,7.387,7.4017,7.431,7.5302,7.6499,7.8493,7.9024,8.0256,8.2263,8.554,8.4551,8.0438,8.2944,8.4022,8.4105,8.6866,8.7976,8.8261,9.0852,9.1758,9.1351,9.0391,8.9838,8.9228,8.693,8.6145,8.6087,8.5767,8.565,8.565,8.565,8.565,8.5447,8.4487,8.4225,8.4225,8.4225,8.4225,8.4574,8.5825,8.5156,8.4487,8.5447,8.3411,8.1007,7.9643,7.89,7.7531,7.4602,7.2728,7.1356,7.0857,7.0674,7.0674,7.0674,7.1381,7.1869,7.1869,7.3578,7.4725,7.4725,7.5969,7.675,7.675,7.7019,7.6287,7.4109,7.3904,7.2642,6.966,6.7501,6.4737,6.1115,6.0477,6.0043,6.0043,6.0043,6.0043,3.292,3.2036,3.184,3.3763,3.4313,3.4177,3.4177,3.5098,3.5943,0.0,0.0,0.0,0.0,0.0,0.0,0.0,0.0,0.0,0.0,0.0,0.0,0.0,0.0,0.0,0.0,0.0,0.0,0.0,0.0,0.0,6.9793,7.0992,7.1845,7.2455,7.2479,0.0,7.3187,7.3187,7.4118,7.6024,7.6024,7.672,7.8144,8.1334,8.063,7.7081,8.0044,8.1319,8.1373,8.3509,8.4882,8.6051,8.8004,8.9702,9.1031,9.0304,9.042,9.0595,8.8559,8.7861,8.7744,8.7163,8.6581,8.6145,8.6145,8.5738,8.504,8.376,8.3382,8.3266,8.2713,8.2568,8.2888,8.4167,8.3498,8.2917,8.4196,8.2364,8.0323,7.9724,7.7628,7.4973,7.1795,7.0105,6.9429,6.9917,6.9966,7.0332,7.1259,7.1918,7.2455,7.2943,7.4529,7.5554,7.5554,7.653,7.7165,7.7165,7.6061,7.4542,7.3033,7.1764,6.9637,6.6875,6.3877,6.1751,6.0043,6.0043,6.0043,6.0043,6.0043,6.0043,2.9806,2.9432,3.0177,3.1242,3.2735,3.3943,3.3536,3.4643,3.5709,0.0,0.0,0.0,0.0,0.0,0.0,0.0,0.0,0.0,0.0,0.0,0.0,0.0,0.0,0.0,0.0,0.0,0.0,0.0,0.0,0.0,0.0,6.8748,7.0281,7.0281,7.049,7.1113,7.2065,7.2065,7.2528,7.3456,7.3456,7.3456,7.3456,7.5757,7.6095,7.5408,7.8493,7.9778,7.9982,8.0319,8.1829,8.366,8.4167,8.6137,8.8867,8.8867,8.9558,9.0336,8.9068,8.8636,8.8435,8.7637,8.6538,8.58,8.5958,8.536,8.4225,8.2946,8.2597,8.2335,8.123,8.0939,8.123,8.2335,8.1197,8.0149,8.1608,8.0791,7.986,7.986,7.6596,7.2684,6.8647,6.7652,6.7818,6.8746,6.899,6.9771,7.1625,7.2113,7.2699,7.3773,7.4895,7.5627,7.5774,7.6205,7.6513,7.6513,7.3904,7.218,7.1764,6.9447,6.668,6.3877,6.1321,6.0043,6.0043,6.0043,6.0043,6.0043,6.0043,6.0043,3.1504,3.0531,3.0086,3.0749,3.1852,3.2159,2.974,3.2001,3.3842,3.1507,0.0,0.0,0.0,0.0,0.0,0.0,0.0,0.0,0.0,0.0,0.0,0.0,0.0,0.0,0.0,0.0,0.0,0.0,0.0,0.0,0.0,0.0,6.7598,6.7598,6.9702,7.0771,7.0966,7.0966,7.104,7.1235,7.1235,7.1235,7.1235,7.174,7.18,7.1652,7.2349,7.2606,7.2863,7.5665,7.7104,7.7895,8.0767,8.2156,8.2695,8.2695,8.2832,8.2832,8.163,8.122,8.1364,8.3216,8.3542,8.3699,8.5612,8.5999,8.5534,8.4254,8.3905,8.3847,8.3644,8.3586,8.3644,8.3847,7.9999,7.6852,7.8816,7.7736,7.6319,7.6319,7.5109,7.3229,7.0741,6.8795,6.755,6.7745,6.8526,6.9234,6.96,7.1186,7.2699,7.3773,7.4895,7.592,7.6799,7.4879,7.3675,7.3675,7.0948,6.8381,6.6007,6.5374,6.3676,6.0909,6.0269,6.0043,6.0043,6.0043,6.0043,6.0043,6.0043,6.0043,3.1044,3.0487,3.0736,2.9992,3.119,3.2073,3.0668,3.2332,3.2907,2.8722,3.1234,0.0,0.0,0.0,0.0,0.0,0.0,0.0,0.0,0.0,0.0,0.0,0.0,0.0,0.0,0.0,0.0,0.0,0.0,0.0,0.0,0.0,0.0,0.0,6.7106,6.8748,6.8748,7.0097,7.0674,7.0674,7.0674,7.0674,7.0674,7.0674,7.0674,7.0674,7.0674,7.0674,7.0906,7.2606,7.4025,7.51,7.6833,7.8645,8.0228,8.0228,8.0605,8.1238,8.0498,8.0309,8.0483,8.1692,8.1622,8.1127,8.2327,8.2074,8.1673,8.1421,8.1394,8.1592,8.2091,8.2248,8.2248,8.2248,7.8745,7.5659,7.5984,7.52,7.4549,7.4549,7.3289,7.1911,7.0883,6.8493,6.6295,6.554,6.5859,6.6188,6.6655,6.7502,6.8689,6.966,7.0237,7.0924,7.141,7.0192,6.9575,6.9908,6.7176,6.5288,6.4497,6.2551,6.0825,5.934,5.9815,6.0043,6.0043,6.0043,6.0043,6.0043,6.0043,6.0043,3.1175,3.0509,3.1274,2.8989,2.9845,3.0867,3.0141,3.1606,3.1754,2.751,3.048,0.0,0.0,0.0,0.0,0.0,0.0,0.0,0.0,0.0,0.0,0.0,0.0,0.0,0.0,0.0,0.0,0.0,0.0,0.0,0.0,0.0,0.0,0.0,0.0,6.5392,6.5392,6.7715,6.8972,0.0,6.9791,7.0281,7.0674,7.0038,6.9574,6.9758,7.0392,7.0674,7.0674,7.0674,7.1696,7.3417,7.3417,7.4968,7.7458,7.7458,7.8038,7.8981,7.8981,7.8981,7.9158,7.9512,7.9075,7.8328,7.8846,7.8255,7.7679,7.8377,7.8613,7.887,7.956,7.9819,7.9819,7.9819,7.738,7.4802,7.4225,7.3684,7.3304,7.3039,7.1901,7.0684,6.997,6.7362,6.5035,6.3808,6.3358,6.3225,6.3807,6.409,6.4571,6.5691,6.5801,6.5867,6.6064,6.5472,6.5385,6.5974,6.3501,6.2127,6.2831,6.0059,5.8429,5.8429,5.9131,5.9492,5.9492,5.9492,5.9492,5.9492,5.9492,5.9492,3.4139,3.2236,3.0459,2.7168,2.6304,2.5415,2.252,2.5639,2.9343,2.9226,0.0,3.2333,0.0,0.0,0.0,0.0,0.0,0.0,0.0,0.0,0.0,0.0,0.0,0.0,0.0,0.0,0.0,0.0,0.0,0.0,0.0,0.0,0.0,0.0,0.0,0.0,6.0839,6.1907,6.3698,0.0,6.6778,6.8374,7.0649,6.7381,6.601,6.6242,6.9293,7.0674,7.0674,7.0674,7.0857,7.1016,7.1016,7.1248,7.1504,7.1504,7.1578,7.1652,7.1652,7.1652,7.1993,7.4053,7.4659,7.4907,7.7011,7.7638,7.7531,7.7592,7.7733,7.7706,7.7766,7.7906,7.7906,7.7906,7.528,7.3213,7.5075,7.3904,7.2288,7.1089,7.1731,7.1456,6.8324,6.5516,6.3627,6.3538,6.2447,6.1387,6.1456,6.2454,6.3369,6.4549,6.4658,6.4986,6.602,6.3657,6.2278,6.236,5.9678,5.8029,5.8124,5.7849,5.7594,5.7594,5.767,5.7708,5.7708,5.7708,5.7708,5.7708,5.7708,5.7708,3.7266,3.5026,3.354,2.9213,2.6836,2.543,2.4664,2.2868,2.264,2.7585,3.1123,3.3443,3.4621,0.0,0.0,0.0,0.0,0.0,0.0,0.0,0.0,0.0,0.0,0.0,0.0,0.0,0.0,0.0,0.0,0.0,0.0,0.0,0.0,0.0,0.0,0.0,5.7941,5.982,6.1356,6.2291,6.2694,6.3435,6.4366,6.3029,6.2291,6.2499,6.5357,6.6689,6.6689,6.8184,6.9136,6.9722,6.9722,7.0112,7.0674,7.0674,7.0674,7.0674,7.0674,7.0674,7.0857,7.1696,7.2033,7.2214,7.3265,7.3443,7.3773,7.5127,7.5474,7.5821,7.7218,7.7557,7.6505,7.2433,7.0942,7.0391,7.073,7.0087,6.9517,6.9566,6.9939,7.0159,6.956,6.676,6.446,6.446,6.136,5.8559,5.756,5.7922,5.8284,5.8646,5.8891,5.9032,5.9355,5.84,5.782,5.8329,5.7324,5.6493,5.5999,5.6455,5.6721,5.6721,5.7214,5.748,5.748,5.748,5.748,5.748,5.748,5.748,4.1038,3.8229,3.5795,3.0336,2.688,2.4609,2.4442,2.0423,1.8531,2.5236,3.0008,3.3479,3.519,3.4098,0.0,0.0,0.0,0.0,0.0,0.0,0.0,0.0,0.0,0.0,0.0,0.0,0.0,0.0,0.0,0.0,0.0,0.0,0.0,0.0,0.0,0.0,5.4552,5.647,5.7919,5.8669,5.8948,5.8401,5.7163,5.8354,5.8669,5.8878,6.1575,6.2833,6.3016,6.4692,6.6242,6.7499,6.7499,6.8498,6.9771,7.0088,7.021,7.0259,7.0576,7.0674,7.0674,7.0674,7.0674,7.0674,7.0674,7.0478,7.055,7.2072,7.2328,7.2427,7.4138,7.4481,7.3405,6.8496,6.8062,6.8404,6.7647,6.7501,6.7721,6.8477,6.8038,6.7715,6.8643,6.5268,6.2618,6.293,5.9134,5.5994,5.5087,5.4993,5.4993,5.4993,5.4993,5.4993,5.4993,5.4993,5.524,5.5809,5.5847,5.5601,5.5012,5.5544,5.5847,5.5847,5.6436,5.674,5.674,5.674,5.674,5.674,5.674,5.674,4.5805,4.128,3.6496,2.9659,2.5277,2.173,1.8795,1.816,1.9027,2.2402,2.6807,3.1192,3.5157,3.3701,0.0,0.0,0.0,0.0,0.0,0.0,0.0,0.0,0.0,0.0,0.0,0.0,0.0,0.0,0.0,0.0,0.0,0.0,0.0,0.0,0.0,0.0,5.0058,5.0874,5.2776,5.5163,5.6043,5.424,5.0266,5.367,5.5163,5.5392,5.8878,6.0389,6.0389,6.0389,6.1709,6.3994,6.3994,6.548,6.7647,6.8721,6.9112,6.9258,7.0307,7.0674,7.0674,7.0674,7.0674,7.0674,7.0674,6.9941,6.9112,6.9112,6.8331,6.7525,6.7525,6.7525,6.7525,6.7501,6.7501,6.7501,6.7501,6.7501,6.7501,6.7501,6.5659,6.3994,6.3994,5.985,5.678,5.7681,5.5518,5.4082,5.4879,5.4993,5.4993,5.4993,5.4993,5.4993,5.4993,5.4993,5.4993,5.5012,5.5012,5.5012,5.4993,5.5012,5.5012,5.5012,5.5012,5.5012,5.5012,5.5012,5.5012,5.5012,5.5012,5.5012,4.9996,4.6453,4.2274,3.5049,2.8656,2.4021,2.4207,2.3842,2.4262,2.6772,2.984,3.2526,3.457,3.3482,0.0,0.0,0.0,0.0,0.0,0.0,0.0,0.0,0.0,0.0,0.0,0.0,0.0,0.0,0.0,0.0,0.0,0.0,0.0,0.0,0.0,0.0,5.0039,5.0304,5.078,5.1707,5.1771,5.1256,5.0039,5.1024,5.1707,5.1707,5.4529,5.5723,5.5907,5.7533,5.8597,5.9404,6.0071,6.2218,6.5122,6.5452,6.6517,6.7683,6.6514,6.6065,6.6065,6.6065,6.4897,6.4137,6.7535,6.7139,6.593,6.7433,6.7745,6.641,6.1679,6.0927,6.1266,6.0564,6.2218,6.3826,6.2897,6.4184,6.4988,6.4248,6.3484,6.2599,6.1597,5.851,5.6555,5.6842,5.5126,5.3873,5.4139,5.4652,5.4993,5.4993,5.4993,5.4993,5.4993,5.4993,5.4993,5.4993,5.4481,5.4405,5.4974,5.4993,5.4123,5.2144,5.4104,5.3021,4.912,5.107,5.107,4.912,4.912,4.912,5.4522,5.1019,4.6755,4.1001,3.6702,3.3711,3.3307,3.2524,3.2039,3.297,3.5286,3.6939,3.6383,3.5018,3.3567,3.3245,0.0,0.0,0.0,0.0,0.0,0.0,0.0,0.0,0.0,0.0,0.0,0.0,0.0,0.0,0.0,0.0,0.0,0.0,0.0,5.0039,5.0039,5.0039,4.9433,4.8445,4.8445,4.9034,5.0039,5.0039,5.0039,5.002,5.1652,5.2191,5.2377,5.3792,5.4482,5.4544,5.6205,5.8607,6.138,6.1765,6.2805,6.3975,6.2878,6.265,6.265,6.265,6.1524,6.0761,6.3743,6.3489,6.2263,6.3749,6.3825,6.2487,5.8181,5.7598,5.7903,5.7293,5.887,6.0247,5.9415,6.0542,6.1442,6.0646,5.9694,5.8817,5.7919,5.5639,5.4089,5.4427,5.3634,5.2943,5.3266,5.374,5.4063,5.4063,5.4063,5.4063,5.4063,5.4063,5.4196,5.4519,5.1829,5.0549,5.1034,5.1052,5.0204,4.8479,5.0204,4.9142,4.552,4.7427,4.7427,4.552,4.552,4.5664,5.8834,5.5163,5.0646,4.7159,4.8143,4.8922,4.4925,4.3002,4.1671,4.0348,4.2323,4.3272,4.017,3.7682,3.5627,3.4328,3.4198,0.0,0.0,0.0,0.0,0.0,0.0,0.0,0.0,0.0,0.0,0.0,0.0,0.0,0.0,0.0,0.0,0.0,0.0,4.9339,4.9339,4.9339,4.8071,4.5528,4.558,4.6782,4.917,4.949,4.9547,4.9547,4.9736,4.9982,5.002,4.9887,4.9925,5.019,5.2482,5.4622,5.6735,5.7983,5.8491,5.8804,5.9493,5.9819,5.9819,5.9819,5.9611,5.9611,5.9984,5.9188,5.8308,5.8491,5.7657,5.6627,5.6627,5.6627,5.6627,5.6627,5.6806,5.6984,5.6984,5.6984,5.7162,5.6984,5.5229,5.3629,5.3445,5.1465,5.0304,5.1083,5.1254,5.1576,5.2317,5.2468,5.2506,5.2506,5.2308,5.2289,5.2289,5.209,5.2192,5.3126,4.7625,4.4362,4.4411,4.4411,4.4411,4.4204,4.4411,4.4411,4.379,4.3997,4.3997,4.379,4.379,4.4155,5.7779,5.7928,5.7162,5.0992,5.4231,5.7854,5.3799,5.1411,4.9126,4.5285,4.4437,4.3565,4.0819,3.8574,3.6416,3.4446,3.3425,0.0,0.0,0.0,0.0,0.0,0.0,0.0,0.0,0.0,0.0,0.0,0.0,0.0,0.0,0.0,0.0,0.0,4.3014,4.3205,4.3205,4.3205,4.2349,4.0326,4.0892,4.1342,4.1944,4.5024,4.6344,4.6532,4.8271,4.9412,4.9925,4.8615,4.8843,4.9963,5.0003,5.0694,5.1839,5.4037,5.5887,5.7353,5.5797,5.5145,5.5145,5.5145,5.3889,5.3142,5.6751,5.642,5.518,5.6972,5.4648,5.1633,5.1633,5.1633,5.1633,5.1633,5.3077,5.4523,5.4523,5.593,5.6627,5.4866,5.3975,5.3097,5.1111,5.0378,5.0096,5.0304,5.0874,5.1367,5.1557,5.2127,5.2506,5.2506,5.0619,4.9579,4.9579,4.752,4.6127,4.5741,4.4529,4.3863,4.4394,4.4411,4.3583,4.1303,4.3375,4.235,3.8019,4.007,4.007,3.8019,3.8019,3.8102,5.9361,6.0922,6.1371,5.5209,5.9116,6.3609,6.0274,5.8822,5.7007,5.2465,4.9535,4.7387,4.5899,4.1977,3.8912,3.8754,0.0,3.2793,0.0,0.0,0.0,0.0,0.0,0.0,0.0,0.0,0.0,0.0,0.0,0.0,0.0,0.0,0.0,0.0,3.9848,4.0423,4.0423,3.7569,3.6346,3.6847,3.7205,3.7919,3.9194,4.1271,4.2208,4.2391,0.0,4.4474,4.4867,4.5671,4.6512,4.7545,4.8812,4.9621,5.002,5.1465,5.2707,5.3608,5.2357,5.2025,5.2025,5.2025,5.1111,5.0378,5.3056,5.2892,5.2191,5.3425,5.1985,5.0039,5.0039,5.0039,5.0039,5.0039,5.0923,5.2025,5.2025,5.2892,5.3425,5.2191,5.1669,5.1044,4.9599,4.9109,4.8995,4.9374,4.983,4.9867,4.9034,4.9262,4.9127,4.7891,4.6468,4.5654,4.5654,4.4234,4.3266,4.2895,4.0471,3.9434,3.9773,3.9788,3.8978,3.7555,3.8978,3.8164,3.5137,3.6749,3.6749,3.5137,3.5137,3.528,6.0924,6.2893,6.3851,5.9876,6.3672,6.7921,6.5998,6.5347,6.3797,5.9406,5.5036,5.1775,5.0647,4.5222,4.1298,4.2482,0.0,3.3308,0.0,0.0,3.0131,0.0,0.0,0.0,0.0,0.0,0.0,0.0,0.0,0.0,0.0,0.0,0.0,3.539,3.7156,3.7951,3.7745,3.232,3.0993,3.3616,3.3717,3.4979,3.705,3.7625,3.7898,0.0,0.0,3.8492,3.8848,4.1866,4.3178,4.3875,4.7213,4.8551,4.8701,4.9207,4.945,4.9488,4.9735,4.9925,5.0001,4.9887,4.9925,4.9831,4.9433,4.9641,4.9793,4.8867,4.864,4.864,4.9056,4.9339,4.9395,4.966,4.9925,5.0001,4.9849,4.9547,4.9358,4.9114,4.8252,4.7526,4.7396,4.68,4.6433,4.7451,4.7563,4.6913,4.5563,4.5265,4.4526,4.2463,4.1889,4.1494,4.1494,4.1099,4.0901,4.0901,3.6756,3.4177,3.4177,3.4177,3.4177,3.4177,3.4177,3.4177,3.4177,3.4177,3.4177,3.4177,3.4177,3.4449,5.7854,6.0829,6.476,6.5393,6.9254,7.2903,7.2986,7.0242,6.6208,6.1053,5.6148,5.1354,4.6454,4.3835,4.0718,3.579,3.4175,0.0,2.9159,2.73,2.6491,2.6561,0.0,0.0,0.0,0.0,0.0,0.0,0.0,0.0,0.0,0.0,0.0,3.1552,3.1361,3.0926,2.9925,2.8423,2.7981,2.8559,2.9051,2.9448,2.9973,3.3053,0.0,0.0,0.0,0.0,3.8684,3.7699,3.8184,3.9771,4.132,4.2451,4.3343,4.5841,4.6831,4.702,4.8444,4.9412,4.9906,4.9165,4.9431,4.9641,4.7243,4.8236,4.8885,4.388,4.2531,4.3121,4.5466,4.636,4.7063,4.8513,4.9488,4.983,4.909,4.7741,4.6449,4.5315,4.3245,4.1626,4.0991,4.0791,4.0974,4.1524,4.1641,4.172,4.1859,4.1957,4.1992,4.2218,4.0122,3.874,3.874,3.677,3.5362,3.5362,3.4573,3.4177,3.4177,3.4177,3.4177,3.4177,3.4177,3.4177,3.4177,3.4177,3.4177,3.4177,3.4177,3.4228,5.7451,5.8815,6.0972,6.1445,6.5845,6.996,6.9577,6.8845,6.6577,6.0643,5.6066,5.164,4.6888,4.3742,4.0776,3.7845,3.55,3.259,2.8565,2.5012,2.3054,2.3483,0.0,0.0,0.0,0.0,0.0,0.0,0.0,0.0,0.0,0.0,2.7763,2.8007,2.8591,2.7365,2.4171,2.3766,2.3665,2.3665,2.389,2.416,2.4183,2.7162,0.0,0.0,0.0,0.0,3.2623,3.3898,3.4977,3.5913,3.8612,3.9708,4.0239,4.1653,4.2144,4.2232,4.3133,4.3711,4.4362,4.423,4.4773,4.5023,4.3841,4.3592,4.2928,3.8884,3.8773,4.0061,4.1372,4.1808,4.2345,4.309,4.3663,4.384,4.3469,4.2738,4.1859,4.1345,3.9993,3.8722,3.8397,3.8332,3.8398,3.9111,3.9532,3.9477,3.8677,3.8899,3.8666,3.7601,3.656,3.5972,3.5972,3.4396,3.3255,3.3255,3.3255,3.3255,3.3255,3.3553,3.3722,3.3722,3.4021,3.4177,3.4177,3.4177,3.4177,3.4177,3.4177,3.4177,5.7628,0.0,5.7644,5.8392,6.3144,6.744,0.0,6.7557,6.6383,6.0004,5.5395,5.1194,4.6785,4.3056,4.0103,3.8697,3.5458,3.1834,2.834,2.3666,2.0613,2.0696,2.0285,0.0,0.0,0.0,0.0,0.0,0.0,0.0,0.0,0.0,2.4498,2.462,2.5871,2.4554,2.0625,2.0625,2.0625,2.0625,2.0625,2.0625,2.0625,2.2289,0.0,0.0,0.0,0.0,2.6753,2.9719,3.1275,3.2065,3.5443,3.6715,3.6919,3.76,3.7838,3.7887,3.823,3.859,3.8869,3.9747,4.0212,4.0461,3.9912,3.8321,3.6227,3.4143,3.501,3.6759,3.7465,3.7593,3.785,3.8394,3.8475,3.8541,3.8377,3.8123,3.7609,3.7449,3.6448,3.5521,3.5365,3.5163,3.5223,3.6079,3.6428,3.6348,3.5147,3.5484,3.5134,3.3297,3.3527,3.3774,3.3774,3.1966,3.0681,3.0681,3.0681,3.0681,3.0681,3.1074,3.1507,3.1507,3.1902,3.2112,3.2112,3.2112,3.2112,3.2112,3.2112,3.2112,0.0,5.6898,5.7893,6.2305,6.6647,7.0129,7.1539,6.9933,0.0,6.0004,5.4585,4.905,4.3141,4.0224,3.7348,3.2623,3.0551,2.8998,2.7648,2.351,1.9935,0.0,1.7941,0.0,0.0,0.0,0.0,0.0,0.0,0.0,0.0,0.0,2.1241,2.1823,2.141,2.0991,2.0625,2.0625,2.0625,2.0625,2.0625,2.0625,2.0625,2.0793,0.0,0.0,0.0,0.0,0.0,2.453,2.5762,2.7983,3.0285,3.1111,3.1493,3.4249,3.5305,3.5499,3.6981,3.7046,3.6584,3.8295,3.8786,3.8463,3.6,3.2991,3.0508,3.0342,3.0342,3.1031,3.3474,3.4623,3.5458,3.7269,3.8116,3.841,3.7756,3.6234,3.4712,3.3638,3.1527,2.9477,2.8935,2.8842,2.904,2.9622,2.9929,3.0177,3.092,3.1103,3.1534,3.2424,3.2566,3.2592,3.2592,2.8123,2.5503,2.5503,2.5503,2.5503,2.5503,2.5533,2.5554,2.5554,2.5574,2.5595,2.5595,2.5595,2.5595,2.5595,2.5595,2.5595,5.1437,5.184,5.3725,5.7969,6.3187,6.7475,6.792,6.7343,6.477,5.7941,5.2583,4.7393,4.1672,3.829,3.4813,3.0291,2.8165,2.582,2.212,2.018,0.0,1.5589,0.0,0.0,0.0,0.0,0.0,0.0,0.0,0.0,0.0,0.0,1.8012,1.6774,1.6484,1.6414,1.6414,1.6414,1.6414,1.6414,1.6414,1.6414,1.6414,1.7943,0.0,0.0,0.0,0.0,0.0,2.1788,2.3133,2.5322,2.6109,2.7282,2.8667,2.9867,3.0279,3.0336,3.0971,3.1229,3.126,3.1901,3.2503,3.2555,3.1896,3.021,2.8346,2.8346,2.8346,2.8516,2.9505,2.9993,3.0286,3.1033,3.1483,3.1583,3.1353,3.0669,3.0034,2.9569,2.8666,2.7957,2.7736,2.7996,2.8294,2.8515,2.8853,2.9242,2.9671,3.0021,3.0411,3.0839,3.0151,2.8582,2.6311,2.4372,2.3268,2.3268,2.3268,2.3268,2.3268,2.3797,2.4087,2.4087,2.4626,2.4905,2.4905,2.4905,2.4905,2.4905,2.4905,2.4905,4.7537,4.8452,5.0832,5.496,6.0446,6.4898,6.5425,6.506,6.2824,5.6545,5.1039,4.5661,4.0242,3.6302,3.2557,2.8174,2.584,2.29,1.8346,1.7105,0.0,1.3111,1.3483,0.0,0.0,0.0,0.0,0.0,0.0,0.0,0.0,0.0,1.4714,1.179,1.1618,1.1618,1.1618,1.1618,1.1618,1.1618,1.2318,1.2318,1.179,1.4885,0.0,0.0,0.0,0.0,0.0,1.9625,2.0793,2.2955,2.362,2.4814,2.6348,2.6348,2.6702,2.7372,2.6525,2.6943,2.7957,2.7957,2.8229,2.8619,2.9009,2.7249,2.5181,2.5181,2.5689,2.6348,2.6348,2.6867,2.7385,2.7385,2.7385,2.7385,2.7385,2.7385,2.7385,2.7385,2.7385,2.7385,2.7385,2.771,2.7957,2.7957,2.8294,2.8606,2.8788,2.8601,2.8363,2.8551,2.7164,2.4669,2.1084,2.023,1.9953,1.9953,1.9953,1.9953,1.9953,2.048,2.1008,2.0937,2.1473,2.1804,2.1938,2.1938,2.1938,2.1938,2.1938,2.1938,4.6767,4.7815,4.982,5.4686,5.934,6.3223,6.4981,6.3729,6.0861,5.611,5.0109,4.3901,3.8281,3.4588,3.0695,2.59,2.3125,2.0614,1.7545,1.5191,1.2907,0.0,0.0,0.0,0.0,0.0,0.0,0.0,0.0,0.0,0.0,1.3706,1.1618,0.7112,0.6939,0.6939,0.6939,0.6939,0.6939,0.6939,0.9371,0.9198,0.7112,1.1618,1.2496,0.0,0.0,0.0,0.0,1.7281,1.8621,2.0793,2.2955,2.3797,2.3797,2.3797,2.5334,2.7044,2.4637,2.5322,2.7385,2.7385,2.7385,2.7385,2.7385,2.4163,2.0625,2.0625,2.2122,2.3797,2.3797,2.5664,2.7385,2.7385,2.7385,2.7385,2.7385,2.7385,2.7385,2.7385,2.7385,2.7385,2.7385,2.7385,2.7385,2.7385,2.7385,2.758,2.797,2.6105,2.5083,2.5612,2.3691,2.1017,1.799,1.583,1.4761,1.4761,1.4761,1.4761,1.4761,1.4768,1.4893,1.517,1.5176,1.5328,1.5431,1.5431,1.5431,1.5431,1.5625,1.5625,3.9962,4.1086,4.3244,4.8152,5.3791,5.8459,0.0,5.9374,5.7226,5.1454,4.6908,4.2137,3.656,3.2751,2.8722,2.3547,2.0989,1.7985,1.3222,1.1957,1.0604,0.8377,0.0,0.0,0.0,0.0,0.0,0.0,0.0,0.0,0.0,0.9017,0.8326,0.7112,0.6939,0.6939,0.6939,0.6939,0.6939,0.6939,0.7634,0.7634,0.7112,0.8326,0.8671,0.8153,0.0,0.0,0.0,1.2478,1.4871,1.8282,1.895,2.0289,2.1621,2.1621,2.1965,2.2477,2.1798,2.1965,2.2644,2.2644,2.2644,2.2644,2.2644,2.1631,2.0625,2.0625,2.1129,2.1621,2.1621,2.2133,2.2644,2.2644,2.2644,2.2644,2.2644,2.2644,2.2644,2.2644,2.3809,2.4483,2.2811,2.3986,2.4483,2.2811,2.2644,2.2698,2.2838,2.2343,2.1878,2.2023,1.8604,1.5987,1.5041,1.443,1.4141,1.4141,1.4141,1.4141,1.4141,1.4346,1.4497,1.4576,1.3105,1.2368,1.2633,1.2808,1.2889,1.2889,1.4651,1.5625,3.5007,3.6492,3.9054,4.3914,4.9402,5.4105,5.5726,0.0,5.3407,4.9056,4.4402,3.9728,3.4923,3.0761,2.615,2.0448,1.7903,1.4419,0.8458,0.8503,0.7811,0.452,0.5903,0.0,0.0,0.0,0.0,0.0,0.0,0.0,0.0,0.4173,0.4173,0.4173,0.4173,0.4173,0.4173,0.4173,0.4173,0.4173,0.5212,0.5038,0.4346,0.6076,0.642,0.573,0.0,0.0,0.0,0.9025,1.1263,1.4707,1.5539,1.724,1.9288,1.9288,1.9784,2.0457,1.9625,1.9784,2.0625,2.0625,1.9447,1.7935,1.7935,1.7935,1.7935,1.7935,1.7935,1.8096,1.9119,1.9288,1.9457,2.0457,2.0625,2.0625,2.0625,2.0625,2.0625,2.0625,2.1621,2.2122,2.0793,2.1788,2.2122,2.0793,2.0625,2.0625,2.0625,1.9794,1.9288,1.9288,1.5966,1.3667,1.3548,1.269,1.2175,1.2175,1.1504,1.1043,1.1134,1.1284,1.1445,1.1628,1.0365,0.979,0.9947,0.9987,1.0087,1.0241,1.1783,1.2406,3.1268,3.3305,3.6599,4.1023,4.5776,5.006,5.2709,0.0,0.0,4.7884,4.2542,3.7012,3.2852,2.8418,2.3334,1.6721,1.3784,1.0075,0.3807,0.4685,0.4514,0.0175,0.0,0.0,0.0,0.0,0.0,0.0,0.0,0.0,0.0,-0.0524,-0.0175,0.0,0.0,0.0,0.0,0.0,0.0,0.0,0.2091,0.2091,0.0175,0.4346,0.5212,0.3307,0.0,0.0,0.0,0.6593,0.7973,1.0382,1.2395,1.4432,1.632,1.6497,1.7832,1.9327,1.7504,1.8204,1.9896,1.9896,1.6868,1.3146,1.3146,1.3165,1.3184,1.3362,1.3534,1.4043,1.643,1.6941,1.7443,1.9447,1.9953,1.9953,1.9953,1.9953,1.9953,1.9953,2.0121,2.0289,1.9953,2.0121,2.0289,1.9953,1.9953,1.9953,1.9953,1.8282,1.6916,1.6675,1.4567,1.2981,1.2556,1.0732,0.9591,0.9591,0.7976,0.7067,0.7045,0.7052,0.7181,0.7275,0.7159,0.7231,0.7323,0.7397,0.7485,0.7376,0.7577,0.7841,2.6495,2.9313,3.285,3.6597,4.198,4.6847,4.9043,4.9476,0.0,0.0,4.0438,3.6271,2.7589,2.4409,2.0407,1.2369,0.8985,0.5252,-0.1031,-0.1555,-0.1557,0.0,-0.3471,0.0,0.0,0.0,0.0,0.0,0.0,0.0,-0.5212,-0.3827,-0.1917,0.0,0.0,0.0,0.0,0.0,0.0,0.0,0.0524,0.0524,0.0,0.1047,0.1221,0.0698,0.1221,0.0,0.0,0.4173,0.5678,0.7798,0.8292,0.8703,0.9395,1.0874,1.1849,1.2332,1.3511,1.434,1.4872,1.4872,1.2007,0.8469,0.8469,0.8393,0.8844,1.0756,1.1284,1.1801,1.4043,1.4557,1.4728,1.5235,1.5235,1.5235,1.5235,1.5235,1.5235,1.5235,1.6762,1.7443,1.5569,1.6762,1.7443,1.5576,1.5235,1.5235,1.5235,1.4899,1.3686,1.1732,1.0999,0.9974,0.8467,0.7814,0.7652,0.7652,0.7165,0.702,0.7052,0.7056,0.7088,0.7152,0.5221,0.4427,0.447,0.46,0.4686,0.4727,0.6827,0.7816,2.3738,2.5616,2.8629,3.32,3.8449,4.3013,4.4771,0.0,0.0,0.0,3.7006,3.2277,2.5039,2.1051,1.6253,0.7916,0.4682,0.1174,-0.4309,-0.5192,0.0,-0.5209,-0.6246,-0.6076,0.0,0.0,0.0,0.0,0.0,0.0,-0.6939,-0.5903,-0.4694,-0.3481,-0.2265,-0.1743,-0.1743,-0.0524,-0.0524,-0.1743,-0.1743,-0.2265,-0.3307,-0.2265,-0.1743,-0.1569,-0.0524,0.0,0.1743,0.1743,0.3266,0.5389,0.5389,0.5981,0.7165,0.8138,0.8462,0.8624,0.9767,1.0168,1.025,1.0142,0.8703,0.6962,0.6962,0.7066,0.7184,0.8552,0.8785,0.9367,1.1624,1.2146,1.2496,1.3534,1.3878,1.3878,1.3878,1.3878,1.3878,1.3878,1.4728,1.5242,1.4049,1.4899,1.5242,1.4049,1.3765,1.368,1.368,1.1857,0.997,0.8351,0.8161,0.7806,0.6625,0.5677,0.5208,0.5208,0.4262,0.3649,0.369,0.3692,0.3711,0.3588,0.1469,0.0328,0.0331,-0.0503,-0.0852,-0.087,0.0527,0.1597,2.1258,2.242,2.4724,2.9884,3.5014,3.9139,4.0717,4.1295,0.0,0.0,3.3454,2.7582,2.2922,1.7552,1.1329,0.331,-0.0174,-0.3483,-0.7707,0.0,-0.8219,0.0,0.0,0.0,0.0,0.0,0.0,0.0,0.0,0.0,-0.8149,-0.7807,-0.7634,-0.7634,-0.5385,-0.4173,-0.4173,-0.2265,-0.2265,-0.4173,-0.4173,-0.5038,-0.6939,-0.5038,-0.4173,-0.3999,0.0,0.0,-0.0524,-0.0522,0.0856,0.2848,0.2838,0.4108,0.58,0.6121,0.6282,0.6442,0.676,0.6939,0.6778,0.5675,0.5564,0.5832,0.5832,0.576,0.5868,0.6224,0.6306,0.6909,0.9362,0.9894,1.0412,1.214,1.2662,1.2662,1.2662,1.3006,1.3349,1.3647,1.3765,1.3733,1.3733,1.3733,1.3733,1.3733,1.3193,1.2886,1.2886,0.9319,0.6552,0.5958,0.5789,0.5588,0.502,0.35,0.259,0.259,0.061,-0.0616,-0.0471,-0.0942,-0.1109,-0.0969,-0.2693,-0.3639,-0.3541,-0.523,-0.6096,-0.599,-0.6011,-0.5239,1.6937,1.9301,2.3132,2.5164,3.098,3.6408,3.7657,3.8681,3.8638,3.574,0.0,2.6251,1.8609,1.2724,0.6401,-0.1991,0.0,-1.0748,-1.333,-1.3736,-1.2833,-1.0288,-1.1796,-1.1274,-0.7458,-0.8848,-0.9198,-0.7112,-1.0579,-1.2834,-1.2834,-1.1107,-1.0066,-1.0066,-0.7807,-0.6596,-0.6596,-0.6246,-0.6246,-0.6596,-0.6596,-0.6766,-0.6939,-0.6593,-0.6596,-0.6596,0.0,0.0,-0.2955,-0.307,-0.1673,0.0492,0.0482,0.0629,0.1078,0.2922,0.369,0.3841,0.5523,0.6369,0.5986,0.2159,0.0934,0.0953,0.0953,0.0968,0.1319,0.3353,0.3881,0.4584,0.6909,0.7461,0.7458,0.7804,0.7976,0.7976,0.7976,0.9539,1.1397,1.3064,1.3317,1.3139,1.3139,1.3139,1.3139,1.3139,1.1621,1.0451,1.0451,0.787,0.5514,0.3672,0.3519,0.2752,0.0915,0.061,0.0458,0.0458,-0.1525,-0.2747,-0.2756,-0.4276,-0.5197,-0.5211,-0.5502,-0.5654,-0.567,-0.5926,-0.5995,-0.6033,-0.5994,-0.5895,1.7718,1.8149,2.015,2.2841,2.7536,3.1791,3.2748,3.4302,3.4577,3.1038,2.795,0.0,0.0,0.0,0.0,0.0,0.0,0.0,-1.5647,-1.4972,-1.3817,0.0,-1.319,0.0,-1.1096,-1.1796,-1.1968,0.0,-1.2662,-1.4386,-1.5747,-1.3521,-1.2324,-1.2324,-1.1274,-1.0234,-0.9021,-0.7634,-0.7634,-0.9021,-0.9021,-0.9539,-1.0751,-0.9539,-0.9021,-0.8848,0.0,-0.642,-0.538,-0.5501,-0.4705,-0.3585,-0.2421,-0.1889,-0.1525,0.061,0.1373,0.1525,0.2284,0.2759,0.2315,-0.0764,-0.1689,-0.2013,-0.3092,-0.2673,-0.1607,-0.0486,0.0662,0.2029,0.4427,0.4993,0.5383,0.6766,0.6939,0.6939,0.6939,0.774,0.8849,0.9611,0.9752,0.9605,0.9605,0.9605,0.9605,0.9605,0.8693,0.7465,0.6277,0.4006,0.2284,0.1525,0.1373,0.1068,0.0153,0.0,-0.0458,-0.1677,-0.259,-0.3654,-0.4713,-0.5618,-0.6072,-0.6072,-0.7135,-0.774,-0.774,-0.8902,-0.9564,-0.9569,-0.9511,-0.8928,1.942,1.766,1.7835,2.0074,2.3902,2.7219,2.7391,2.9268,2.9942,2.6788,2.3579,1.9126,0.0,0.0,0.0,-0.918,-1.1085,0.0,-1.6183,-1.4611,0.0,-1.3031,0.0,-1.3012,-1.3012,-1.3534,0.0,0.0,-1.5235,-1.6081,-1.7281,-1.5584,-1.4392,-1.3878,-1.3878,-1.3012,-1.1284,-0.9539,-0.9539,-1.1284,-1.1284,-1.2146,-1.3706,-1.2146,-1.1284,-1.1279,-0.9539,-0.8499,-0.7804,-0.7935,-0.7412,-0.6346,-0.4854,-0.41,-0.3654,-0.2132,-0.122,-0.0915,-0.1372,-0.1524,-0.1829,-0.335,-0.3804,-0.4108,-0.5618,-0.5077,-0.3912,-0.3779,-0.2749,-0.1165,0.0504,0.1363,0.2245,0.3986,0.4839,0.517,0.517,0.5762,0.6169,0.5972,0.6538,0.6931,0.6729,0.6722,0.6722,0.6722,0.6153,0.4811,0.2596,0.0915,0.0,0.0,0.0,-0.0153,-0.0763,-0.0763,-0.1677,-0.3652,-0.4412,-0.532,-0.6829,-0.7286,-0.7589,-0.7589,-0.9556,-1.0615,-1.0615,-1.2737,-1.38,-1.38,-1.38,-1.2587,2.0634,1.7982,1.76,1.5976,1.9845,2.3567,2.2033,2.3631,2.4963,2.3446,1.8578,1.3264,0.0,0.0,-0.4586,-1.0281,-1.3056,-1.4728,-1.491,-1.2868,-1.1233,0.0,0.0,0.0,0.0,0.0,0.0,-1.6941,0.0,-1.9457,-1.7451,-1.7111,-1.6089,-1.3878,-1.3878,-1.3706,-1.3706,-1.3528,-1.3528,-1.3706,-1.3706,-1.3706,-1.3878,-1.3706,-1.3706,-1.3706,-1.3528,-1.2318,-1.0397,-1.0357,-0.8808,-0.6499,-0.6518,-0.6208,-0.592,-0.5769,-0.4561,-0.3199,-0.5014,-0.5769,-0.5769,-0.5769,-0.592,-0.592,-0.592,-0.5927,-0.5807,-0.5939,-0.5832,-0.5743,-0.5993,-0.438,-0.2883,-0.2942,-0.1201,0.0339,0.0339,0.216,0.357,0.334,0.5053,0.6573,0.6118,0.6092,0.6092,0.6092,0.4422,0.2594,0.0458,0.0,0.0,0.0,0.0,-0.0763,-0.2743,-0.2895,-0.3804,-0.5769,-0.7744,-0.8806,-0.8957,-1.094,-1.1862,-1.1862,-1.3793,-1.483,-1.483,-1.69,-1.7776,-1.7776,-1.7776,-1.6743,2.4824,2.0311,1.7629,1.5714,1.7801,2.025,1.9518,1.9505,1.8947,1.6916,1.4324,1.0312,0.3761,-0.0365,-0.4977,-1.1718,-1.3635,-1.4181,-1.4141,-1.2218,-1.0234,-0.8515,-0.9548,0.0,0.0,0.0,0.0,-2.1296,-2.0961,-2.0289,-1.9457,-1.8122,-1.6259,-1.3878,-1.3878,-1.3878,-1.3878,-1.3878,-1.3878,-1.3878,-1.5413,-1.6089,-1.6089,-1.6089,-1.5242,-1.3878,-1.3878,-1.3362,-1.2662,-1.2566,-1.1765,-1.0565,-0.9187,-0.8479,-0.7891,-0.6526,-0.5618,-0.5317,-0.7286,-0.7131,-0.6223,-0.7589,-0.8046,-0.8348,-0.9566,-0.9108,-0.8059,-0.7977,-0.7231,-0.6459,-0.6401,-0.6056,-0.5659,-0.5458,-0.4744,-0.3694,-0.2319,-0.1298,-0.0319,0.0791,0.1715,0.2308,0.2136,0.2131,0.2131,0.2131,0.1524,0.0915,0.0153,-0.122,-0.1982,-0.1982,-0.3196,-0.4104,-0.4862,-0.5014,-0.5924,-0.7895,-0.8655,-0.9722,-1.1097,-1.3044,-1.4092,-1.4092,-1.6011,-1.7038,-1.7038,-1.7786,-1.807,-1.807,-1.807,-1.7629,3.0763,2.3931,1.8683,1.6035,1.6377,1.7227,1.5909,1.5339,1.437,1.1756,0.9759,0.698,0.1271,-0.2209,-0.5885,-1.1673,-1.2638,-1.265,-1.2614,-1.0047,-0.7811,-0.7112,-0.833,0.0,0.0,0.0,0.0,-2.362,-2.331,-2.2143,-2.0625,-1.9288,-1.6933,-1.3878,-1.3878,-1.3878,-1.3878,-1.4557,-1.4557,-1.3878,-1.6933,-1.7952,-1.7281,-1.7281,-1.643,-1.4899,-1.4221,-1.3878,-1.3878,-1.3878,-1.3541,-1.2859,-1.1551,-1.0601,-1.0024,-0.8655,-0.8046,-0.8348,-0.9722,-0.9264,-0.8348,-0.9722,-1.018,-1.0633,-1.2601,-1.1843,-1.0325,-1.0916,-0.9934,-0.8467,-0.8589,-0.8316,-0.7801,-0.7752,-0.7028,-0.5957,-0.437,-0.4115,-0.3739,-0.2339,-0.2001,-0.1828,-0.122,-0.1068,-0.0763,-0.0153,0.0,-0.0458,-0.1828,-0.3196,-0.4108,-0.4108,-0.5317,-0.6375,-0.6984,-0.7135,-0.8193,-1.106,-1.1217,-1.2124,-1.4092,-1.5426,-1.616,-1.616,-1.8061,-1.9088,-1.9088,-1.9673,-1.9976,-1.9976,-1.9976,-1.9684,3.8158,0.0,2.1222,1.6669,1.5654,1.4593,1.0807,1.1409,1.178,0.8016,0.5176,0.2774,0.0737,-0.3685,-0.765,-0.9969,-1.0421,-1.0416,-1.0244,-0.6426,-0.4346,-0.6593,-0.7112,-0.8995,0.0,-2.0054,-2.3963,-2.3963,-2.6006,-2.5346,-2.0793,-2.0625,-1.8434,-1.3878,-1.3878,-1.3878,-1.3878,-1.6089,-1.6089,-1.3878,-1.8603,-1.9625,-1.7451,-1.7451,-1.7451,-1.7281,-1.5071,-1.4049,-1.4049,-1.4049,-1.3702,-1.3182,-1.3182,-1.2828,-1.2321,-1.2471,-1.2321,-1.2321,-1.2321,-1.2321,-1.2321,-1.2321,-1.2321,-1.2765,-1.4689,-1.395,-1.2765,-1.4681,-1.3957,-1.2613,-1.3035,-1.1556,-0.9822,-1.002,-0.8423,-0.6623,-0.6159,-0.6171,-0.6072,-0.6072,-0.6072,-0.5466,-0.3502,-0.3198,-0.2438,-0.0458,-0.0153,-0.1524,-0.5466,-0.6072,-0.6072,-0.6072,-0.6223,-0.6984,-0.9108,-0.9264,-1.0916,-1.4979,-1.5277,-1.616,-1.807,-1.807,-1.8218,-1.8218,-2.01,-2.1117,-2.1117,-2.3019,-2.3918,-2.3918,-2.3918,-2.2875,4.3269,0.0,0.0,1.9271,1.6785,1.5021,1.0882,0.9398,0.8124,0.5155,0.262,0.0189,-0.2076,-0.3545,-0.5312,-0.7664,-0.7885,-0.7288,-0.5732,-0.5732,-0.5556,-0.452,-0.8819,-1.3779,-1.8221,-2.1934,-2.4637,-2.6348,-2.5499,-2.3643,-2.0793,-1.9119,-1.6933,-1.3878,-1.3878,-1.3878,-1.3878,-1.6089,-1.6941,-1.643,-2.0783,-2.2633,-2.2122,-2.2122,-2.1129,-1.9616,-1.8941,-1.8772,-1.8772,-1.8772,-1.8307,-1.7433,-1.6021,-1.4976,-1.454,-1.6011,-1.5566,-1.4391,-1.4391,-1.4391,-1.4391,-1.4391,-1.5277,-1.6604,-1.7038,-1.6891,-1.6604,-1.7186,-1.7093,-1.6822,-1.7466,-1.6949,-1.6021,-1.4834,-1.3809,-1.2099,-0.8931,-0.8238,-0.7891,-0.6375,-0.6072,-0.592,-0.5317,-0.5166,-0.5014,-0.4407,-0.4407,-0.4708,-0.592,-0.6072,-0.6677,-0.8046,-0.9566,-1.0789,-1.1398,-1.2737,-1.392,-1.5128,-1.6456,-1.7491,-1.807,-1.938,-2.0245,-2.0245,-2.2142,-2.3175,-2.3175,-2.5021,-2.5177,-2.3905,-2.5319,-2.4879,5.287,0.0,0.0,0.0,2.2467,1.8521,1.3934,1.0731,0.766,0.4184,0.1661,-0.0373,-0.1693,-0.2797,-0.4224,0.0,-0.616,-0.5732,-0.6255,-0.5906,-0.5732,-0.6429,-1.2419,-1.7765,-2.0701,-2.3599,-2.6105,-2.7544,-2.6308,-2.4318,-2.2122,-1.9962,-1.7604,-1.5413,-1.4392,-1.3878,-1.3878,-1.7103,-1.7782,-1.5925,-2.23,-2.4306,-2.2622,-2.4483,-2.414,-2.1955,-2.0961,-2.0625,-2.0625,-2.0625,-2.0213,-1.9574,-1.8121,-1.7225,-1.6821,-1.7696,-1.7102,-1.5675,-1.5227,-1.5218,-1.5317,-1.5177,-1.6456,-1.8218,-1.9088,-1.8648,-1.8218,-1.9088,-1.8831,-1.8372,-1.8791,-1.8752,-1.8441,-1.7497,-1.7017,-1.5989,-1.3366,-1.2845,-1.2247,-1.0286,-0.9836,-0.9239,-0.7584,-0.7286,-0.7887,-0.954,-0.9836,-0.9836,-0.9836,-0.9836,-1.0586,-1.2696,-1.392,-1.4689,-1.4689,-1.5714,-1.6743,-1.7609,-1.8638,-1.9673,-2.0559,-2.1563,-2.2562,-2.3268,-2.4451,-2.5447,-2.6281,-2.7406,-2.7266,-2.6281,-2.7406,-2.7251,6.3851,0.0,0.0,3.641,3.056,2.4485,0.0,0.0,0.9774,0.4776,0.1968,0.0361,0.0,-0.1663,-0.385,-0.6305,-0.4939,-0.5048,-0.9607,-0.6795,-0.6085,-1.0787,-1.6981,-2.109,-2.1996,-2.5408,-2.7518,-2.7839,-2.7352,-2.6019,-2.3631,-2.1621,-1.9794,-1.7782,-1.5576,-1.4557,-1.4557,-1.8772,-1.8932,-1.5063,-2.3321,-2.5346,-2.1464,-2.5511,-2.6348,-2.4129,-2.23,-2.1296,-2.1296,-2.1296,-2.1198,-2.0899,-1.9971,-1.9599,-1.9562,-1.9122,-1.808,-1.6863,-1.6165,-1.5988,-1.6193,-1.5975,-1.7186,-1.9088,-2.0827,-2.01,-1.9098,-2.0827,-2.01,-1.875,-1.9176,-1.9095,-1.9075,-1.8822,-1.8802,-1.8663,-1.8149,-1.807,-1.7629,-1.5863,-1.5426,-1.4367,-1.076,-1.0158,-1.1361,-1.4971,-1.5426,-1.5426,-1.5426,-1.5426,-1.616,-1.7933,-1.807,-1.807,-1.807,-1.8501,-1.9516,-2.1239,-2.1673,-2.2694,-2.4464,-2.4464,-2.5319,-2.6859,-2.6985,-2.7825,-2.9612,-2.975,-2.975,-2.9612,-2.975,-2.9888,0.0,0.0,0.0,0.0,0.0,0.0,0.0,0.0,1.4651,0.7058,0.3838,0.1949,0.0368,-0.0366,-0.1452,-0.4036,-0.3922,-0.4574,-0.781,-0.8866,-1.0986,-1.6092,-1.9532,-2.2599,-2.4642,-2.6824,-2.7399,-2.5582,-2.4931,-2.3631,-2.1296,-2.0793,-2.0457,-1.9962,-1.9447,-1.9279,-1.9279,-2.1955,-2.2789,-2.1945,-2.5676,-2.688,-2.6196,-2.7044,-2.7208,-2.669,-2.6361,-2.6019,-2.6019,-2.6019,-2.5697,-2.4994,-2.2864,-2.3167,-2.4832,-2.4454,-2.3125,-2.1478,-2.0758,-2.0455,-2.0455,-1.9959,-2.1117,-2.2887,-2.3175,-2.3031,-2.2887,-2.3175,-2.3031,-2.2867,-2.3411,-2.3225,-2.2565,-2.1346,-2.0824,-2.0063,-1.8384,-1.807,-1.7933,-1.7629,-1.7491,-1.7334,-1.6429,-1.6272,-1.6577,-1.7334,-1.7491,-1.7491,-1.7491,-1.7491,-1.7629,-1.808,-1.807,-1.807,-1.807,-2.0926,-2.2775,-2.3205,-2.6196,-2.8058,-2.8506,-2.8506,-2.8645,-2.8922,-2.8922,-2.9199,-2.9612,-3.0966,-3.0966,-2.9612,-3.1017,-3.2526,0.0,0.0,0.0,0.0,0.0,0.0,0.0,0.0,0.0,0.0,0.0,0.6695,0.0,0.0,0.0179,-0.4843,-0.342,-0.3871,-1.0133,-0.9907,-1.0773,-1.5758,-1.9676,-2.1774,-2.1784,-2.5771,-2.7344,-2.5058,-2.5456,-2.5169,-2.3997,-2.2977,-2.2289,-2.2289,-2.1119,-2.0625,-2.0625,-2.2789,-2.3288,-2.2289,-2.5689,-2.6867,-2.5676,-2.6867,-2.7385,-2.7385,-2.7385,-2.7385,-2.7549,-2.8477,-2.8773,-2.8269,-2.6858,-2.6544,-2.6853,-2.5996,-2.4746,-2.329,-2.2554,-2.2125,-2.2034,-2.1531,-2.2516,-2.3918,-2.3918,-2.462,-2.5319,-2.5319,-2.5999,-2.6777,-2.7096,-2.648,-2.547,-2.4441,-2.3565,-2.2626,-2.1332,-2.0995,-2.0693,-1.9662,-1.9516,-1.9234,-1.8218,-1.9684,-2.0704,-1.9662,-1.9516,-1.9797,-2.0793,-2.0926,-2.1305,-2.2457,-2.2531,-2.2531,-2.2531,-2.43,-2.5675,-2.6573,-2.8459,-2.9612,-2.9612,-2.9612,-3.0025,-3.083,-3.0966,-3.1391,-3.2239,-3.3181,-3.3199,-3.2374,-3.4096,-3.5436,0.0,0.0,0.0,0.0,0.0,0.0,0.0,0.0,0.0,0.0,0.0,0.0,0.0,0.0,0.0,-0.6109,-0.3597,-0.3863,-1.3108,-1.044,-0.9262,-1.4194,-1.8492,-2.0438,-1.897,-2.3754,-2.5947,-2.3678,-2.5133,-2.6019,-2.6019,-2.4649,0.0,-2.4637,-2.3277,-2.2331,-2.2102,-2.4267,-2.4267,-2.2102,0.0,0.0,-2.4649,-2.6525,-2.77,-2.8014,-2.8014,-2.8164,-2.8816,-3.0364,-3.1152,-3.1093,-3.0909,-2.9973,-2.8531,-2.7565,-2.6343,-2.5141,-2.4372,-2.3733,-2.3003,-2.2561,-2.3115,-2.4205,-2.4361,-2.5461,0.0,-2.7273,-2.8552,-2.9838,-2.9983,-2.917,-2.8158,-2.7198,-2.6243,-2.5369,-2.4744,-2.4271,-2.3606,-2.2262,-2.1829,-2.1117,-1.9527,-2.2418,-2.4398,-2.2676,-2.2464,-2.3049,-2.4467,-2.4689,-2.5643,-2.7724,-2.8001,-2.8114,-2.8485,-2.8093,-2.8634,-3.0612,-3.0561,-3.0594,-3.1227,-3.1695,-3.2621,-3.3819,-3.3876,-3.4625,-3.633,-3.6129,-3.6018,-3.5998,-3.6963,-3.7259,0.0,0.0,0.0,0.0,0.0,0.0,0.0,0.0,0.0,0.0,0.0,0.0,0.0,0.0,0.0,0.0,-0.4888,-0.5814,-1.3542,-1.0661,-0.9391,-1.4137,-1.745,-2.0092,-2.1695,-2.2199,-2.1447,-1.9023,-2.0361,-2.1296,-2.1296,0.0,0.0,0.0,0.0,-2.8666,-2.7425,-2.9375,-2.9375,-2.7268,-2.7788,-2.7699,-2.7031,-2.7208,-2.8491,-3.0203,-3.0203,-3.1152,-3.2904,-3.3221,-3.3221,-3.3315,-3.4457,-3.4148,-3.2904,-3.2748,-3.1496,0.0,0.0,0.0,0.0,-2.4825,-2.4588,-2.5009,-2.6041,-2.6437,-2.7102,-2.9504,-3.0389,-3.0676,-3.1434,-3.1498,-3.0959,-2.9001,-2.8026,-2.7517,-2.7299,-2.5415,-2.4322,-2.5716,-2.4736,-2.3475,-2.3319,-2.6408,-2.8564,-2.7533,-2.8087,-2.8395,-2.7787,-2.8376,-2.9467,-3.1214,0.0,0.0,-3.3429,-3.1861,-3.195,-3.4743,-3.397,-3.4602,-3.7172,-3.9665,-4.0464,-3.949,-3.9455,-3.9953,-4.1358,-4.0062,-3.9524,-3.946,-3.77,-3.663,0.0,0.0,0.0,0.0,0.0,0.0,0.0,0.0,0.0,0.0,0.0,0.0,0.0,0.0,0.0,0.0,-0.226,-0.3503,-0.9413,-0.7434,-0.7137,-1.1942,-1.4741,-1.6616,-1.7376,-1.979,-2.0209,-1.7839,-1.9549,-2.1119,-2.2456,-2.3465,-2.498,-2.7385,-2.6954,-2.7224,-2.8216,-2.6251,-2.5717,-2.6287,-2.474,-2.4477,-2.5322,-2.5322,-2.7269,0.0,-3.0511,-3.1632,-3.371,-3.495,-3.4811,0.0,0.0,0.0,0.0,0.0,-3.2269,-3.0481,-3.0205,-2.8491,-2.6531,-2.6735,-2.7036,-2.7357,-2.8582,-3.0089,-3.1635,-3.2796,-3.3902,-3.4685,-3.5006,-3.4541,-3.3732,-3.2576,-3.1058,-2.9849,-2.9463,-2.8279,-2.7391,-2.8243,0.0,0.0,-2.7251,-2.8506,-2.9378,-2.9073,-3.0019,-3.1152,0.0,-3.3716,-3.5249,-3.5927,-3.6669,-3.7004,-3.7096,-3.4927,0.0,0.0,0.0,-3.5602,-3.8413,-4.0304,0.0,0.0,0.0,0.0,0.0,0.0,0.0,0.0,-4.0597,-3.979,0.0,0.0,0.0,0.0,0.0,0.0,0.0,0.0,0.0,0.0,0.0,0.0,0.0,0.0,0.0,0.0,0.0,0.0173,-0.2072,-0.2106,-0.3378,-0.7325,-0.9969,-1.1507,-1.1944,-1.5592,-1.7302,-1.559,-1.794,-2.0664,-2.2955,-2.2955,-2.414,-2.6361,-2.4209,-2.4014,-2.653,-2.2918,-2.2209,-2.4058,-2.2148,-2.2188,-2.3963,-2.3963,-2.6576,-3.1312,-3.1312,-3.2904,-3.5574,-3.7158,-3.6709,-3.5115,-3.684,-3.7234,-3.6664,-3.5458,-3.4144,-3.3031,-3.2413,-3.0538,-2.8511,-2.9393,-2.9764,-3.0049,-3.1078,-3.2912,-3.4542,-3.497,-3.6292,-3.7548,-3.7776,-3.7382,-3.6635,-3.562,-3.3807,-3.2295,-3.1784,-3.0522,-2.975,-3.0146,-3.071,-3.1,-3.1,-3.1,-3.0915,-3.073,-3.2226,0.0,-3.5012,-3.814,-4.0486,-4.1093,-4.2526,-4.3172,-4.2543,-3.9917,-3.8889,0.0,-3.8029,-3.8069,-4.1076,-4.2031,-4.4233,-4.7997,-4.6864,-4.5266,0.0,0.0,0.0,0.0,0.0,0.0,0.0,0.0,0.0,0.0,0.0,0.0,0.0,0.0,0.0,0.0,0.0,0.0,0.0,0.0,0.0,0.0,0.0,0.0,0.8764,0.5347,0.1743,0.0178,-0.2451,-0.4935,-0.7045,-0.9124,-1.0352,-1.0753,-1.4584,-1.8048,-2.0606,-2.0625,-2.1788,-2.3963,-2.1668,-2.1081,-2.2081,-2.1749,-2.1758,-2.2091,-2.1912,-2.2671,-2.3963,-2.3963,-2.7367,-3.3537,-3.3537,-3.5885,-3.9827,-3.9978,-3.9335,-3.8597,-3.8597,-3.9089,-3.9845,-3.8881,-3.9108,-3.9505,-3.7483,-3.5263,-3.3393,-3.2812,-3.2724,-3.2767,-3.3266,-3.3413,-3.3868,-3.5551,-3.6865,-3.7662,-3.8459,-3.9294,-3.9316,-3.7412,-3.5789,-3.4553,-3.439,-3.1763,-3.0025,-3.1781,-3.36,-3.4872,-3.4872,-3.4872,-3.4607,-3.3813,-3.5728,0.0,-3.6186,-4.069,-4.4546,-4.6292,-4.8835,-5.0505,-5.0949,-4.7759,-4.5699,-4.5605,-4.3338,-4.3678,-4.7546,-4.7383,-4.9128,-5.3134,-5.2894,-5.1278,-4.8174,0.0,0.0,0.0,0.0,0.0,0.0,0.0,0.0,0.0,0.0,0.0,0.0,0.0,0.0,0.0,0.0,0.0,0.0,0.0,0.0,0.0,0.0,0.0,0.0,0.0,1.0321,0.8361,0.7543,0.5936,0.2996,0.1246,-0.1099,-0.389,-0.9258,-1.3867,-1.7591,-1.8927,-1.9468,-1.8734,-1.5105,-1.3637,-1.4657,-1.1284,-1.2328,-1.7527,-1.5491,-1.7148,-2.1893,-2.1765,-2.5402,-3.1632,-3.3063,-3.5263,-3.8097,-3.9505,-3.9484,-3.8706,-3.8706,-3.8554,-3.8288,-3.8004,-3.808,-3.8112,-3.6521,-3.5472,-3.4727,-3.4131,-3.4216,-3.4782,-3.5158,-3.5627,-3.6334,-3.6914,-3.7282,-3.7548,-3.7833,-3.8516,-3.8976,-3.8215,-3.7398,-3.6619,-3.6477,-3.4751,-3.3333,-3.4019,-3.4588,-3.4833,-3.4302,-3.4644,-3.5093,-3.535,-3.7573,-4.0193,-4.2734,-4.6199,-4.9752,-5.3028,-5.4743,-5.5441,-5.4836,-5.1354,-4.8803,-4.8038,-4.5626,-4.5842,-4.9562,-5.125,-5.3865,-5.7369,-5.8251,-5.5786,-5.0148,0.0,0.0,0.0,0.0,0.0,0.0,0.0,0.0,0.0,0.0,0.0,0.0,0.0,0.0,0.0,0.0,0.0,0.0,0.0,0.0,0.0,0.0,0.0,0.0,0.0,0.0,1.7389,1.773,0.0,0.0,1.2136,0.9432,0.5361,-0.171,-0.7725,-1.1803,-1.4554,-1.4658,-1.1736,-0.7219,-0.5367,-0.6058,-0.1846,-0.3557,-1.1185,-1.004,-1.3185,-2.005,-2.0687,-2.47,-3.0845,-3.214,-3.4394,-3.6986,-3.7297,-3.7668,-3.8066,-3.777,-3.797,-3.8345,-3.8042,-3.7928,-3.7803,-3.6705,-3.6338,-3.6248,-3.5598,-3.5923,-3.6177,-3.5864,-3.6571,-3.7191,-3.6375,-3.6783,-3.7327,-3.7099,-3.7662,-3.8288,-3.8288,-3.7643,-3.7035,-3.7035,-3.5972,-3.5004,-3.5004,-3.5004,-3.4758,-3.3941,-3.4226,-3.4877,-3.6,-3.8129,-4.125,-4.6074,-4.9985,-5.3677,-5.727,-5.9846,-6.0912,-5.9944,-5.6918,-5.4611,-5.36,-5.1112,-5.0832,-5.3538,-5.5753,-5.7551,-5.8959,-5.954,-5.7107,0.0,0.0,0.0,0.0,0.0,0.0,0.0,0.0,0.0,0.0,0.0,0.0,0.0,0.0,0.0,0.0,0.0,0.0,0.0,0.0,0.0,0.0,0.0,0.0,0.0,0.0,0.0,2.73,2.812,0.0,0.0,0.0,0.0,1.7186,0.7939,0.0911,-0.2974,-0.696,-0.7052,-0.2597,0.1845,0.3955,0.3665,0.6212,0.3893,-0.3482,-0.5786,-1.06,-1.7875,-2.0454,-2.5162,-3.1,-3.1138,-3.3369,-3.6368,-3.3912,-3.4268,-3.6604,-3.6018,-3.7377,-3.9467,-3.882,-3.837,-3.8276,-3.7719,-3.7472,-3.7434,-3.733,-3.7453,-3.7111,-3.5307,-3.5731,0.0,0.0,-3.5344,-3.6929,-3.6264,-3.687,-3.7518,-3.7415,-3.6808,-3.6082,-3.6082,-3.5574,-3.5004,0.0,-3.4947,-3.4663,-3.3751,0.0,-3.4232,-3.5717,-3.7471,-4.0604,-4.6215,-5.1759,-5.6295,-5.9274,-6.3967,-6.6563,-6.5972,-6.4127,-6.272,-6.2158,-5.9419,-5.8353,-5.9632,-6.0649,-6.0247,-5.8295,-5.7436,0.0,0.0,0.0,0.0,0.0,0.0,0.0,0.0,0.0,0.0,0.0,0.0,0.0,0.0,0.0,0.0,0.0,0.0,0.0,0.0,0.0,0.0,0.0,0.0,0.0,0.0,3.9552,3.8012,3.6791,3.7599,3.8423,0.0,0.0,0.0,0.0,0.0,0.0,1.3039,0.919,0.8715,1.2014,1.4362,1.51,1.4333,1.667,1.3062,0.346,0.2043,-0.3545,-1.2811,-1.7052,-2.1952,-2.6982,-2.997,-3.1848,-3.2651,-3.1997,-3.2122,-3.2616,-3.3472,-3.3321,-3.28,-3.5035,-3.508,-3.4209,-3.669,-3.7073,-3.6378,-3.5686,0.0,-3.5945,-3.2898,0.0,0.0,0.0,0.0,-3.5351,-3.5901,-3.663,-3.7067,-3.6665,-3.639,-3.6082,-3.6082,-3.5574,-3.4833,0.0,-3.4093,-3.3176,-2.9956,0.0,0.0,0.0,0.0,-4.0839,-4.9158,-5.3206,-5.7363,-6.3205,-6.6418,-6.8268,-6.8469,-6.661,-6.5627,-6.6271,-6.3222,-6.2502,-6.4801,-6.3919,-6.223,-5.9762,0.0,0.0,0.0,0.0,0.0,0.0,0.0,0.0,0.0,0.0,0.0,0.0,0.0,0.0,0.0,0.0,0.0,0.0,0.0,0.0,0.0,0.0,0.0,0.0,0.0,0.0,0.0,4.5736,4.4576,4.3508,4.441,4.5467,0.0,0.0,0.0,0.0,0.0,0.0,0.0,0.0,0.0,2.523,2.4205,2.3707,2.3541,2.4588,2.0523,1.1626,0.9421,0.2563,-0.8086,-1.4318,-2.0132,-2.5658,-2.9264,-2.9641,-2.8155,-2.8392,-2.8941,-2.977,0.0,0.0,0.0,0.0,0.0,-3.2084,-3.4093,-3.4979,0.0,0.0,0.0,0.0,0.0,0.0,0.0,0.0,0.0,0.0,0.0,0.0,0.0,-3.5976,-3.5688,-3.5688,-3.5688,-3.4193,-3.2432,0.0,-3.0407,-2.9011,-2.6229,0.0,0.0,0.0,0.0,0.0,-5.0223,-5.4695,-5.9272,-6.524,-6.8544,-7.0798,-7.1916,-7.0689,-7.005,-7.0539,-6.8127,-6.6445,-6.5869,-6.4782,-6.177,0.0,0.0,0.0,0.0,0.0,0.0,0.0,0.0,0.0,0.0,0.0,0.0,0.0,0.0,0.0,0.0,0.0,0.0,0.0,0.0,0.0,0.0,0.0,0.0,0.0,0.0,0.0,0.0,0.0,4.8606,4.7557,0.0,0.0,0.0,0.0,0.0,0.0,0.0,0.0,0.0,0.0,0.0,0.0,0.0,0.0,3.1751,3.1255,2.7403,2.0462,1.7029,0.9176,-0.2492,-1.0147,-1.7305,-2.3927,-2.5516,0.0,-2.1373,-2.2639,0.0,0.0,0.0,0.0,0.0,0.0,0.0,0.0,0.0,0.0,0.0,0.0,0.0,0.0,0.0,0.0,0.0,0.0,0.0,0.0,0.0,0.0,-3.7039,-3.5296,-3.4889,-3.4607,0.0,-3.0649,-2.7868,-2.5905,0.0,0.0,0.0,0.0,0.0,0.0,0.0,0.0,-4.9985,-5.5706,-6.0769,-6.5913,-6.9864,-7.2871,-7.496,-7.4673,-7.4428,-7.4281,-7.227,-6.9202,-6.5039,-6.4375,0.0,0.0,0.0,0.0,0.0,0.0,0.0,0.0,0.0,0.0,0.0,0.0,0.0,0.0,0.0,0.0,0.0,0.0,0.0,0.0,0.0,0.0,0.0,0.0,0.0,0.0,0.0,0.0,0.0,0.0,0.0,0.0,0.0,0.0,0.0,0.0,0.0,0.0,0.0,0.0,0.0,0.0,0.0,0.0,0.0,0.0,0.0,0.0,0.0,0.0,0.0,1.943,0.8858,0.1357,-0.6539,-1.4135,-0.8515,-0.663,-0.7512,0.0,0.0,0.0,0.0,0.0,0.0,0.0,0.0,0.0,0.0,0.0,0.0,0.0,0.0,0.0,0.0,0.0,0.0,0.0,0.0,0.0,0.0,0.0,0.0,0.0,-3.4329,-3.2157,0.0,0.0,0.0,0.0,0.0,0.0,0.0,0.0,0.0,0.0,0.0,0.0,-4.8779,-5.357,-5.8402,-6.4874,-6.8499,-7.1304,-7.3289,-7.4052,-7.4754,-7.5442,-7.0597,-6.7408,0.0,0.0,0.0,0.0,0.0,0.0,0.0,0.0,0.0,0.0,0.0,0.0,0.0,0.0,0.0,0.0,0.0,0.0,0.0,0.0,0.0,0.0,0.0,0.0,0.0,0.0,0.0,0.0,0.0,0.0,0.0,0.0,0.0,0.0,0.0,0.0,0.0,0.0,0.0,0.0,0.0,0.0,0.0,0.0,0.0,0.0,0.0,0.0,0.0,0.0,0.0,0.0,0.0,0.0,0.0,0.0,0.0,0.0,0.0,0.871,0.0,0.0,0.0,0.0,0.0,0.0,0.0,0.0,0.0,0.0,0.0,0.0,0.0,0.0,0.0,0.0,0.0,0.0,0.0,0.0,0.0,0.0,0.0,0.0,0.0,0.0,0.0,0.0,0.0,0.0,0.0,0.0,0.0,0.0,0.0,0.0,0.0,0.0,0.0,0.0,-4.851,-5.4922,-6.0399,-6.5499,-6.9216,-7.1987,-7.3756,-7.4744,-7.4273,-7.2009,-6.9247,0.0,0.0,0.0,0.0,0.0,0.0,0.0,0.0,0.0,0.0,0.0,0.0,0.0,0.0,0.0,0.0,0.0,0.0,0.0,0.0,0.0,0.0,0.0,0.0,0.0,0.0,0.0,0.0,0.0,0.0,0.0,0.0,0.0,0.0,0.0,0.0,0.0,0.0,0.0,0.0,0.0,0.0,0.0,0.0,0.0,0.0,0.0,0.0,0.0,0.0,0.0,0.0,0.0,0.0,0.0,0.0,0.0,0.0,0.0,2.3268,0.0,0.0,0.0,0.0,0.0,0.0,0.0,0.0,0.0,0.0,0.0,0.0,0.0,0.0,0.0,0.0,0.0,0.0,0.0,0.0,0.0,0.0,0.0,0.0,0.0,0.0,0.0,0.0,0.0,0.0,0.0,0.0,0.0,0.0,0.0,0.0,0.0,0.0,0.0,0.0,0.0,-4.8058,-5.6008,-6.2075,-6.5977,-6.945,-7.2304,-7.3996,-7.5091,-7.3663,-6.8857,0.0,0.0,0.0,0.0,0.0,0.0,0.0,0.0,0.0,0.0,0.0,0.0,0.0,0.0,0.0,0.0,0.0,0.0,0.0,0.0,0.0,0.0,0.0,0.0,0.0,0.0,0.0,0.0,0.0,0.0,0.0,0.0,0.0,0.0,0.0,0.0,0.0,0.0,0.0,0.0,0.0,0.0,0.0,0.0,0.0,0.0,0.0,0.0,0.0,0.0,0.0,0.0,0.0,0.0,0.0,0.0,0.0,0.0,0.0,0.0,0.0,0.0,0.0,0.0,0.0,0.0,0.0,0.0,0.0,0.0,0.0,0.0,0.0,0.0,0.0,0.0,0.0,0.0,0.0,0.0,0.0,0.0,0.0,0.0,0.0,0.0,0.0,0.0,0.0,0.0,0.0,0.0,0.0,0.0,0.0,0.0,0.0,0.0,0.0,0.0,0.0,0.0,-4.6534,-5.374,-5.9655,-6.4905,-6.7629,-7.0046,-7.2335,-7.3904,-7.3334,-6.9846,0.0,0.0,0.0,0.0,0.0,0.0,0.0,0.0,0.0,0.0,0.0,0.0,0.0,0.0,0.0,0.0,0.0,0.0,0.0,0.0,0.0,0.0,0.0,0.0,0.0,0.0,0.0,0.0,0.0,0.0,0.0,0.0,0.0,0.0,0.0,0.0,0.0,0.0,0.0,0.0,0.0,0.0,0.0,0.0,0.0,0.0,0.0,0.0,0.0,0.0,0.0,0.0,0.0,0.0,0.0,0.0,0.0,0.0,0.0,0.0,0.0,0.0,0.0,0.0,0.0,0.0,0.0,0.0,0.0,0.0,0.0,0.0,0.0,0.0,0.0,0.0,0.0,0.0,0.0,0.0,0.0,0.0,0.0,0.0,0.0,0.0,0.0,0.0,0.0,0.0,0.0,0.0,0.0,0.0,0.0,0.0,0.0,0.0,0.0,0.0,0.0,0.0,-4.642,-5.4083,-6.0311,-6.4768,-6.7388,-6.975,-7.211,-7.3353,-7.1991,-6.706,0.0,0.0,0.0,0.0,0.0,0.0,0.0,0.0,0.0,0.0,0.0,0.0,0.0,0.0,0.0,0.0,0.0,0.0,0.0,0.0,0.0,0.0,0.0,0.0,0.0,0.0,0.0,0.0,0.0,0.0,0.0,0.0,0.0,0.0,0.0,0.0,0.0,0.0,0.0,0.0,0.0,0.0,0.0,0.0,0.0,0.0,0.0,0.0,0.0,0.0,0.0,0.0,0.0,0.0,0.0,0.0,0.0,0.0,0.0,0.0,0.0,0.0,0.0,0.0,0.0,0.0,0.0,0.0,0.0,0.0,0.0,0.0,0.0,0.0,0.0,0.0,0.0,0.0,0.0,0.0,0.0,0.0,0.0,0.0,0.0,0.0,0.0,0.0,0.0,0.0,0.0,0.0,0.0,0.0,0.0,0.0,0.0,0.0,0.0,0.0,0.0,0.0,0.0,-5.4802,-6.1823,-6.493,-6.7484,-6.985,-7.211,-7.311,-7.1471,-6.6541,0.0,0.0,0.0,0.0,0.0,0.0,0.0,0.0,0.0,0.0,0.0,0.0,0.0,0.0,0.0,0.0,0.0,0.0,0.0,0.0,0.0,0.0,0.0,0.0,0.0,0.0,0.0,0.0,0.0,0.0,0.0,0.0,0.0,0.0,0.0,0.0,0.0,0.0,0.0,0.0,0.0,0.0,0.0,0.0,0.0,0.0,0.0,0.0,0.0,0.0,0.0,0.0,0.0,0.0,0.0,0.0,0.0,0.0,0.0,0.0,0.0,0.0,0.0,0.0,0.0,0.0,0.0,0.0,0.0,0.0,0.0,0.0,0.0,0.0,0.0,0.0,0.0,0.0,0.0,0.0,0.0,0.0,0.0,0.0,0.0,0.0,0.0,0.0,0.0,0.0,0.0,0.0,0.0,0.0,0.0,0.0,0.0,0.0,0.0,0.0,0.0,0.0,-4.2319,-5.5118,-6.3851,-6.5154,-6.7645,-7.005,-7.211,-7.3007,-7.2383,0.0,0.0,0.0,0.0,0.0,0.0,0.0,0.0,0.0,0.0,0.0,0.0,0.0,0.0,0.0,0.0,0.0,0.0,0.0,0.0,0.0,0.0,0.0,0.0,0.0,0.0,0.0,0.0,0.0,0.0,0.0,0.0,0.0,0.0,0.0,0.0,0.0,0.0,0.0,0.0,0.0,0.0,0.0,0.0,0.0,0.0,0.0,0.0,0.0,0.0,0.0,0.0,0.0,0.0,0.0,0.0,0.0,0.0,0.0,0.0,0.0,0.0,0.0,0.0,0.0,0.0,0.0,0.0,0.0,0.0,0.0,0.0,0.0,0.0,0.0,0.0,0.0,0.0,0.0,0.0,0.0,0.0,0.0,0.0,0.0,0.0,0.0,0.0,0.0,0.0,0.0,0.0,0.0,0.0,0.0,0.0,0.0,0.0,0.0,0.0,0.0,0.0,0.0,-4.2045,-5.2645,-6.0774,0.0,-6.7484,-6.985,-7.211,-7.3529,-7.2825,-6.9349,0.0,0.0,0.0,0.0,0.0,0.0,0.0,0.0,0.0,0.0,0.0,0.0,0.0,0.0,0.0,0.0,0.0,0.0,0.0,0.0,0.0,0.0,0.0,0.0,0.0,0.0,0.0,0.0,0.0,0.0,0.0,0.0,0.0,0.0,0.0,0.0,0.0,0.0,0.0,0.0,0.0,0.0,0.0,0.0,0.0,0.0,0.0,0.0,0.0,0.0,0.0,0.0,0.0,0.0,0.0,0.0,0.0,0.0,0.0,0.0,0.0,0.0,0.0,0.0,0.0,0.0,0.0,0.0,0.0,0.0,0.0,0.0,0.0,0.0,0.0,0.0,0.0,0.0,0.0,0.0,0.0,0.0,0.0,0.0,0.0,0.0,0.0,0.0,0.0,0.0,0.0,0.0,0.0,0.0,0.0,0.0,0.0,0.0,0.0,0.0,0.0,0.0,0.0,-5.1561,-5.9944,0.0,-6.7388,-6.975,-7.211,-7.4059,-7.3649,-7.0291,0.0,0.0,0.0,0.0,0.0,0.0,0.0,0.0,0.0,0.0,0.0,0.0,0.0,0.0,0.0,0.0,0.0,0.0,0.0,0.0,0.0,0.0,0.0,0.0,0.0,0.0,0.0,0.0,0.0,0.0,0.0,0.0,0.0,0.0,0.0,0.0,0.0,0.0,0.0,0.0,0.0,0.0,0.0,0.0,0.0,0.0,0.0,0.0,0.0,0.0,0.0,0.0,0.0,0.0,0.0,0.0,0.0,0.0,0.0,0.0,0.0,0.0,0.0,0.0,0.0,0.0,0.0,0.0,0.0,0.0,0.0,0.0,0.0,0.0,0.0,0.0,0.0,0.0,0.0,0.0,0.0,0.0,0.0,0.0,0.0,0.0,0.0,0.0,0.0,0.0,0.0,0.0,0.0,0.0,0.0,0.0,0.0,0.0,0.0,0.0,0.0,0.0,0.0,-5.1414,-6.0672,-6.4923,-6.7447,-6.9882,-7.2224,-7.4507,-7.4799,-7.2292,-6.647,0.0,0.0,0.0,0.0,0.0,0.0,0.0,0.0,0.0,0.0,0.0,0.0,0.0,0.0,0.0,0.0,0.0,0.0,0.0,0.0,0.0,0.0,0.0,0.0,0.0,0.0,0.0,0.0,0.0,0.0,0.0,0.0,0.0,0.0,0.0,0.0,0.0,0.0,0.0,0.0,0.0,0.0,0.0,0.0,0.0,0.0,0.0,0.0,0.0,0.0,0.0,0.0,0.0,0.0,0.0,0.0,0.0,0.0,0.0,0.0,0.0,0.0,0.0,0.0,0.0,0.0,0.0,0.0,0.0,0.0,0.0,0.0,0.0,0.0,0.0,0.0,0.0,0.0,0.0,0.0,0.0,0.0,0.0,0.0,0.0,0.0,0.0,0.0,0.0,0.0,0.0,0.0,0.0,0.0,0.0,0.0,0.0,0.0,0.0,0.0,0.0,0.0,-4.9217,-5.8496,-6.4699,-6.8006,-7.0687,-7.2731,-7.523,-7.5355,-7.231,-6.5204,0.0,0.0,0.0,0.0,0.0,0.0,0.0,0.0,0.0,0.0,0.0,0.0,0.0,0.0,0.0,0.0,0.0,0.0,0.0,0.0,0.0,0.0,0.0,0.0,0.0,0.0,0.0,0.0,0.0,0.0,0.0,0.0,0.0,0.0,0.0,0.0,0.0,0.0,0.0,0.0,0.0,0.0,0.0,0.0,0.0,0.0,0.0,0.0,0.0,0.0,0.0,0.0,0.0,0.0,0.0,0.0,0.0,0.0,0.0,0.0,0.0,0.0,0.0,0.0,0.0,0.0,0.0,0.0,0.0,0.0,0.0,0.0,0.0,0.0,0.0,0.0,0.0,0.0,0.0,0.0,0.0,0.0,0.0,0.0,0.0,0.0,0.0,0.0,0.0,0.0,0.0,0.0,0.0,0.0,0.0,0.0,0.0,0.0,0.0,0.0,0.0,0.0,-3.8087,-5.034,-6.3072,-6.7373,-7.0238,-7.2558,-7.4618,-7.4649,-7.1931,-6.2468,0.0,0.0,0.0,0.0,0.0,0.0,0.0,0.0,0.0,0.0,0.0,0.0,0.0,0.0,0.0,0.0,0.0,0.0,0.0,0.0,0.0,0.0,0.0,0.0,0.0,0.0,0.0,0.0,0.0,0.0,0.0,0.0,0.0,0.0,0.0,0.0,0.0,0.0,0.0,0.0,0.0,0.0,0.0,0.0,0.0,0.0,0.0,0.0,0.0,0.0,0.0,0.0,0.0,0.0,0.0,0.0,0.0,0.0,0.0,0.0,0.0,0.0,0.0,0.0,0.0,0.0,0.0,0.0,0.0,0.0,0.0,0.0,0.0,0.0,0.0,0.0,0.0,0.0,0.0,0.0,0.0,0.0,0.0,0.0,0.0,0.0,0.0,0.0,0.0,0.0,0.0,0.0,0.0,0.0,0.0,0.0,0.0,0.0,0.0,0.0,0.0,0.0,0.0,-3.9917,-5.8592,-6.499,-6.9151,-7.2193,-7.3458,-7.3317,-7.1406,0.0,0.0,0.0,0.0,0.0,0.0,0.0,0.0,0.0,0.0,0.0,0.0,0.0,0.0,0.0,0.0,0.0,0.0,0.0,0.0,0.0,0.0,0.0,0.0,0.0,0.0,0.0,0.0,0.0,0.0,0.0,0.0,0.0,0.0,0.0,0.0,0.0,0.0,0.0,0.0,0.0,0.0,0.0,0.0,0.0,0.0,0.0,0.0,0.0,0.0,0.0,0.0,0.0,0.0,0.0,0.0,0.0,0.0,0.0,0.0,0.0,0.0,0.0,0.0,0.0,0.0,0.0,0.0,0.0,0.0,0.0,0.0,0.0,0.0,0.0,0.0,0.0,0.0,0.0,0.0,0.0,0.0,0.0,0.0,0.0,0.0,0.0,0.0,0.0,0.0,0.0,0.0,0.0,0.0,0.0,0.0,0.0,0.0,0.0,0.0,0.0,0.0,0.0,0.0,0.0,-4.6341,-5.9216,-6.858,-7.2662,-7.277,-7.2207,-7.108,0.0,0.0,0.0,0.0,0.0,0.0,0.0,0.0,0.0,0.0,0.0,0.0,0.0,0.0]}],[{"header":{"parameterUnit":"kt","parameterCategory":2,"dx":1,"dy":1,"la1":29.285339999999998,"la2":30.599998999999997,"lo1":-89.70041500000002,"lo2":-87.6738589999976,"nx":112,"ny":82,"refTime":"2022-10-03T12:00:00:Z","depth":0,"parameterNumber":2,"parameterNumberName":"V-component_of_WINDS"},"data":[7.8234,7.9165,0.0,7.201,6.9409,0.0,6.0377,0.0,0.0,0.0,0.0,0.0,0.0,0.0,0.0,0.0,0.0,0.0,0.0,0.0,0.0,0.0,0.0,0.0,0.0,0.0,0.0,0.0,0.0,0.0,0.0,0.0,6.3216,6.4396,6.3785,6.3228,6.3181,6.1578,5.9762,5.7917,5.7917,5.8087,5.841,5.8942,5.9188,5.9207,5.9796,6.0043,6.0043,6.0043,6.0043,6.0043,6.0043,6.0043,6.0043,6.0043,6.0043,6.0043,6.0043,6.0043,6.0043,6.0043,6.0043,6.0043,6.0043,6.0043,6.0043,6.0043,6.0043,6.0043,6.0043,6.0043,6.0043,6.0043,6.0043,6.0043,6.0043,6.0043,6.0043,6.0043,6.4758,6.8595,6.8595,7.3309,7.7165,7.7165,7.7165,7.6921,7.6213,7.614,7.614,7.614,7.614,7.6408,7.7092,7.7165,7.7915,7.937,7.9565,7.9565,7.9565,8.0318,8.2497,8.5665,8.7975,9.1432,9.6295,9.676,9.74,9.8214,9.8302,9.8767,0.0,0.0,7.5995,6.8317,0.0,0.0,0.0,0.0,0.0,0.0,0.0,0.0,0.0,0.0,0.0,0.0,0.0,0.0,0.0,0.0,0.0,0.0,0.0,0.0,0.0,0.0,0.0,0.0,0.0,0.0,0.0,6.6009,6.6009,6.684,6.6009,6.5342,6.5014,6.2427,6.0279,5.8507,5.7474,5.7214,5.7499,5.8049,5.8296,5.8315,5.8923,5.934,5.9587,5.9587,5.9777,6.0043,6.0043,6.0043,6.0043,6.0043,6.0043,6.0043,6.0043,6.0043,6.0043,6.0043,5.9834,5.9587,5.9587,5.9397,5.9169,5.9169,5.9169,5.9169,5.9169,5.9169,5.9169,5.9169,5.9169,5.9169,5.9169,5.9397,5.9793,6.0875,6.5187,6.9022,6.9871,7.3341,7.6042,7.6042,7.6042,7.5798,7.5091,7.4993,7.4993,7.4993,7.4993,7.5286,7.5994,7.6042,7.7321,8.0091,8.0641,8.123,8.2158,8.2888,8.4729,8.759,8.9936,9.3092,9.7662,9.8098,9.8738,9.9552,9.868,9.8767,0.0,0.0,0.0,6.3227,0.0,0.0,0.0,0.0,5.8428,0.0,0.0,0.0,0.0,0.0,0.0,0.0,0.0,0.0,0.0,0.0,0.0,0.0,0.0,0.0,0.0,0.0,0.0,0.0,0.0,0.0,6.6821,6.9331,6.9541,6.703,6.9517,6.9517,6.684,6.4232,6.1937,6.0258,5.74,5.6607,5.7404,5.7423,5.7442,5.7442,5.7461,5.7936,5.8657,5.8657,5.9169,5.9967,5.9986,5.9986,5.9967,5.9967,5.9967,5.9967,5.9967,5.9967,5.9967,5.9967,5.9378,5.8657,5.8657,5.8106,5.748,5.748,5.748,5.748,5.748,5.748,5.748,5.748,5.748,5.748,5.748,5.8106,5.9723,6.2479,6.596,6.9571,7.2319,7.3391,7.387,7.387,7.387,7.387,7.3846,7.3822,7.3822,7.3822,7.3822,7.3846,7.387,7.387,7.5413,7.9076,8.0344,8.2054,8.4457,8.6928,8.8816,9.0227,9.3815,9.644,9.772,9.8971,9.9552,9.9552,9.9552,9.9552,6.8346,0.0,0.0,0.0,0.0,0.0,0.0,0.0,0.0,0.0,0.0,0.0,0.0,0.0,0.0,0.0,0.0,0.0,0.0,0.0,0.0,0.0,0.0,0.0,0.0,0.0,0.0,0.0,0.0,0.0,6.9743,7.0305,7.049,6.9702,7.0465,6.9517,6.684,6.4232,6.1617,5.93,5.6526,5.5449,5.5696,5.6284,5.655,5.6588,5.7214,5.7594,5.7803,5.7803,5.7955,5.8239,5.8828,5.8695,5.8182,5.8182,5.8182,5.8182,5.8182,5.8182,5.8182,5.8182,5.8011,5.7803,5.7803,5.7651,5.748,5.748,5.748,5.748,5.748,5.748,5.748,5.748,5.748,5.748,5.748,5.9091,6.0927,6.176,6.5916,6.9622,7.0452,7.2414,7.387,7.387,7.387,7.3602,7.2821,7.2723,7.2723,7.2723,7.2723,7.3041,7.3822,7.5321,7.6737,7.7788,8.1441,8.3729,8.4452,8.6927,8.8816,9.0227,9.2909,9.5977,9.9029,9.9378,9.9552,9.9552,9.9552,9.9552,0.0,0.0,0.0,0.0,0.0,0.0,5.712,0.0,5.5142,0.0,0.0,0.0,0.0,0.0,0.0,0.0,0.0,0.0,0.0,0.0,0.0,0.0,0.0,0.0,0.0,0.0,0.0,0.0,0.0,7.1373,7.2089,7.1199,7.0674,7.0674,7.0674,7.0097,6.8561,6.5817,6.3671,6.23,5.9537,5.7757,5.6589,5.7077,5.6706,5.5734,5.6227,5.6626,5.6948,5.6948,5.7157,5.748,5.7613,5.7366,5.6986,5.7347,5.748,5.748,5.748,5.748,5.748,5.748,5.7233,5.6948,5.6948,5.6702,5.6436,5.6436,5.6436,5.6436,5.6436,5.6436,5.6436,5.6436,5.6436,5.6436,5.6436,5.8752,6.1242,6.2489,6.6475,6.9742,7.0095,7.1533,7.2528,7.2528,7.2528,7.2659,7.3079,7.298,7.3345,7.4408,7.4563,7.4843,7.5297,7.6617,7.7696,7.814,8.163,8.3974,8.4308,8.7833,9.0482,9.1736,9.4214,9.6704,9.9552,9.9552,9.9552,9.9552,9.9552,9.9552,0.0,0.0,0.0,0.0,6.1918,0.0,0.0,0.0,0.0,0.0,0.0,0.0,0.0,0.0,0.0,0.0,0.0,0.0,0.0,0.0,0.0,0.0,0.0,0.0,0.0,0.0,0.0,8.109,7.5781,7.3187,7.4861,7.2769,7.1568,7.1568,7.1102,7.0918,7.104,6.8398,6.7002,6.7002,6.4215,6.1773,5.9315,5.9315,5.796,5.5389,5.5389,5.5601,5.6075,5.6075,5.6512,5.7119,5.636,5.6075,5.617,5.6929,5.7195,5.7195,5.7195,5.7195,5.7195,5.7195,5.6683,5.6075,5.6075,5.5563,5.4993,5.4993,5.4993,5.4993,5.4993,5.4993,5.4993,5.4993,5.4993,5.4993,5.5389,5.819,6.1346,6.4174,6.7472,6.9896,7.0621,7.0674,7.0857,7.1016,7.1199,7.1877,7.4251,7.4427,7.5301,7.7388,7.7557,7.7557,7.7557,7.7726,7.8299,7.9297,8.1605,8.3297,8.4393,8.8591,9.1903,9.3619,9.644,9.8418,9.9552,9.9552,9.9494,9.9349,9.9349,9.9436,0.0,0.0,0.0,0.0,0.0,5.9388,0.0,0.0,0.0,0.0,0.0,0.0,0.0,0.0,0.0,0.0,0.0,0.0,0.0,0.0,0.0,0.0,0.0,0.0,0.0,0.0,8.3787,8.3945,8.2744,8.1446,7.9918,7.747,7.6269,7.6269,7.3455,7.2382,7.326,6.9789,6.8189,6.8189,6.5433,6.3432,6.206,6.206,6.0695,5.8143,5.8143,5.7058,5.524,5.524,5.5335,5.5449,5.5297,5.524,5.5259,5.5411,5.5468,5.5468,5.5468,5.5468,5.5468,5.5468,5.5373,5.524,5.524,5.5126,5.4993,5.4993,5.4993,5.4993,5.4993,5.4993,5.4993,5.4993,5.4993,5.5596,5.7757,6.0242,6.3151,6.5944,6.8634,7.0581,7.0747,7.0674,7.1356,7.3061,7.3392,7.4277,7.6509,7.6851,7.7021,7.7557,7.7557,7.7557,7.7557,7.9203,8.03,8.0495,8.2733,8.4038,8.4269,8.5104,8.7803,9.2252,9.6848,9.932,9.9552,9.9552,9.9029,9.8011,9.8011,9.8563,0.0,0.0,0.0,5.8748,0.0,0.0,0.0,0.0,0.0,0.0,0.0,0.0,0.0,0.0,0.0,0.0,0.0,0.0,0.0,0.0,0.0,0.0,0.0,0.0,0.0,0.0,8.6856,8.6454,8.5291,8.4222,8.3141,7.9568,7.7593,7.7593,7.4585,7.3334,7.387,7.2111,7.1246,7.1053,6.9865,6.7918,6.553,6.553,6.3894,6.0894,6.0894,6.0097,5.8731,5.7553,5.7757,5.8731,5.7553,5.696,5.6774,5.5596,5.4993,5.4993,5.4993,5.4993,5.4993,5.4993,5.4993,5.4993,5.4993,5.4993,5.4993,5.4993,5.4993,5.4993,5.4993,5.4993,5.4993,5.4993,5.5971,5.7369,5.8528,6.2082,6.5242,6.6627,6.8959,7.0674,7.0674,7.0674,7.1199,7.2214,7.3417,7.4952,7.7218,7.8539,7.9698,8.0733,8.0895,8.0895,8.0895,8.1886,8.2549,8.2549,8.3548,8.4225,8.4225,8.4225,8.6348,9.0915,9.5393,9.7662,9.7662,9.7662,9.7787,9.8099,9.8099,9.9083,0.0,0.0,0.0,0.0,0.0,0.0,0.0,6.1276,0.0,0.0,0.0,0.0,0.0,0.0,0.0,0.0,0.0,0.0,0.0,0.0,0.0,0.0,0.0,0.0,0.0,0.0,8.853,8.8791,8.7226,8.6193,8.6193,8.2047,7.9342,7.9001,7.6288,7.4863,7.4505,7.431,7.4212,7.4212,7.4212,7.2617,6.9568,6.9568,6.7414,6.3914,6.3914,6.3412,6.265,6.0517,6.1291,6.3259,6.0695,5.9717,5.9315,5.7369,5.6569,5.6569,5.6569,5.6569,5.6363,5.599,5.5784,5.5577,5.5201,5.4993,5.4993,5.4993,5.4993,5.4993,5.4993,5.4993,5.5201,5.5577,5.7349,5.9134,6.0317,6.3866,6.703,6.7598,6.9331,7.0674,7.0674,7.0674,7.104,7.1877,7.3595,7.5795,7.8539,8.038,8.2204,8.3916,8.4225,8.4225,8.4225,8.4225,8.4225,8.4225,8.4225,8.4225,8.4225,8.4487,8.6319,8.9984,9.3328,9.5277,9.5771,9.5277,9.6222,9.8298,9.8792,9.9988,0.0,0.0,0.0,0.0,0.0,0.0,6.9528,7.1902,0.0,0.0,0.0,0.0,0.0,0.0,0.0,0.0,0.0,0.0,0.0,0.0,0.0,0.0,0.0,0.0,0.0,0.0,0.0,9.1438,9.1329,9.116,9.116,8.8564,8.6005,8.3793,8.0428,7.8011,7.6774,7.5847,7.5383,7.5383,7.5383,7.4579,7.3291,7.3291,7.127,6.7894,6.7894,6.5792,6.2846,6.2454,6.4038,6.6245,6.3454,6.2279,6.2257,6.206,6.1863,6.1863,6.1863,6.1863,6.1489,5.9336,5.8549,5.794,5.5784,5.4993,5.4993,5.4993,5.4993,5.4993,5.4993,5.4993,5.5596,5.794,5.8731,6.0117,6.5049,6.6436,6.7598,6.9912,7.049,7.0674,7.0674,7.0674,7.2058,7.6192,7.7048,7.8705,8.2893,8.3577,8.3887,8.4071,8.4225,8.4225,8.4225,8.4225,8.4225,8.4225,8.4225,8.4225,8.4225,8.5331,8.7221,8.9984,9.1583,9.3503,9.5771,9.3474,9.4013,9.7107,9.8994,10.0516,0.0,0.0,0.0,0.0,0.0,0.0,0.0,7.3156,0.0,0.0,0.0,0.0,0.0,0.0,0.0,0.0,0.0,0.0,0.0,0.0,0.0,0.0,0.0,0.0,0.0,0.0,0.0,0.0,9.1962,9.1962,9.1962,8.9538,8.7697,8.6776,8.244,7.9834,7.937,7.7447,7.6482,7.6482,7.6482,7.592,7.4847,7.4847,7.3632,7.1582,7.1582,7.0362,6.8462,6.907,6.9577,6.984,6.7047,6.5716,6.5027,6.3454,6.2846,6.2846,6.2846,6.2846,6.265,6.1489,6.1093,6.0695,5.8143,5.7369,5.696,5.5389,5.4993,5.4993,5.4993,5.4993,5.5182,5.6383,5.8932,6.1687,6.406,6.6983,6.9517,7.049,7.0674,7.0674,7.0674,7.1877,7.3239,7.5301,7.7841,8.0189,8.2045,8.3392,8.4225,8.4225,8.4225,8.4225,8.4225,8.4225,8.4225,8.4225,8.4923,8.5331,8.5331,8.6581,8.8123,9.0013,9.0566,9.1729,9.3532,9.3678,9.492,9.7581,9.9552,10.1364,5.4391,0.0,0.0,0.0,0.0,0.0,0.0,0.0,0.0,0.0,0.0,0.0,0.0,0.0,0.0,0.0,0.0,0.0,0.0,0.0,0.0,0.0,0.0,0.0,0.0,0.0,0.0,0.0,0.0,9.1962,9.1962,9.0286,8.8987,8.8256,8.4748,8.2537,8.1968,7.9395,7.8288,7.8288,7.7541,7.675,7.5994,7.5994,7.5383,7.4358,7.4358,7.3895,7.3236,7.4017,7.37,7.251,7.0697,6.9291,6.8208,6.6205,6.5229,6.5004,6.5004,6.5004,6.4789,6.4232,6.3843,6.3454,6.0695,5.9897,5.9516,5.7757,5.7164,5.7164,5.7164,5.7164,5.7369,5.8163,6.1114,6.4038,6.4812,6.8115,7.0674,7.0674,7.0674,7.104,7.1539,7.3061,7.4427,7.5768,7.8817,8.1028,8.1698,8.3207,8.4225,8.4225,8.4225,8.4225,8.4225,8.4574,8.4749,8.4749,8.597,8.6668,8.6668,8.7919,8.9053,9.0013,9.0391,9.1334,9.268,9.478,9.6721,9.8853,10.0188,10.1994,0.0,0.0,0.0,6.5458,6.6149,6.9264,8.4542,0.0,0.0,0.0,0.0,0.0,0.0,0.0,0.0,0.0,0.0,0.0,0.0,0.0,0.0,0.0,0.0,0.0,0.0,0.0,0.0,0.0,0.0,9.1962,9.1962,9.1932,9.0658,8.8256,8.808,8.6956,8.4564,8.1968,8.0679,8.0679,7.8263,7.7141,7.7116,7.7116,7.653,7.5505,7.5505,7.5481,7.5457,7.5505,7.4847,7.3822,7.3822,7.2972,7.2235,7.2023,7.1366,7.049,7.049,7.049,7.0097,6.7598,6.684,6.6245,6.3454,6.265,6.265,6.265,6.2454,6.2454,6.2454,6.2454,6.3259,6.584,6.6627,6.7409,6.9912,7.0674,7.0674,7.0674,7.0674,7.1356,7.357,7.4075,7.5595,7.9998,8.0839,8.1698,8.3732,8.4071,8.4225,8.4225,8.4225,8.4225,8.4225,8.5389,8.6087,8.6087,8.7279,8.8006,8.8006,8.9257,9.0013,9.0042,9.1264,9.2787,9.475,9.6905,9.8853,10.0786,10.0927,10.1994,6.0425,6.2592,6.5125,7.0282,7.5393,8.0763,8.6925,0.0,0.0,0.0,0.0,0.0,0.0,0.0,0.0,0.0,0.0,0.0,0.0,0.0,0.0,0.0,0.0,0.0,0.0,0.0,0.0,0.0,0.0,0.0,9.0653,9.0682,9.0697,9.0629,9.0658,8.9538,8.6956,8.4564,8.2537,8.0872,7.993,7.8831,7.7165,7.7165,7.697,7.6628,7.6628,7.6628,7.6628,7.6628,7.5969,7.4993,7.4993,7.431,7.326,7.2528,7.2065,7.165,7.0918,7.0674,7.0674,6.9702,6.9517,6.8935,6.6223,6.5457,6.5049,6.3237,6.2846,6.2846,6.2846,6.2846,6.3042,6.3843,6.5626,6.703,6.7998,6.9517,7.0674,7.0674,7.1877,7.3239,7.3898,7.6627,7.9149,8.0677,8.2045,8.3392,8.4071,8.4225,8.4225,8.4225,8.4982,8.5505,8.5505,8.6668,8.7395,8.7395,8.8646,8.9373,8.9373,9.0624,9.1322,9.1322,9.3075,9.551,9.8822,9.9582,10.0959,10.2938,10.2938,10.3371,6.3373,6.6418,6.9653,7.5064,8.1368,8.7042,9.0542,9.5337,0.0,0.0,0.0,0.0,0.0,0.0,0.0,0.0,0.0,0.0,0.0,0.0,0.0,0.0,0.0,0.0,0.0,0.0,0.0,0.0,0.0,0.0,8.9286,8.9344,8.9722,9.0536,9.0536,9.0043,8.8885,8.6941,8.5116,8.345,8.2537,8.1422,7.976,7.8831,7.8461,7.8461,7.7541,7.7165,7.7165,7.7165,7.675,7.614,7.614,7.5457,7.4407,7.3724,7.3187,7.2699,7.1625,7.1259,7.1186,7.0796,7.0674,7.049,6.8772,6.8186,6.7974,6.6177,6.558,6.558,6.558,6.558,6.5671,6.6035,6.7238,6.8186,6.8186,6.9517,7.104,7.1696,7.3061,7.4577,7.6285,7.8983,8.1189,8.1858,8.3236,8.4225,8.4225,8.4225,8.4225,8.4225,8.5389,8.6145,8.6145,8.7744,8.8762,8.8762,9.0013,9.074,9.074,9.1525,9.2239,9.2982,9.4168,9.6874,10.0927,10.1687,10.2635,10.3997,10.3997,10.3997,6.5608,6.8942,7.248,7.9897,8.4206,8.8285,9.5125,0.0,0.0,0.0,0.0,0.0,0.0,0.0,0.0,0.0,0.0,0.0,0.0,0.0,0.0,0.0,0.0,0.0,0.0,0.0,0.0,0.0,0.0,0.0,8.8109,8.7948,8.7977,8.8035,8.8035,8.8646,8.9926,8.8771,8.8236,8.806,8.5655,8.456,8.4192,8.1838,8.0936,8.0859,7.8484,7.7345,7.7369,7.7243,7.7267,7.7267,7.7116,7.653,7.5627,7.5579,7.4895,7.3797,7.2675,7.2284,7.2113,7.1088,7.0771,7.0771,7.0771,7.0771,7.0747,7.0698,7.0674,7.0674,7.0674,7.0674,7.0966,7.2016,7.1454,7.0698,7.0747,7.0625,7.1209,7.3468,7.4049,7.5622,8.0161,8.1,8.1698,8.3887,8.4225,8.4225,8.4225,8.4284,8.4342,8.4342,8.5534,8.6348,8.6348,8.8675,9.0129,9.0129,9.1293,9.1962,9.2101,9.2101,9.2982,9.4909,9.5037,9.7179,10.1067,10.3072,10.3997,10.3997,10.3997,10.3997,7.1889,7.6165,7.9444,8.4643,8.891,9.2402,9.4189,0.0,0.0,0.0,0.0,0.0,0.0,0.0,0.0,0.0,0.0,0.0,0.0,0.0,0.0,0.0,0.0,0.0,0.0,0.0,0.0,0.0,0.0,0.0,8.671,8.661,8.7046,8.8006,8.8035,8.821,8.8559,8.8167,8.7231,8.5286,8.4743,8.3471,8.1548,8.0117,8.094,8.3296,8.0801,7.9734,7.9813,7.8903,7.8522,7.843,7.7595,7.6994,7.6652,7.5847,7.5383,7.4871,7.2943,7.2284,7.2235,7.1967,7.1869,7.1869,7.1869,7.1869,7.1698,7.0893,7.0674,7.0674,7.0674,7.0674,7.0966,7.2016,7.1454,7.0893,7.1698,6.999,6.9187,7.2343,7.4873,7.7531,8.0352,8.2204,8.3548,8.4071,8.4225,8.4225,8.4225,8.5069,8.565,8.565,8.7686,8.9053,8.9053,9.0536,9.1467,9.1467,9.1787,9.2544,9.4007,9.4168,9.5097,9.721,9.8675,10.0645,10.3238,10.3701,10.3997,10.3997,10.3997,10.3997,7.1821,7.7342,8.2409,8.6264,9.0568,9.3899,9.3899,9.6432,9.8751,0.0,0.0,0.0,0.0,0.0,0.0,0.0,0.0,0.0,0.0,0.0,0.0,0.0,0.0,0.0,0.0,0.0,0.0,0.0,0.0,0.0,8.6572,8.5739,8.5621,8.6348,8.6378,0.0,8.7221,8.7221,8.6781,8.5929,8.5929,8.5206,8.3799,8.2047,8.2049,8.3386,8.1454,8.0613,8.0666,7.9943,7.9153,7.8163,7.7517,7.6952,7.6384,7.5774,7.5872,7.6018,7.431,7.3724,7.3626,7.3138,7.265,7.2284,7.2284,7.1943,7.1357,7.0283,6.9966,6.9868,6.9405,6.9282,6.9551,7.0625,7.0063,6.9575,7.0649,6.9112,6.7999,6.9916,7.3345,7.6961,8.0087,8.1721,8.2742,8.3324,8.3382,8.3818,8.4923,8.5709,8.6348,8.693,8.8821,9.0042,9.0042,9.1205,9.1962,9.1962,9.268,9.3712,9.475,9.5667,9.7179,9.9146,10.1238,10.277,10.3997,10.3997,10.3997,10.3997,10.3997,10.3997,6.9795,7.6176,8.2911,8.5836,8.9939,9.3257,9.3404,9.583,9.8109,0.0,0.0,0.0,0.0,0.0,0.0,0.0,0.0,0.0,0.0,0.0,0.0,0.0,0.0,0.0,0.0,0.0,0.0,0.0,0.0,0.0,0.0,8.5658,8.4504,8.4504,8.4379,8.4749,8.5883,8.5883,8.6436,8.7541,8.7541,8.7541,8.7541,8.5252,8.3775,8.2655,8.1638,8.1183,8.1036,8.1023,7.9715,7.8014,7.7803,7.7218,7.6235,7.6235,7.6829,7.7496,7.6408,7.6038,7.5865,7.4519,7.3584,7.2635,7.2447,7.1625,7.0674,6.96,6.9307,6.9087,6.816,6.7916,6.816,6.9087,6.8435,6.7851,6.8477,6.8092,6.7606,6.7606,7.1115,7.5267,7.9318,8.0268,8.0823,8.1928,8.2219,8.3149,8.536,8.5941,8.6639,8.7919,8.9257,9.0129,9.0304,9.1626,9.2406,9.2406,9.4168,9.5353,9.5667,9.7361,9.9323,10.1238,10.3072,10.3997,10.3997,10.3997,10.3997,10.3997,10.3997,10.3997,7.559,7.9536,8.2661,8.4481,8.7513,9.0187,9.0854,9.2938,9.4908,9.5548,0.0,0.0,0.0,0.0,0.0,0.0,0.0,0.0,0.0,0.0,0.0,0.0,0.0,0.0,0.0,0.0,0.0,0.0,0.0,0.0,0.0,0.0,8.6521,8.6521,8.4933,8.4342,8.4574,8.4574,8.4662,8.4894,8.4894,8.4894,8.4894,8.4368,8.4067,8.3894,8.3596,8.3524,8.3451,8.2574,8.1964,8.137,8.0415,8.0032,7.9858,7.9858,7.999,7.999,7.8829,7.8434,7.823,7.592,7.5221,7.4704,7.2797,7.2162,7.1772,7.0698,7.0405,7.0356,7.0185,7.0137,7.0185,7.0356,6.9542,6.8292,6.6723,6.7575,6.8718,6.8718,7.1588,7.4844,7.72,7.914,8.0503,8.0735,8.1666,8.2509,8.2946,8.4836,8.6639,8.7919,8.9257,9.0478,9.1525,9.3297,9.4299,9.4299,9.632,9.8113,9.9726,10.0188,10.141,10.3404,10.3866,10.3997,10.3997,10.3997,10.3997,10.3997,10.3997,10.3997,7.2693,7.6904,8.0596,8.1847,8.5694,8.9331,8.9702,9.1938,9.4231,9.5431,9.4719,0.0,0.0,0.0,0.0,0.0,0.0,0.0,0.0,0.0,0.0,0.0,0.0,0.0,0.0,0.0,0.0,0.0,0.0,0.0,0.0,0.0,0.0,0.0,8.6279,8.5658,8.5658,8.4657,8.4225,8.4225,8.4225,8.4225,8.4225,8.4225,8.4225,8.4225,8.4225,8.4225,8.4129,8.3524,8.2575,8.1599,8.0966,8.038,7.9879,7.9879,8.0254,8.0533,8.0147,7.996,7.9784,7.8546,7.7796,7.7324,7.6102,7.5537,7.4512,7.2353,7.1696,7.124,6.9495,6.9014,6.9014,6.9014,7.0902,7.2112,7.0547,7.1051,7.1678,7.1678,7.3932,7.611,7.7017,7.8446,8.0066,8.1661,8.2427,8.3959,8.6867,8.8369,8.9517,9.0782,9.1535,9.2013,9.2645,9.3571,9.4456,9.5342,9.7286,9.9109,10.0754,10.1082,10.1732,10.278,10.3602,10.3997,10.3997,10.3997,10.3997,10.3997,10.3997,10.3997,6.9611,7.4111,7.8389,8.0192,8.4281,8.8389,9.0081,9.1789,9.3544,9.5155,9.3807,0.0,0.0,0.0,0.0,0.0,0.0,0.0,0.0,0.0,0.0,0.0,0.0,0.0,0.0,0.0,0.0,0.0,0.0,0.0,0.0,0.0,0.0,0.0,0.0,8.6778,8.6778,8.5511,8.4794,0.0,8.4663,8.4504,8.4225,8.4212,8.4399,8.4248,8.4263,8.4225,8.4225,8.4225,8.3207,8.1538,8.1538,8.11,8.021,8.021,8.0811,8.1431,8.1431,8.1431,8.1258,8.0912,8.0117,7.936,7.8846,7.8255,7.7004,7.4377,7.3629,7.2906,7.0389,6.9692,6.9692,6.9692,7.3111,7.6119,7.4875,7.4982,7.5248,7.4976,7.6433,7.7817,7.8052,7.8871,8.0312,8.2782,8.3699,8.5835,9.0285,9.1107,9.179,9.2951,9.3106,9.3199,9.3478,9.394,9.4693,9.5993,9.7783,9.9423,10.055,10.0951,10.1202,10.1202,10.2419,10.3043,10.3043,10.3043,10.3043,10.3043,10.3043,10.3043,7.2385,7.5032,7.7324,8.1788,8.3424,8.58,9.2907,9.245,9.0983,9.2694,0.0,8.8833,0.0,0.0,0.0,0.0,0.0,0.0,0.0,0.0,0.0,0.0,0.0,0.0,0.0,0.0,0.0,0.0,0.0,0.0,0.0,0.0,0.0,0.0,0.0,0.0,8.5687,8.6791,8.6477,0.0,8.6245,8.5957,8.4196,8.471,8.487,8.4786,8.4434,8.4225,8.4225,8.4225,8.4071,8.3887,8.3887,8.379,8.3721,8.3721,8.3808,8.3894,8.3894,8.3894,8.3552,8.1526,8.0766,8.0328,7.8367,7.7638,7.7531,7.7254,7.7058,7.7031,7.6755,7.6558,7.6558,7.6558,7.7615,7.8169,7.6064,7.7201,7.8201,7.7241,7.7939,7.9013,7.9997,8.1631,8.2921,8.318,8.5558,8.767,8.8177,8.9194,9.05,9.1759,9.1914,9.238,9.3416,9.527,9.6359,9.6486,9.8345,9.9503,9.9667,9.9695,9.9755,9.9755,9.9887,9.9953,9.9953,9.9953,9.9953,9.9953,9.9953,9.9953,6.3266,6.7284,7.1114,7.5121,7.9056,8.3179,8.8189,9.0043,9.0805,9.0936,9.1032,9.065,8.9027,0.0,0.0,0.0,0.0,0.0,0.0,0.0,0.0,0.0,0.0,0.0,0.0,0.0,0.0,0.0,0.0,0.0,0.0,0.0,0.0,0.0,0.0,0.0,8.7126,8.6633,8.6018,8.5344,8.5896,8.5728,8.5031,8.5178,8.5344,8.5238,8.4031,8.3465,8.3465,8.2347,8.2393,8.3091,8.3091,8.3556,8.4225,8.4225,8.4225,8.4225,8.4225,8.4225,8.4071,8.3207,8.2865,8.2707,8.1727,8.1567,8.1217,7.9862,7.9533,7.9203,7.7895,7.7557,7.7852,7.9047,8.0185,8.0619,7.89,7.9219,7.9971,8.038,8.0811,8.1424,8.2532,8.3554,8.4387,8.4387,8.7225,9.0173,9.2115,9.2694,9.3274,9.3853,9.3789,9.4015,9.4529,9.53,9.6229,9.7075,9.7804,9.7848,9.6994,9.7783,9.8243,9.8243,9.9098,9.9558,9.9558,9.9558,9.9558,9.9558,9.9558,9.9558,5.5968,6.0589,6.5584,7.0187,7.5383,8.0492,8.4542,8.6733,8.8127,8.8738,8.9685,8.9543,8.6553,8.8252,0.0,0.0,0.0,0.0,0.0,0.0,0.0,0.0,0.0,0.0,0.0,0.0,0.0,0.0,0.0,0.0,0.0,0.0,0.0,0.0,0.0,0.0,8.7726,8.6957,8.6273,8.5765,8.6172,8.6177,8.5956,8.5704,8.5765,8.5668,8.4362,8.3762,8.3624,8.2431,8.2168,8.2615,8.2615,8.2727,8.3149,8.3527,8.3673,8.3731,8.4109,8.4225,8.4225,8.4225,8.4225,8.4225,8.4225,8.3993,8.3337,8.1822,8.1036,8.0438,7.8811,7.8487,7.8717,8.0199,8.1113,8.1521,8.0619,8.0445,8.0706,8.1608,8.2171,8.2879,8.3641,8.5059,8.6186,8.6616,8.9342,9.2276,9.4934,9.5251,9.5251,9.5251,9.5251,9.5251,9.5251,9.5251,9.5678,9.6665,9.6731,9.6303,9.5284,9.6205,9.6731,9.6731,9.775,9.8276,9.8276,9.8276,9.8276,9.8276,9.8276,9.8276,5.3395,5.7341,6.1957,6.9032,7.341,7.7696,8.3913,8.277,8.1601,8.5851,8.438,8.3427,8.7017,8.7225,0.0,0.0,0.0,0.0,0.0,0.0,0.0,0.0,0.0,0.0,0.0,0.0,0.0,0.0,0.0,0.0,0.0,0.0,0.0,0.0,0.0,0.0,8.6702,8.8116,8.7833,8.6173,8.7548,8.7651,8.6626,8.6308,8.6173,8.6117,8.5668,8.5448,8.5448,8.5448,8.4546,8.3022,8.3022,8.1952,8.0619,8.1899,8.2364,8.2539,8.3789,8.4225,8.4225,8.4225,8.4225,8.4225,8.4225,8.3353,8.2364,8.2364,8.1433,8.0474,8.0474,8.0474,8.0474,8.0445,8.0445,8.0445,8.0445,8.0445,8.0445,8.0445,8.1809,8.3022,8.3022,8.5872,8.8699,9.0106,9.1943,9.3673,9.5054,9.5251,9.5251,9.5251,9.5251,9.5251,9.5251,9.5251,9.5251,9.5284,9.5284,9.5284,9.5251,9.5284,9.5284,9.5284,9.5284,9.5284,9.5284,9.5284,9.5284,9.5284,9.5284,9.5284,4.7861,5.1818,5.6612,6.4218,6.8756,7.1791,7.341,7.5045,7.7539,8.2397,8.1983,8.1528,8.3977,8.6659,0.0,0.0,0.0,0.0,0.0,0.0,0.0,0.0,0.0,0.0,0.0,0.0,0.0,0.0,0.0,0.0,0.0,0.0,0.0,0.0,0.0,0.0,8.667,8.713,8.7074,8.6482,8.7019,8.7015,8.667,8.6622,8.6482,8.6482,8.5182,8.4588,8.4466,8.3321,8.253,8.2138,8.3061,8.2942,8.2237,8.2654,8.2141,8.138,8.2875,8.3428,8.3428,8.3428,8.4195,8.4728,8.2291,8.2174,8.2516,8.144,8.0735,8.0562,8.1112,8.1963,8.242,8.1476,8.1083,8.06,7.9785,7.8558,7.8487,8.041,8.1255,8.2321,8.4393,8.6745,8.8348,8.8795,9.1293,9.3311,9.3771,9.4659,9.5251,9.5251,9.5251,9.5251,9.5251,9.5251,9.5251,9.5251,9.4363,9.4232,9.5218,9.5251,9.5661,9.6538,9.5628,9.6146,9.7984,9.7068,9.7068,9.7984,9.7984,9.7984,4.3369,4.7161,5.1699,5.8285,6.1083,6.274,6.4669,6.7055,7.0304,7.5376,7.6542,7.7444,8.0298,8.5065,8.9186,9.0723,0.0,0.0,0.0,0.0,0.0,0.0,0.0,0.0,0.0,0.0,0.0,0.0,0.0,0.0,0.0,0.0,0.0,0.0,0.0,8.667,8.667,8.667,8.6929,8.7397,8.7397,8.7111,8.667,8.667,8.667,8.6637,8.554,8.5168,8.5054,8.4031,8.3495,8.359,8.372,8.3313,8.2573,8.3091,8.2593,8.1884,8.3443,8.3899,8.3899,8.3899,8.4681,8.5184,8.3071,8.274,8.3002,8.1963,8.1326,8.1068,8.1567,8.2259,8.2694,8.1823,8.14,8.1049,8.0295,7.9258,7.8996,8.0846,8.1786,8.2839,8.4668,8.65,8.7834,8.8384,9.0151,9.17,9.2259,9.3081,9.364,9.364,9.364,9.364,9.364,9.364,9.387,9.4429,9.3985,9.4077,9.498,9.5013,9.5421,9.6181,9.5421,9.593,9.7617,9.6705,9.6705,9.7617,9.7617,9.7927,3.9871,4.3292,4.7228,5.1691,5.1402,5.1554,5.7501,5.9187,6.0916,6.5843,6.8729,7.1663,7.5947,8.221,8.8179,9.2428,9.3325,0.0,0.0,0.0,0.0,0.0,0.0,0.0,0.0,0.0,0.0,0.0,0.0,0.0,0.0,0.0,0.0,0.0,0.0,8.6764,8.6764,8.6764,8.717,8.7926,8.8027,8.7524,8.6467,8.659,8.6689,8.6689,8.6581,8.6571,8.6637,8.6407,8.6472,8.6495,8.481,8.3312,8.2165,8.3194,8.3534,8.3592,8.4964,8.5431,8.5431,8.5431,8.553,8.553,8.5269,8.4529,8.3661,8.3534,8.2727,8.2009,8.2009,8.2009,8.2009,8.2009,8.1885,8.1761,8.1761,8.1761,8.1637,8.1761,8.3048,8.418,8.4297,8.5653,8.713,8.8478,8.8774,8.9333,9.0615,9.0878,9.0944,9.0944,9.1058,9.1025,9.1025,9.1139,9.1781,9.2952,9.3976,9.4596,9.4699,9.4699,9.4699,9.4796,9.4699,9.4699,9.4988,9.4892,9.4892,9.4988,9.4988,9.578,3.6987,4.0186,4.4061,4.7969,4.6113,4.4594,4.9298,5.2317,5.5284,6.0096,6.3758,6.7406,7.1781,7.5706,7.9908,8.4725,8.8225,0.0,0.0,0.0,0.0,0.0,0.0,0.0,0.0,0.0,0.0,0.0,0.0,0.0,0.0,0.0,0.0,0.0,8.7706,8.7612,8.7612,8.7612,8.5875,8.2681,8.3841,8.4297,8.4126,8.5577,8.6251,8.615,8.5319,8.5585,8.6472,8.4204,8.4598,8.6538,8.4888,8.4787,8.5428,8.4415,8.3247,8.2291,8.3901,8.4512,8.4512,8.4512,8.5409,8.5876,8.3351,8.3254,8.3764,8.2509,8.3749,8.5508,8.5508,8.5508,8.5508,8.5508,8.4529,8.3558,8.3558,8.2531,8.2009,8.3288,8.3914,8.4562,8.5909,8.6385,8.6768,8.713,8.8116,8.8971,8.93,9.0286,9.0944,9.0944,9.1791,9.2271,9.2271,9.3263,9.3536,9.2753,9.2836,9.353,9.4664,9.4699,9.5083,9.6136,9.5178,9.568,9.7767,9.6739,9.6739,9.7767,9.7767,9.7979,3.4618,3.6969,3.9475,3.9562,3.8207,3.7656,4.0656,4.4326,4.8474,5.3623,5.7998,6.26,6.8369,7.2341,7.596,7.9899,0.0,8.6556,0.0,0.0,0.0,0.0,0.0,0.0,0.0,0.0,0.0,0.0,0.0,0.0,0.0,0.0,0.0,0.0,8.6437,8.5708,8.5708,8.5382,8.4092,8.1797,8.2593,8.2727,8.2173,8.3231,8.3739,8.3647,0.0,8.3204,8.3941,8.3247,8.391,8.5334,8.5404,8.5946,8.6637,8.5653,8.476,8.4148,8.5022,8.5314,8.5314,8.5314,8.5909,8.6385,8.4497,8.4645,8.5168,8.4265,8.5249,8.667,8.667,8.667,8.667,8.667,8.6021,8.5314,8.5314,8.4645,8.4265,8.5168,8.4731,8.4533,8.5477,8.5058,8.4861,8.5519,8.6308,8.725,8.8459,8.9331,9.0011,9.0546,9.1199,9.1567,9.1567,9.222,9.2258,9.1468,9.2524,9.3466,9.4271,9.4306,9.4684,9.5339,9.4684,9.5056,9.6539,9.5734,9.5734,9.6539,9.6539,9.6932,3.3079,3.4148,3.4849,3.0673,3.0712,3.2034,3.3628,3.7538,4.2628,4.8321,5.2916,5.8009,6.5411,6.9636,7.2993,7.6247,0.0,8.2441,0.0,0.0,8.4501,0.0,0.0,0.0,0.0,0.0,0.0,0.0,0.0,0.0,0.0,0.0,0.0,8.7046,8.4443,8.2796,8.2348,8.1528,8.127,8.166,8.1905,8.1416,8.0369,8.0688,8.0812,0.0,0.0,8.0699,8.0992,8.2167,8.2944,8.3393,8.4737,8.5378,8.5642,8.5659,8.565,8.5716,8.6143,8.6472,8.6604,8.6407,8.6472,8.6746,8.6929,8.6854,8.668,8.6813,8.6853,8.6853,8.6706,8.6764,8.6863,8.6449,8.6472,8.6604,8.6341,8.6689,8.6797,8.6368,8.5286,8.4431,8.42,8.3141,8.2912,8.4299,8.4497,8.551,8.7994,8.8361,8.882,9.0035,9.0345,9.0527,9.0527,9.0707,9.0797,9.0797,9.2716,9.3899,9.3899,9.3899,9.3899,9.3899,9.3899,9.3899,9.3899,9.3899,9.3899,9.3899,9.3899,9.4648,3.2899,3.2856,3.2288,2.8604,2.904,3.1133,3.384,3.7152,4.1774,4.9,5.1903,5.5312,6.2493,6.3483,6.548,7.2177,7.3709,0.0,7.8512,8.0422,8.1531,8.1747,0.0,0.0,0.0,0.0,0.0,0.0,0.0,0.0,0.0,0.0,0.0,8.4954,8.3323,8.1093,7.8468,7.7044,7.6357,7.6386,7.7702,7.8242,7.8083,7.9797,0.0,0.0,0.0,0.0,8.0649,7.8595,7.9163,8.1093,7.9374,7.9421,8.0666,8.1023,8.1113,8.1442,8.3908,8.5585,8.6439,8.5157,8.5617,8.6854,8.7923,8.7469,8.6846,8.753,8.7687,8.7441,8.6417,8.719,8.7589,8.5312,8.5716,8.6308,8.5026,8.6571,8.7357,8.4778,8.4874,8.4876,8.3581,8.3172,8.3547,8.5138,8.5376,8.6014,8.7758,8.7964,8.8536,9.0024,9.1185,9.1822,9.1822,9.2751,9.3337,9.3337,9.3714,9.3899,9.3899,9.3899,9.3899,9.3899,9.3899,9.3899,9.3899,9.3899,9.3899,9.3899,9.3899,9.4042,3.1519,3.2267,3.259,2.9473,2.8801,2.9516,3.2075,3.6221,4.14,4.8237,5.1151,5.4418,6.0831,6.1042,6.279,7.0432,7.2785,7.4507,7.6911,7.8138,7.9094,7.9918,0.0,0.0,0.0,0.0,0.0,0.0,0.0,0.0,0.0,0.0,8.1788,8.2507,8.0738,7.8914,7.7249,7.654,7.6214,7.6214,7.6939,7.7213,7.7286,7.7779,0.0,0.0,0.0,0.0,7.7797,7.7498,7.81,7.9261,7.9166,7.9641,8.0267,8.0442,8.0528,8.0697,8.1982,8.3522,8.4767,8.4964,8.6008,8.7418,8.7932,8.6017,8.3799,8.4833,8.4591,8.3989,8.3435,8.3855,8.401,8.2775,8.299,8.3326,8.262,8.3427,8.3957,8.2473,8.1998,8.1641,8.0955,8.0817,8.1416,8.2927,8.382,8.5144,8.7383,8.8405,8.9459,9.0776,9.2222,9.3104,9.3104,9.1997,9.1366,9.1366,9.1366,9.1366,9.1366,9.2187,9.2651,9.2651,9.3471,9.3899,9.3899,9.3899,9.3899,9.3899,9.3899,9.3899,3.2604,0.0,3.4465,3.1375,2.9612,2.9324,0.0,3.5732,4.128,4.7516,5.0983,5.4421,5.9613,6.0085,6.205,6.9098,7.2298,7.4544,7.6306,7.681,7.7606,7.9312,7.8438,0.0,0.0,0.0,0.0,0.0,0.0,0.0,0.0,0.0,8.0129,8.0528,7.8458,7.7288,7.6974,7.6974,7.6974,7.6974,7.6974,7.6974,7.6974,7.647,0.0,0.0,0.0,0.0,7.5548,7.692,7.7407,7.7412,7.8681,7.9186,7.9174,7.9274,7.9329,7.9431,8.0151,8.0905,8.1949,8.3802,8.5262,8.6277,8.6575,8.4088,8.1367,8.2428,8.1981,8.1128,8.0804,8.108,8.117,8.0494,8.0665,8.0802,8.0459,8.0832,8.1114,8.031,7.9518,7.8854,7.8508,7.8516,7.9113,8.056,8.1818,8.3595,8.6448,8.7827,8.9193,9.0866,9.2115,9.2793,9.2793,9.09,8.9738,8.9738,8.9738,8.9738,8.9738,9.0888,9.1502,9.1502,9.2651,9.3261,9.3261,9.3261,9.3261,9.3261,9.3261,9.3261,0.0,3.9472,3.8137,3.3478,3.2147,3.233,3.3169,3.6599,0.0,4.7516,5.1574,5.5198,5.8569,6.0199,6.2466,6.726,6.9846,7.2226,7.4942,7.6302,7.7783,0.0,8.0097,0.0,0.0,0.0,0.0,0.0,0.0,0.0,0.0,0.0,7.7909,7.9364,7.7863,7.6994,7.6974,7.6974,7.6974,7.6974,7.6974,7.6974,7.6974,7.6929,0.0,0.0,0.0,0.0,0.0,7.606,7.5892,7.5345,7.449,7.419,7.4194,7.472,7.4857,7.5269,7.797,7.8107,7.757,8.0288,8.1316,8.1553,8.2794,8.2691,8.2142,8.2244,8.2244,8.1905,8.0814,8.1568,8.2036,7.9471,7.9911,8.0528,7.9157,8.0907,8.1777,7.8768,7.9024,7.9366,7.7907,7.7658,7.8192,7.9758,8.0049,8.1253,8.4378,8.4877,8.6053,8.9083,8.9475,8.9547,8.9547,9.0572,9.1187,9.1187,9.1187,9.1187,9.1187,9.1297,9.137,9.137,9.1443,9.1516,9.1516,9.1516,9.1516,9.1516,9.1516,9.1516,4.2591,4.1979,4.0301,3.5176,3.2369,3.1464,3.3863,3.7714,4.2465,4.8189,5.2813,5.6231,5.762,5.9244,6.2483,6.884,7.1046,7.3422,7.7783,7.874,0.0,7.9273,0.0,0.0,0.0,0.0,0.0,0.0,0.0,0.0,0.0,0.0,7.8017,7.8914,7.8393,7.8059,7.8059,7.8059,7.8059,7.8059,7.8059,7.8059,7.8059,7.7721,0.0,0.0,0.0,0.0,0.0,7.6614,7.6258,7.568,7.5291,7.4955,7.468,7.4863,7.4943,7.5084,7.6178,7.6811,7.7372,7.8464,7.9449,8.0575,8.2021,8.0267,7.7881,7.7881,7.7881,7.7819,7.7368,7.7628,7.7881,7.6809,7.6954,7.72,7.6638,7.7363,7.7734,7.653,7.667,7.681,7.6204,7.6917,7.7738,7.8345,7.9272,8.0342,8.152,8.2483,8.3553,8.4731,8.6949,8.7318,8.4735,8.4997,8.5345,8.5345,8.5345,8.5345,8.5345,8.7286,8.8349,8.8349,9.0326,9.1352,9.1352,9.1352,9.1352,9.1352,9.1352,9.1352,4.6308,4.5182,4.2842,3.6377,3.3162,3.218,3.424,3.8707,4.3786,4.8722,5.3784,5.7404,5.7472,5.9239,6.2877,6.9733,7.148,7.3749,7.868,7.962,0.0,7.9412,7.9504,0.0,0.0,0.0,0.0,0.0,0.0,0.0,0.0,0.0,7.8436,7.889,7.8915,7.8915,7.8915,7.8915,7.8915,7.8915,7.8886,7.8886,7.889,7.8403,0.0,0.0,0.0,0.0,0.0,7.7275,7.6929,7.6272,7.6069,7.5808,7.5449,7.5449,7.5405,7.5205,7.5428,7.6085,7.681,7.681,7.756,7.863,7.97,7.803,7.5807,7.5807,7.5676,7.5449,7.5449,7.5347,7.5241,7.5241,7.5241,7.5241,7.5241,7.5241,7.5241,7.5241,7.5241,7.5241,7.5241,7.6133,7.681,7.681,7.7738,7.8594,7.9094,8.021,8.122,8.1758,8.4226,8.4634,8.1526,8.1898,8.2318,8.2318,8.2318,8.2318,8.2318,8.4495,8.5851,8.6376,8.859,8.9955,9.0509,9.0509,9.0509,9.0509,9.0509,9.0509,5.0814,4.9513,4.6053,3.706,3.4954,3.5045,3.4915,3.9437,4.483,4.8991,5.4446,5.8524,5.8388,6.0212,6.3638,6.9274,7.0648,7.2488,7.6761,7.8151,7.9253,0.0,0.0,0.0,0.0,0.0,0.0,0.0,0.0,0.0,0.0,7.8734,7.8915,7.9296,7.9311,7.9311,7.9311,7.9311,7.9311,7.9311,7.9175,7.9195,7.9296,7.8915,7.8896,0.0,0.0,0.0,0.0,7.7949,7.7562,7.6929,7.6272,7.6054,7.6054,7.6054,7.5716,7.5324,7.5826,7.568,7.5241,7.5241,7.5241,7.5241,7.5241,7.6058,7.6974,7.6974,7.6518,7.6054,7.6054,7.5605,7.5241,7.5241,7.5241,7.5241,7.5241,7.5241,7.5241,7.5241,7.5241,7.5241,7.5241,7.5241,7.5241,7.5241,7.5241,7.5776,7.7371,7.802,7.8952,8.0617,8.1281,8.1268,8.0319,8.2397,8.3714,8.3714,8.3714,8.3714,8.3714,8.3751,8.4461,8.6032,8.6069,8.6929,8.8645,8.8645,8.8645,8.8645,8.8612,8.8612,5.3031,5.0511,4.6781,3.8993,3.4766,3.3751,0.0,4.2156,4.6548,5.3282,5.7668,6.0178,5.966,6.1273,6.4511,6.9868,7.1431,7.3497,7.7969,7.8826,7.9211,7.9706,0.0,0.0,0.0,0.0,0.0,0.0,0.0,0.0,0.0,7.914,7.9216,7.9296,7.9311,7.9311,7.9311,7.9311,7.9311,7.9311,7.9285,7.9285,7.9296,7.9216,7.9178,7.9234,0.0,0.0,0.0,7.8784,7.8329,7.7642,7.7443,7.7064,7.6661,7.6661,7.6603,7.6494,7.6651,7.6603,7.6445,7.6445,7.6445,7.6445,7.6445,7.6698,7.6974,7.6974,7.6838,7.6661,7.6661,7.6555,7.6445,7.6445,7.6445,7.6445,7.6445,7.6445,7.6445,7.6445,7.609,7.5915,7.6395,7.6074,7.5915,7.6395,7.6445,7.6627,7.71,7.7284,7.7575,7.8086,7.901,7.9464,7.9224,7.98,8.0199,8.0199,8.0199,8.0199,8.0199,8.1358,8.2218,8.2667,8.5141,8.6632,8.7131,8.8333,8.8897,8.8897,8.8739,8.8612,5.5215,5.2358,4.8444,4.0416,3.689,3.6495,4.1047,0.0,4.8939,5.5447,6.028,6.2965,6.1725,6.4491,6.8123,7.1903,7.3165,7.5052,7.882,7.9235,7.9306,7.96,7.9433,0.0,0.0,0.0,0.0,0.0,0.0,0.0,0.0,7.9619,7.9619,7.9619,7.9619,7.9619,7.9619,7.9619,7.9619,7.9619,7.9519,7.953,7.9609,7.942,7.9355,7.9446,0.0,0.0,0.0,7.9215,7.889,7.8398,7.8121,7.7764,7.736,7.736,7.7195,7.7019,7.7275,7.7195,7.6974,7.6974,7.728,7.7684,7.7684,7.7684,7.7684,7.7684,7.7684,7.7608,7.7401,7.736,7.7317,7.7019,7.6974,7.6974,7.6974,7.6974,7.6974,7.6974,7.6661,7.6518,7.6929,7.6614,7.6518,7.6929,7.6974,7.6974,7.6974,7.7232,7.736,7.736,7.7609,7.7507,7.6834,7.6865,7.6871,7.6871,7.6975,7.7349,7.7988,7.904,8.0168,8.1446,8.2917,8.4287,8.5644,8.5984,8.6851,8.8171,8.8016,8.8276,5.7588,5.4885,5.084,4.2296,4.0678,4.1635,4.3257,0.0,0.0,5.6313,6.2482,6.643,6.4475,6.8608,7.2895,7.4651,7.5287,7.6524,7.9257,7.9438,7.9486,7.9993,0.0,0.0,0.0,0.0,0.0,0.0,0.0,0.0,0.0,8.003,8.0069,8.007,8.007,8.007,8.007,8.007,8.007,8.007,7.9852,7.9852,8.0069,7.9609,7.9519,7.9735,0.0,0.0,0.0,7.934,7.9176,7.8858,7.8259,7.787,7.7613,7.7614,7.724,7.6802,7.7355,7.731,7.6931,7.6931,7.769,7.856,7.856,7.8672,7.8784,7.8793,7.8763,7.8636,7.8133,7.8024,7.7874,7.728,7.7152,7.7152,7.7152,7.7152,7.7152,7.7152,7.7108,7.7064,7.7152,7.7108,7.7064,7.7152,7.7152,7.7152,7.7152,7.7642,7.7912,7.7615,7.6725,7.5545,7.4039,7.4018,7.4098,7.4098,7.4328,7.5106,7.6671,7.6747,7.8146,8.1111,7.9825,8.0619,8.3698,8.2472,8.3455,8.6475,8.661,8.7426,6.1301,5.7842,5.3606,4.7911,4.3853,4.2553,4.7154,4.9692,0.0,0.0,6.5029,6.8217,6.702,6.8928,7.1757,7.4917,7.4518,7.5102,7.8734,7.9181,7.9295,0.0,7.95,0.0,0.0,0.0,0.0,0.0,0.0,0.0,7.9519,7.9674,7.9857,8.007,8.007,8.007,8.007,8.007,8.007,8.007,8.003,8.003,8.007,7.9987,7.9946,7.9991,7.9946,0.0,0.0,7.9619,7.8726,7.7438,7.7272,7.6386,7.5157,7.4995,7.4809,7.4692,7.4719,7.5531,7.6511,7.6511,7.6898,7.7329,7.7329,7.8216,7.9159,7.9037,7.904,7.8965,7.8636,7.8542,7.851,7.8375,7.8375,7.8375,7.8375,7.8375,7.8375,7.8375,7.8023,7.7874,7.827,7.8023,7.7874,7.8308,7.8375,7.8375,7.8375,7.8478,7.7619,7.5135,7.4708,7.4507,7.4312,7.4345,7.4362,7.4362,7.441,7.4615,7.4955,7.4993,7.5333,7.6013,7.7083,7.797,7.8728,8.1002,8.2518,8.3238,8.4388,8.5064,6.307,5.9984,5.6188,5.1368,4.7907,4.6736,5.1277,0.0,0.0,0.0,6.8512,7.1238,7.1201,7.4021,7.6463,7.693,7.6548,7.6871,7.8927,7.9216,0.0,7.9481,7.9368,7.942,0.0,0.0,0.0,0.0,0.0,0.0,7.9311,7.9433,7.959,7.9728,7.9848,7.9899,7.9899,8.003,8.003,7.9899,7.9899,7.9848,7.9735,7.9848,7.9899,7.9902,8.003,0.0,7.9899,7.9899,7.8749,7.7072,7.7072,7.6,7.441,7.431,7.4274,7.4255,7.419,7.4711,7.5313,7.4523,7.4934,7.5764,7.5764,7.6898,7.8184,7.8084,7.8631,7.9137,7.8953,7.8912,7.8896,7.8763,7.8704,7.8704,7.8704,7.8704,7.8704,7.8704,7.851,7.8412,7.8673,7.8478,7.8412,7.8673,7.8068,7.7582,7.7582,7.7036,7.5733,7.3293,7.3047,7.2742,7.2097,7.2139,7.2213,7.2213,7.2275,7.2651,7.3485,7.3523,7.3902,7.4706,7.4816,7.5209,7.5968,7.6841,7.8129,7.9723,8.0485,8.1307,6.4468,6.2018,5.896,5.4753,5.2402,5.1939,5.5026,5.6062,0.0,0.0,7.1742,7.4764,7.4973,7.9172,8.1909,7.9811,7.9576,7.9766,8.0041,0.0,7.9876,0.0,0.0,0.0,0.0,0.0,0.0,0.0,0.0,0.0,7.9196,7.9268,7.9285,7.9285,7.9508,7.9619,7.9619,7.9848,7.9848,7.9619,7.9619,7.953,7.9311,7.953,7.9619,7.9627,0.0,0.0,7.9992,7.9688,7.847,7.6752,7.6486,7.525,7.3691,7.3665,7.3652,7.3638,7.3571,7.3745,7.376,7.2102,7.2719,7.4108,7.4108,7.5294,7.6694,7.6933,7.7955,7.8971,7.91,7.915,7.9083,7.8875,7.8831,7.8831,7.8831,7.8775,7.8718,7.8397,7.8068,7.7881,7.7881,7.7881,7.7881,7.7881,7.678,7.5985,7.5985,7.4554,7.3056,7.1698,7.1559,7.1004,6.96,6.9693,6.9809,6.9809,6.9892,7.0575,7.1981,7.1977,7.262,7.4027,7.2578,7.2461,7.372,7.2516,7.3363,7.6114,7.6378,7.7349,6.7303,6.516,6.2283,6.0751,5.7657,5.5531,5.7436,5.9849,6.2438,6.5484,0.0,7.7891,7.5337,7.8129,8.1337,8.2969,0.0,8.1643,8.2992,8.3195,8.2187,7.9482,7.8927,7.8965,7.9264,7.9197,7.9195,7.9296,7.9023,7.8803,7.8803,7.9027,7.9128,7.9128,7.9268,7.9378,7.9378,7.9368,7.9368,7.9378,7.9378,7.9326,7.9311,7.934,7.9378,7.9378,0.0,0.0,7.9635,7.8149,7.6672,7.517,7.369,7.2094,7.057,7.0442,7.0406,7.0359,7.0171,7.1014,7.2038,7.0659,7.1369,7.2774,7.2774,7.3951,7.554,7.6807,7.7277,7.7732,7.8971,7.9302,7.9264,7.9231,7.9213,7.9213,7.9213,7.9117,7.8602,7.7033,7.5525,7.4516,7.4516,7.4516,7.4516,7.4516,7.4422,7.4365,7.4365,7.1857,7.0058,7.0064,7.0072,7.0031,6.9927,6.993,6.9969,6.9969,6.9878,6.9917,7.0144,6.9916,6.993,7.0119,6.9906,6.9894,7.0083,7.1319,7.2152,7.2606,7.4095,7.4902,6.7298,6.6002,6.3908,6.2754,6.0423,5.8858,6.0629,6.2202,6.4689,6.9713,7.5762,0.0,0.0,0.0,0.0,0.0,0.0,0.0,8.0499,8.0782,8.041,0.0,7.8822,0.0,7.8952,7.8927,7.8901,0.0,7.8831,7.8574,7.8273,7.8688,7.8923,7.8923,7.8965,7.9068,7.9178,7.9285,7.9285,7.9178,7.9178,7.9117,7.9,7.9117,7.9178,7.9197,0.0,7.9355,7.9432,7.8663,7.6926,7.463,7.3955,7.2148,6.9878,6.9892,6.9919,6.9878,6.9781,7.022,7.073,7.008,7.0368,7.0967,7.0814,7.2047,7.3636,7.4259,7.5852,7.7499,7.797,7.8811,7.947,7.9326,7.9311,7.9311,7.9311,7.8588,7.7669,7.6889,7.5341,7.4211,7.4211,7.4211,7.4211,7.4211,7.3444,7.2549,7.1747,7.054,6.9781,6.9878,6.9919,6.9925,6.997,6.9971,6.9931,6.9875,6.9809,6.9723,6.9583,6.944,6.9402,6.9402,6.9339,6.9274,6.9274,6.9976,7.0272,7.031,7.1045,7.1427,6.6629,6.6488,6.5419,6.4648,6.3089,6.2228,6.4139,6.4974,6.7251,7.36,7.8345,8.1227,0.0,0.0,0.0,8.0573,8.0142,0.0,7.9541,7.9806,0.0,7.8925,0.0,7.8813,7.8813,7.8763,0.0,0.0,7.8375,7.8167,7.7949,7.8345,7.8611,7.8704,7.8704,7.8813,7.904,7.9117,7.9117,7.904,7.904,7.8912,7.8734,7.8912,7.904,7.9003,7.9117,7.9197,7.9231,7.8798,7.698,7.4408,7.4064,7.2208,6.9723,6.9786,6.9884,6.9927,6.9843,6.984,6.9833,6.9738,6.9677,6.966,6.944,7.0395,7.1648,7.2112,7.4096,7.6264,7.6955,7.8083,7.9126,7.9362,7.9124,7.8875,7.8875,7.754,7.6252,7.5886,7.4735,7.367,7.3231,7.3155,7.3155,7.3155,7.2139,7.1023,6.996,6.9927,6.9971,6.9971,6.9971,6.997,6.9929,6.9929,6.9875,6.9685,6.9641,6.954,6.9331,6.9323,6.9291,6.9291,6.9085,6.8969,6.8969,6.8724,6.8596,6.8596,6.8596,6.8752,6.5945,6.711,6.7446,6.7849,6.6464,6.564,6.781,6.9118,7.0986,7.493,7.9679,8.258,0.0,0.0,8.4007,8.3731,8.3612,8.3527,8.3494,8.3603,8.2536,0.0,0.0,0.0,0.0,0.0,0.0,7.8024,0.0,7.7317,7.7911,7.7987,7.8204,7.8704,7.8704,7.8734,7.8734,7.8726,7.8726,7.8734,7.8734,7.8734,7.8704,7.8734,7.8734,7.8734,7.8726,7.8886,7.897,7.7367,7.5839,7.4281,7.2678,7.0952,6.9415,6.9428,6.9594,6.9783,6.9524,6.9428,6.9428,6.9428,6.9415,6.9415,6.9415,6.9491,6.9882,7.1471,7.2089,7.2972,7.6151,7.7136,7.77,7.9294,7.8656,7.7639,7.7639,7.6128,7.4327,7.2855,7.2262,7.153,6.9931,6.9629,6.9629,6.9629,6.9793,6.9923,6.9969,6.9971,6.9971,6.9971,6.9971,6.9929,6.9803,6.9797,6.9677,6.9428,6.9312,6.9223,6.9204,6.9072,6.9035,6.9035,6.8559,6.8303,6.8303,6.7782,6.7518,6.7518,6.7518,6.7782,6.5094,6.6958,6.7557,6.8066,6.8218,6.8363,6.9207,7.2165,7.5292,7.7097,8.2287,8.5525,8.2033,8.3713,8.4403,8.0819,8.0402,8.0423,8.0199,8.0553,8.0446,7.9348,7.9192,0.0,0.0,0.0,0.0,7.6792,7.6884,7.7064,7.7317,7.7719,7.8169,7.8704,7.8704,7.8704,7.8704,7.8704,7.8704,7.8704,7.8379,7.8204,7.8204,7.8204,7.8412,7.8704,7.8704,7.8793,7.8831,7.8232,7.6436,7.4004,7.3499,7.1635,6.9257,6.9361,6.944,6.9502,6.9323,6.9301,6.9388,6.9291,6.9277,6.9241,6.916,6.9184,6.939,7.0011,7.181,7.3827,7.5051,7.6946,7.8461,7.8057,7.7571,7.6906,7.5896,7.4363,7.3007,7.251,7.1469,7.0502,6.99,6.9748,6.9748,6.9748,6.984,6.9927,6.997,6.9884,6.9867,6.9867,6.9708,6.9584,6.9535,6.9524,6.9453,6.9295,6.9242,6.9177,6.9085,6.8705,6.8498,6.8498,6.7997,6.7708,6.7708,6.7555,6.744,6.744,6.744,6.7557,6.238,6.5751,6.7942,6.8771,6.9549,7.0399,7.1759,7.456,7.7534,7.9854,8.4023,8.628,8.3249,8.4369,8.4154,7.9291,7.8681,7.8756,7.8531,7.8977,7.9306,7.9296,7.9253,0.0,0.0,0.0,0.0,7.6069,7.6244,7.6591,7.6974,7.736,7.7987,7.8704,7.8704,7.8704,7.8704,7.8542,7.8542,7.8704,7.7987,7.7758,7.7949,7.7949,7.8133,7.8478,7.8642,7.8704,7.8704,7.8704,7.6797,7.3871,7.3972,7.2004,6.9134,6.9242,6.9277,6.9241,6.9177,6.9201,6.9241,6.9177,6.9149,6.9081,6.8827,6.8923,6.9089,6.8922,7.0681,7.2898,7.3953,7.5933,7.7476,7.6985,7.6482,7.5697,7.4094,7.2474,7.1353,7.1451,7.055,6.9795,6.9884,6.9925,6.9929,6.997,6.9971,6.9931,6.9795,6.9708,6.966,6.966,6.9502,6.9375,6.9354,6.9339,6.9222,6.886,6.8873,6.8758,6.8498,6.8171,6.7962,6.7962,6.7403,6.7119,6.7119,6.695,6.69,6.69,6.69,6.6987,5.7651,0.0,6.8346,7.0104,7.061,7.1728,7.5695,7.6336,7.7663,8.3253,8.4619,8.4732,8.4508,8.4393,8.325,7.9753,7.9159,7.9121,7.9144,7.943,7.9609,7.934,7.9296,7.8951,0.0,7.6851,7.6002,7.6002,7.5528,7.5752,7.6929,7.6974,7.7528,7.8704,7.8704,7.8704,7.8704,7.8204,7.8204,7.8704,7.7488,7.7275,7.7911,7.7911,7.7911,7.7949,7.8445,7.8673,7.8673,7.8673,7.673,7.3814,7.3814,7.1834,6.8993,6.8966,6.8993,6.8993,6.8993,6.8993,6.8993,6.8993,6.8993,6.8874,6.8373,6.8566,6.8874,6.8335,6.8603,6.9751,7.2992,7.4009,7.4604,7.611,7.5386,7.385,7.2214,7.0536,6.9402,6.9402,6.9402,6.9452,6.9731,6.9746,6.9814,6.9931,6.997,6.984,6.9452,6.9402,6.9402,6.9402,6.9388,6.9354,6.9184,6.9201,6.8922,6.8271,6.8205,6.7962,6.744,6.744,6.74,6.74,6.6784,6.6469,6.6469,6.5915,6.5715,6.5715,6.5715,6.5965,5.2256,0.0,0.0,6.833,7.1988,7.4663,7.6221,7.9401,8.248,8.4278,8.5762,8.6675,8.6499,8.5463,8.385,8.1456,8.0062,7.9318,7.9483,7.9483,7.9458,7.96,7.8933,7.8143,7.7384,7.6493,7.5826,7.5449,7.566,7.6142,7.6929,7.7401,7.7987,7.8704,7.8704,7.8704,7.8704,7.8204,7.8024,7.8133,7.6893,7.6408,7.6518,7.6518,7.6838,7.7238,7.7406,7.7447,7.7447,7.7447,7.5529,7.2615,7.3017,7.1223,6.8404,6.7997,6.81,6.8436,6.8436,6.8436,6.8436,6.8436,6.8205,6.7855,6.7708,6.7745,6.7855,6.7671,6.8555,7.0068,7.206,7.2691,7.3017,7.3733,7.2734,7.1344,7.0202,6.9599,6.9257,6.9375,6.9402,6.9415,6.9502,6.9513,6.9524,6.9565,6.9565,6.9508,6.9415,6.9402,6.9346,6.9277,6.916,6.9095,6.9036,6.8724,6.8417,6.8238,6.7891,6.7632,6.744,6.7036,6.674,6.674,6.6175,6.5901,6.5901,6.5181,6.5162,6.568,6.5107,6.5236,4.3777,0.0,0.0,0.0,6.9664,7.3599,7.6109,7.8849,8.1418,8.3305,8.4571,8.5536,8.6203,8.5453,8.4102,0.0,8.0518,7.9483,7.9482,7.9471,7.9483,7.9468,7.8409,7.7723,7.7937,7.6592,7.5815,7.6193,7.5865,7.5969,7.6518,7.7188,7.7799,7.8379,7.8611,7.8704,7.8704,7.795,7.7797,7.8276,7.6506,7.5932,7.6372,7.5915,7.5985,7.6566,7.6884,7.6974,7.6974,7.6974,7.5434,7.3051,7.2681,7.1064,6.874,6.7814,6.8592,6.9983,6.8683,6.8646,6.909,6.846,6.7891,6.74,6.7119,6.7243,6.74,6.7119,6.7901,6.9167,7.0745,7.1226,7.1307,7.1506,7.088,6.9951,6.876,6.8472,6.8582,6.8827,6.8892,6.9013,6.9253,6.9323,6.9219,6.8972,6.8892,6.8892,6.8892,6.8892,6.8781,6.85,6.8417,6.8373,6.8373,6.8066,6.7782,6.7483,6.7206,6.695,6.6723,6.6366,6.5993,6.5707,6.5397,6.5016,6.4642,6.4174,6.4234,6.4642,6.4174,6.4199,3.4129,0.0,0.0,5.9707,6.4796,6.9625,0.0,0.0,7.6831,8.0992,8.1982,8.2688,8.4587,8.4685,8.3968,8.241,8.0754,7.9682,7.9682,7.9666,7.9533,7.9263,7.8209,7.8029,7.9316,7.7051,7.6121,7.7539,7.6181,7.5564,7.6105,7.6661,7.7232,7.7797,7.8308,7.8542,7.8542,7.7447,7.7369,7.8408,7.628,7.5752,7.6745,7.5696,7.5449,7.5949,7.6506,7.6792,7.6792,7.6792,7.5794,7.4104,7.2628,7.1274,6.9944,6.8372,6.9911,7.2321,6.9326,6.925,7.0138,6.8513,6.7671,6.7119,6.6561,6.6784,6.7156,6.6561,6.6784,6.7609,6.9145,6.9443,6.937,6.9636,6.9563,6.9049,6.7733,6.744,6.7557,6.8032,6.8171,6.8325,6.8908,6.8999,6.8811,6.8234,6.8171,6.8171,6.8171,6.8171,6.7962,6.7516,6.744,6.744,6.744,6.7283,6.6957,6.635,6.621,6.5907,6.5433,6.5433,6.5107,6.4446,6.4352,6.3993,6.3144,6.3079,6.3079,6.3144,6.3079,6.3014,0.0,0.0,0.0,0.0,0.0,0.0,0.0,0.0,7.4504,7.8691,7.9901,8.1185,8.4359,8.3827,8.317,8.4035,8.1646,8.0547,8.3006,8.0952,7.9427,7.9986,8.0584,8.0803,8.0601,7.8458,7.7374,7.8153,7.6728,7.6105,7.6792,7.6929,7.7019,7.7188,7.728,7.7323,7.7323,7.6566,7.6322,7.653,7.564,7.5383,7.5543,7.5324,7.5265,7.5369,7.5485,7.5564,7.5564,7.5564,7.463,7.3106,7.1969,7.1832,7.2117,7.0521,7.0648,7.1364,6.9519,6.9055,6.9055,6.738,6.6469,6.6001,6.5901,6.5951,6.6001,6.5901,6.5951,6.641,6.7989,6.7451,6.6954,6.8745,6.8111,6.7191,6.7434,6.744,6.7516,6.7557,6.7632,6.7633,6.778,6.7779,6.7744,6.7633,6.7632,6.7632,6.7632,6.7632,6.7557,6.7476,6.744,6.744,6.744,6.637,6.5678,6.5528,6.4431,6.3767,6.3651,6.3651,6.3589,6.3463,6.3463,6.3336,6.3144,6.2449,6.2449,6.3144,6.2551,6.1822,0.0,0.0,0.0,0.0,0.0,0.0,0.0,0.0,0.0,0.0,0.0,7.8494,0.0,0.0,8.2119,8.5285,8.2466,8.0584,8.2525,8.217,8.1831,8.2024,8.1174,8.0558,8.0594,7.873,7.7756,7.8283,7.6636,7.5771,7.611,7.6345,7.647,7.647,7.6801,7.6974,7.6974,7.6322,7.6171,7.647,7.5676,7.5347,7.564,7.5347,7.5241,7.5241,7.5241,7.5241,7.5181,7.4672,7.3988,7.3166,7.1834,7.2436,7.3778,7.1423,7.1866,7.3308,7.0992,7.0172,6.9882,6.8289,6.681,6.5715,6.5715,6.5415,6.5107,6.5107,6.4757,6.4644,6.5416,6.5954,6.6351,6.6697,6.7011,6.7134,6.664,6.6587,6.6642,6.6914,6.6957,6.7078,6.74,6.6987,6.6678,6.6914,6.6957,6.6834,6.6452,6.637,6.5571,6.3416,6.3188,6.3188,6.3188,6.2489,6.2758,6.4153,6.3547,6.3144,6.3144,6.3144,6.2949,6.2516,6.2449,6.2279,6.193,6.143,6.1464,6.186,6.0883,6.0158,0.0,0.0,0.0,0.0,0.0,0.0,0.0,0.0,0.0,0.0,0.0,0.0,0.0,0.0,0.0,8.4709,8.2383,8.0432,8.1605,8.352,8.4575,8.3696,8.1724,8.0476,8.0562,7.8926,7.8113,7.8672,7.6782,7.5564,7.5564,7.5862,0.0,7.5826,7.6135,7.6616,7.7077,7.6383,7.6383,7.7077,0.0,0.0,7.5862,7.5428,7.5085,7.4928,7.4928,7.4831,7.4582,7.376,7.339,7.325,7.1512,7.2361,7.4326,7.1809,7.2872,7.514,7.2314,7.1447,7.1326,6.9435,6.7609,6.6055,6.5593,6.5052,0.0,6.4643,6.4129,6.3625,6.3935,6.5517,6.6741,6.5662,6.6621,6.7405,6.618,6.5788,6.5747,6.6054,6.6199,6.6469,6.6993,6.6042,6.5255,6.5391,6.5705,6.5542,6.458,6.4739,6.3468,5.9794,5.9371,5.9275,5.9056,5.857,5.9364,6.1735,6.1633,6.1362,6.0957,6.0886,6.0395,5.9471,5.9875,5.9972,5.9577,5.9833,5.9944,5.9911,5.802,5.7649,0.0,0.0,0.0,0.0,0.0,0.0,0.0,0.0,0.0,0.0,0.0,0.0,0.0,0.0,0.0,0.0,7.992,8.0619,8.315,8.529,8.5745,8.3359,8.3893,8.369,8.1679,8.0048,7.9348,8.0003,7.8026,7.6792,7.6792,0.0,0.0,0.0,0.0,7.5168,7.7445,7.6524,7.6524,7.7541,7.7396,7.6621,7.5288,7.5265,7.4707,7.3826,7.3826,7.339,7.2621,7.2477,7.2477,7.2266,6.9871,7.0403,7.2621,7.2275,7.2871,0.0,0.0,0.0,0.0,6.9142,6.8017,6.7337,6.5272,6.462,6.4632,6.5117,6.517,6.5413,6.665,6.7166,6.7542,6.8322,6.7661,6.6844,6.6728,6.6209,6.5486,6.4869,6.529,6.5835,6.585,6.455,6.3042,6.184,6.2716,6.3035,6.1685,6.2627,6.2835,6.1262,0.0,0.0,5.9691,5.7479,5.6472,5.7255,5.6258,5.4841,5.3087,5.2637,5.2025,5.1002,5.3078,5.4739,5.5637,5.6949,5.7508,5.7414,5.2853,5.3048,0.0,0.0,0.0,0.0,0.0,0.0,0.0,0.0,0.0,0.0,0.0,0.0,0.0,0.0,0.0,0.0,7.9658,8.0221,8.1043,8.2888,8.3676,8.2359,8.1519,8.077,8.0027,7.8643,7.8144,7.8836,7.7685,7.6801,7.6421,7.6157,7.5753,7.5241,7.5074,7.5824,7.7524,7.7891,7.7989,7.7999,7.8464,7.7631,7.568,7.568,7.492,0.0,7.3659,7.3184,7.2292,7.1659,7.1769,0.0,0.0,0.0,0.0,0.0,7.2906,7.3589,7.2922,7.2794,7.24,6.9647,6.8634,6.8139,6.5734,6.5267,6.5587,6.5779,6.5473,6.5233,6.5837,6.7065,6.8027,6.7536,6.737,6.7043,6.6176,6.5038,6.4139,6.381,0.0,0.0,6.4199,6.3651,6.3002,6.2348,6.2236,6.1804,0.0,6.1139,6.0443,5.7775,5.8117,5.8084,5.685,5.5624,0.0,0.0,0.0,5.3789,5.1676,5.2053,0.0,0.0,0.0,0.0,0.0,0.0,0.0,0.0,4.6908,4.7842,0.0,0.0,0.0,0.0,0.0,0.0,0.0,0.0,0.0,0.0,0.0,0.0,0.0,0.0,0.0,0.0,0.0,7.9234,7.9131,8.0422,8.1442,8.1678,7.9753,7.8164,7.7599,7.6639,7.6466,7.7492,7.6943,7.6453,7.6272,7.6272,7.5985,7.5485,7.6202,7.7338,7.8718,7.9924,8.0084,7.931,7.9865,7.8671,7.6002,7.6002,7.5047,7.3322,7.3322,7.2621,7.1351,7.0625,7.0517,7.0816,7.0021,6.9295,6.8954,7.0348,7.1584,7.248,7.28,7.2825,7.2379,7.0094,6.9277,6.8698,6.5895,6.5296,6.5653,6.5425,6.5137,6.5035,6.543,6.7093,6.8539,6.7702,6.7438,6.6955,6.5895,6.4352,6.3079,6.2849,6.2618,6.2517,6.2517,6.2517,6.2347,6.1973,6.1251,0.0,5.9438,5.9295,5.8089,5.503,5.5421,5.5257,5.3723,5.2493,5.2079,0.0,5.1865,5.0749,4.9389,4.9429,4.8911,4.7788,4.5256,4.3523,0.0,0.0,0.0,0.0,0.0,0.0,0.0,0.0,0.0,0.0,0.0,0.0,0.0,0.0,0.0,0.0,0.0,0.0,0.0,0.0,0.0,0.0,0.0,0.0,7.8442,7.8939,7.9861,8.1626,8.0222,7.7901,7.4879,7.431,7.4839,7.6508,7.591,7.5903,7.6901,7.6974,7.6614,7.6002,7.7476,7.9368,8.1694,8.2608,8.2644,8.1731,8.1779,7.9718,7.6002,7.6002,7.4682,7.2331,7.2331,7.1195,6.9331,6.9244,6.8475,6.7191,6.7191,6.8047,6.9013,6.7685,6.808,6.9471,7.0496,7.1506,7.2021,7.0365,6.9778,6.9086,6.5287,6.4186,6.4033,6.3158,6.3851,6.5232,6.6613,6.806,6.9491,7.0362,6.8385,6.6375,6.6417,6.4765,6.2949,6.2038,6.1245,6.0705,6.0705,6.0705,6.0245,5.8862,5.8877,0.0,5.7074,5.6783,5.6253,5.4925,5.4475,5.3454,5.1172,4.7759,4.5899,4.6206,4.3909,4.2923,4.3759,4.1554,4.0498,4.114,4.0955,4.0063,3.8663,0.0,0.0,0.0,0.0,0.0,0.0,0.0,0.0,0.0,0.0,0.0,0.0,0.0,0.0,0.0,0.0,0.0,0.0,0.0,0.0,0.0,0.0,0.0,0.0,0.0,7.584,7.6348,7.4907,7.3376,7.2224,7.1402,7.1936,7.4235,7.4064,7.392,7.3983,7.3848,7.3943,7.4446,7.6814,7.9362,8.2074,8.4291,8.5027,8.4265,8.3582,8.1551,7.8281,7.7173,7.5373,7.3184,7.2549,7.1506,7.0166,6.9471,6.8389,6.7041,6.7041,6.6778,6.6317,6.5824,6.5956,6.6682,6.8686,6.9617,6.9652,6.8083,6.8253,6.8264,6.4418,6.3943,6.4547,6.4261,6.4575,6.5035,6.5528,6.6712,6.7849,6.8237,6.678,6.5388,6.5468,6.3342,6.1391,6.1057,6.0824,6.0333,5.9413,6.0005,5.9875,5.7685,5.7582,5.7136,5.5692,5.5548,5.4772,5.2797,5.3328,5.2382,4.8943,4.6852,4.4916,4.2876,4.1808,4.0202,3.7688,3.8096,3.6848,3.3962,3.4484,3.3354,3.0281,0.0,0.0,0.0,0.0,0.0,0.0,0.0,0.0,0.0,0.0,0.0,0.0,0.0,0.0,0.0,0.0,0.0,0.0,0.0,0.0,0.0,0.0,0.0,0.0,0.0,0.0,7.1063,6.9178,0.0,0.0,6.6287,6.7109,7.007,7.1241,7.1987,7.2471,7.3169,7.369,7.4096,7.6731,7.9243,8.1515,8.4605,8.5767,8.4955,8.4831,8.3246,8.0417,7.9275,7.7162,7.4466,7.3916,7.2516,7.0673,6.9778,6.9017,6.832,6.779,6.7112,6.6416,6.589,6.5693,6.5808,6.6904,6.7276,6.7109,6.6252,6.6508,6.663,6.3068,6.2397,6.2825,6.2687,6.2757,6.3053,6.3935,6.5232,6.6317,6.6317,6.5199,6.4147,6.4147,6.2306,6.0629,6.0629,6.0629,6.0202,5.8788,5.9281,5.9209,5.7057,5.6529,5.6001,5.4909,5.3837,5.2519,5.0891,4.9995,4.8019,4.4154,4.2117,3.9677,3.6495,3.5623,3.4287,3.201,3.2514,3.1573,2.8597,2.8879,2.7545,0.0,0.0,0.0,0.0,0.0,0.0,0.0,0.0,0.0,0.0,0.0,0.0,0.0,0.0,0.0,0.0,0.0,0.0,0.0,0.0,0.0,0.0,0.0,0.0,0.0,0.0,0.0,6.5907,6.3532,0.0,0.0,0.0,0.0,6.4139,6.7073,6.9623,7.1693,7.3972,7.4955,7.4367,7.6858,7.8755,7.9948,8.3598,8.4916,8.3946,8.5417,8.4801,8.2328,8.2038,7.9803,7.6249,7.611,7.4077,7.0993,7.0306,7.026,7.0315,6.8823,6.8483,6.8705,6.7238,6.6796,6.6631,6.5331,6.4904,6.4838,6.4985,6.4871,6.4279,6.1463,5.9762,0.0,0.0,5.8533,5.9387,6.1873,6.3541,6.4657,6.4805,6.3753,6.2812,6.2812,6.1616,6.0629,0.0,6.0531,6.0037,5.8459,0.0,5.7826,5.6607,5.5553,5.4873,5.4592,5.1759,4.9587,4.908,4.4999,4.099,3.7516,3.4097,3.076,2.7189,2.5682,2.5373,2.6239,2.4812,2.4189,2.4445,2.3644,0.0,0.0,0.0,0.0,0.0,0.0,0.0,0.0,0.0,0.0,0.0,0.0,0.0,0.0,0.0,0.0,0.0,0.0,0.0,0.0,0.0,0.0,0.0,0.0,0.0,0.0,5.8638,6.1128,6.063,6.0759,5.8885,0.0,0.0,0.0,0.0,0.0,0.0,6.2009,6.3385,6.51,6.7274,7.1388,7.4221,7.5494,8.103,8.365,8.3415,8.5132,8.5463,8.4457,8.2889,8.1217,7.9487,7.7067,7.5486,7.4646,7.4474,7.1308,6.6504,6.5693,6.5046,6.4374,6.2881,6.2639,6.3335,6.452,6.4213,6.3649,6.5384,0.0,6.2891,6.0591,0.0,0.0,0.0,0.0,5.6299,5.8015,5.9483,6.1085,6.287,6.3029,6.2812,6.2812,6.1616,6.0333,0.0,5.9051,5.8046,5.4887,0.0,0.0,0.0,0.0,5.2983,5.1801,5.0491,4.8993,4.6769,4.2927,3.8624,3.3951,3.0531,2.6682,2.1853,2.1154,1.9557,1.7061,1.7127,1.6239,1.421,0.0,0.0,0.0,0.0,0.0,0.0,0.0,0.0,0.0,0.0,0.0,0.0,0.0,0.0,0.0,0.0,0.0,0.0,0.0,0.0,0.0,0.0,0.0,0.0,0.0,0.0,0.0,5.0573,5.3835,5.3728,5.3874,5.2534,0.0,0.0,0.0,0.0,0.0,0.0,0.0,0.0,0.0,6.2447,6.6055,6.8851,7.0871,7.6241,7.9357,8.018,8.2686,8.3903,8.3971,8.3328,8.2274,8.0761,7.9324,7.7723,7.5807,7.3484,6.9871,6.5705,0.0,0.0,0.0,0.0,0.0,6.0982,6.2144,6.1825,0.0,0.0,0.0,0.0,0.0,0.0,0.0,0.0,0.0,0.0,0.0,0.0,0.0,6.1381,6.1813,6.1813,6.1813,6.0437,5.8811,0.0,5.7489,5.6632,5.3187,0.0,0.0,0.0,0.0,0.0,5.0663,4.8817,4.6727,4.4629,3.9974,3.4722,2.9056,2.5904,2.1751,1.58,1.5103,1.3518,1.0285,1.0116,0.8956,0.0,0.0,0.0,0.0,0.0,0.0,0.0,0.0,0.0,0.0,0.0,0.0,0.0,0.0,0.0,0.0,0.0,0.0,0.0,0.0,0.0,0.0,0.0,0.0,0.0,0.0,0.0,0.0,0.0,4.5128,4.6938,0.0,0.0,0.0,0.0,0.0,0.0,0.0,0.0,0.0,0.0,0.0,0.0,0.0,0.0,6.5826,7.0199,7.3292,7.5052,7.8432,8.0536,8.155,8.2638,8.2294,8.0776,8.0926,0.0,7.5153,7.0726,0.0,0.0,0.0,0.0,0.0,0.0,0.0,0.0,0.0,0.0,0.0,0.0,0.0,0.0,0.0,0.0,0.0,0.0,0.0,0.0,0.0,0.0,5.8421,5.9623,6.0126,6.0245,0.0,5.8563,5.6823,5.5238,0.0,0.0,0.0,0.0,0.0,0.0,0.0,0.0,5.0203,4.7367,4.4762,4.3215,3.7539,3.1496,2.5081,2.1942,1.7354,1.077,0.9515,0.8038,0.5404,0.4078,0.0,0.0,0.0,0.0,0.0,0.0,0.0,0.0,0.0,0.0,0.0,0.0,0.0,0.0,0.0,0.0,0.0,0.0,0.0,0.0,0.0,0.0,0.0,0.0,0.0,0.0,0.0,0.0,0.0,0.0,0.0,0.0,0.0,0.0,0.0,0.0,0.0,0.0,0.0,0.0,0.0,0.0,0.0,0.0,0.0,0.0,0.0,0.0,0.0,0.0,0.0,7.513,7.7744,7.7742,7.8697,8.0162,7.6216,7.3926,7.3002,0.0,0.0,0.0,0.0,0.0,0.0,0.0,0.0,0.0,0.0,0.0,0.0,0.0,0.0,0.0,0.0,0.0,0.0,0.0,0.0,0.0,0.0,0.0,0.0,0.0,5.7416,5.8313,0.0,0.0,0.0,0.0,0.0,0.0,0.0,0.0,0.0,0.0,0.0,0.0,4.8993,4.8873,4.7929,4.5425,3.9748,3.4201,2.9611,2.3704,1.8119,1.3133,0.9138,0.5305,0.0,0.0,0.0,0.0,0.0,0.0,0.0,0.0,0.0,0.0,0.0,0.0,0.0,0.0,0.0,0.0,0.0,0.0,0.0,0.0,0.0,0.0,0.0,0.0,0.0,0.0,0.0,0.0,0.0,0.0,0.0,0.0,0.0,0.0,0.0,0.0,0.0,0.0,0.0,0.0,0.0,0.0,0.0,0.0,0.0,0.0,0.0,0.0,0.0,0.0,0.0,0.0,0.0,0.0,0.0,0.0,0.0,0.0,0.0,6.5062,0.0,0.0,0.0,0.0,0.0,0.0,0.0,0.0,0.0,0.0,0.0,0.0,0.0,0.0,0.0,0.0,0.0,0.0,0.0,0.0,0.0,0.0,0.0,0.0,0.0,0.0,0.0,0.0,0.0,0.0,0.0,0.0,0.0,0.0,0.0,0.0,0.0,0.0,0.0,0.0,4.851,4.7116,4.5514,4.418,3.8565,3.3377,2.9053,2.4647,1.9555,1.3346,1.004,0.0,0.0,0.0,0.0,0.0,0.0,0.0,0.0,0.0,0.0,0.0,0.0,0.0,0.0,0.0,0.0,0.0,0.0,0.0,0.0,0.0,0.0,0.0,0.0,0.0,0.0,0.0,0.0,0.0,0.0,0.0,0.0,0.0,0.0,0.0,0.0,0.0,0.0,0.0,0.0,0.0,0.0,0.0,0.0,0.0,0.0,0.0,0.0,0.0,0.0,0.0,0.0,0.0,0.0,0.0,0.0,0.0,0.0,0.0,5.8693,0.0,0.0,0.0,0.0,0.0,0.0,0.0,0.0,0.0,0.0,0.0,0.0,0.0,0.0,0.0,0.0,0.0,0.0,0.0,0.0,0.0,0.0,0.0,0.0,0.0,0.0,0.0,0.0,0.0,0.0,0.0,0.0,0.0,0.0,0.0,0.0,0.0,0.0,0.0,0.0,0.0,4.8692,4.576,4.3465,4.3256,3.8299,3.3142,2.8962,2.6223,2.1471,1.3853,0.0,0.0,0.0,0.0,0.0,0.0,0.0,0.0,0.0,0.0,0.0,0.0,0.0,0.0,0.0,0.0,0.0,0.0,0.0,0.0,0.0,0.0,0.0,0.0,0.0,0.0,0.0,0.0,0.0,0.0,0.0,0.0,0.0,0.0,0.0,0.0,0.0,0.0,0.0,0.0,0.0,0.0,0.0,0.0,0.0,0.0,0.0,0.0,0.0,0.0,0.0,0.0,0.0,0.0,0.0,0.0,0.0,0.0,0.0,0.0,0.0,0.0,0.0,0.0,0.0,0.0,0.0,0.0,0.0,0.0,0.0,0.0,0.0,0.0,0.0,0.0,0.0,0.0,0.0,0.0,0.0,0.0,0.0,0.0,0.0,0.0,0.0,0.0,0.0,0.0,0.0,0.0,0.0,0.0,0.0,0.0,0.0,0.0,0.0,0.0,0.0,0.0,4.9684,4.8176,4.6608,4.5447,4.1647,3.744,3.3347,2.9298,2.3828,1.6769,0.0,0.0,0.0,0.0,0.0,0.0,0.0,0.0,0.0,0.0,0.0,0.0,0.0,0.0,0.0,0.0,0.0,0.0,0.0,0.0,0.0,0.0,0.0,0.0,0.0,0.0,0.0,0.0,0.0,0.0,0.0,0.0,0.0,0.0,0.0,0.0,0.0,0.0,0.0,0.0,0.0,0.0,0.0,0.0,0.0,0.0,0.0,0.0,0.0,0.0,0.0,0.0,0.0,0.0,0.0,0.0,0.0,0.0,0.0,0.0,0.0,0.0,0.0,0.0,0.0,0.0,0.0,0.0,0.0,0.0,0.0,0.0,0.0,0.0,0.0,0.0,0.0,0.0,0.0,0.0,0.0,0.0,0.0,0.0,0.0,0.0,0.0,0.0,0.0,0.0,0.0,0.0,0.0,0.0,0.0,0.0,0.0,0.0,0.0,0.0,0.0,0.0,4.9997,4.7848,4.6069,4.5773,4.2108,3.8068,3.4009,3.0948,2.4964,1.5174,0.0,0.0,0.0,0.0,0.0,0.0,0.0,0.0,0.0,0.0,0.0,0.0,0.0,0.0,0.0,0.0,0.0,0.0,0.0,0.0,0.0,0.0,0.0,0.0,0.0,0.0,0.0,0.0,0.0,0.0,0.0,0.0,0.0,0.0,0.0,0.0,0.0,0.0,0.0,0.0,0.0,0.0,0.0,0.0,0.0,0.0,0.0,0.0,0.0,0.0,0.0,0.0,0.0,0.0,0.0,0.0,0.0,0.0,0.0,0.0,0.0,0.0,0.0,0.0,0.0,0.0,0.0,0.0,0.0,0.0,0.0,0.0,0.0,0.0,0.0,0.0,0.0,0.0,0.0,0.0,0.0,0.0,0.0,0.0,0.0,0.0,0.0,0.0,0.0,0.0,0.0,0.0,0.0,0.0,0.0,0.0,0.0,0.0,0.0,0.0,0.0,0.0,0.0,4.7429,4.5123,4.5676,4.2169,3.8123,3.4009,3.1033,2.461,1.3236,0.0,0.0,0.0,0.0,0.0,0.0,0.0,0.0,0.0,0.0,0.0,0.0,0.0,0.0,0.0,0.0,0.0,0.0,0.0,0.0,0.0,0.0,0.0,0.0,0.0,0.0,0.0,0.0,0.0,0.0,0.0,0.0,0.0,0.0,0.0,0.0,0.0,0.0,0.0,0.0,0.0,0.0,0.0,0.0,0.0,0.0,0.0,0.0,0.0,0.0,0.0,0.0,0.0,0.0,0.0,0.0,0.0,0.0,0.0,0.0,0.0,0.0,0.0,0.0,0.0,0.0,0.0,0.0,0.0,0.0,0.0,0.0,0.0,0.0,0.0,0.0,0.0,0.0,0.0,0.0,0.0,0.0,0.0,0.0,0.0,0.0,0.0,0.0,0.0,0.0,0.0,0.0,0.0,0.0,0.0,0.0,0.0,0.0,0.0,0.0,0.0,0.0,5.2493,4.7703,4.4502,4.5621,4.2269,3.8232,3.4009,2.9497,2.2303,0.0,0.0,0.0,0.0,0.0,0.0,0.0,0.0,0.0,0.0,0.0,0.0,0.0,0.0,0.0,0.0,0.0,0.0,0.0,0.0,0.0,0.0,0.0,0.0,0.0,0.0,0.0,0.0,0.0,0.0,0.0,0.0,0.0,0.0,0.0,0.0,0.0,0.0,0.0,0.0,0.0,0.0,0.0,0.0,0.0,0.0,0.0,0.0,0.0,0.0,0.0,0.0,0.0,0.0,0.0,0.0,0.0,0.0,0.0,0.0,0.0,0.0,0.0,0.0,0.0,0.0,0.0,0.0,0.0,0.0,0.0,0.0,0.0,0.0,0.0,0.0,0.0,0.0,0.0,0.0,0.0,0.0,0.0,0.0,0.0,0.0,0.0,0.0,0.0,0.0,0.0,0.0,0.0,0.0,0.0,0.0,0.0,0.0,0.0,0.0,0.0,0.0,0.0,5.2858,4.9092,4.6214,0.0,4.2169,3.8123,3.4009,2.9521,2.1227,0.7748,0.0,0.0,0.0,0.0,0.0,0.0,0.0,0.0,0.0,0.0,0.0,0.0,0.0,0.0,0.0,0.0,0.0,0.0,0.0,0.0,0.0,0.0,0.0,0.0,0.0,0.0,0.0,0.0,0.0,0.0,0.0,0.0,0.0,0.0,0.0,0.0,0.0,0.0,0.0,0.0,0.0,0.0,0.0,0.0,0.0,0.0,0.0,0.0,0.0,0.0,0.0,0.0,0.0,0.0,0.0,0.0,0.0,0.0,0.0,0.0,0.0,0.0,0.0,0.0,0.0,0.0,0.0,0.0,0.0,0.0,0.0,0.0,0.0,0.0,0.0,0.0,0.0,0.0,0.0,0.0,0.0,0.0,0.0,0.0,0.0,0.0,0.0,0.0,0.0,0.0,0.0,0.0,0.0,0.0,0.0,0.0,0.0,0.0,0.0,0.0,0.0,0.0,0.0,5.0229,4.7469,0.0,4.2108,3.8068,3.4009,2.8059,1.939,0.6768,0.0,0.0,0.0,0.0,0.0,0.0,0.0,0.0,0.0,0.0,0.0,0.0,0.0,0.0,0.0,0.0,0.0,0.0,0.0,0.0,0.0,0.0,0.0,0.0,0.0,0.0,0.0,0.0,0.0,0.0,0.0,0.0,0.0,0.0,0.0,0.0,0.0,0.0,0.0,0.0,0.0,0.0,0.0,0.0,0.0,0.0,0.0,0.0,0.0,0.0,0.0,0.0,0.0,0.0,0.0,0.0,0.0,0.0,0.0,0.0,0.0,0.0,0.0,0.0,0.0,0.0,0.0,0.0,0.0,0.0,0.0,0.0,0.0,0.0,0.0,0.0,0.0,0.0,0.0,0.0,0.0,0.0,0.0,0.0,0.0,0.0,0.0,0.0,0.0,0.0,0.0,0.0,0.0,0.0,0.0,0.0,0.0,0.0,0.0,0.0,0.0,0.0,0.0,5.119,4.8261,4.5883,4.1941,3.7746,3.3678,2.5473,1.6754,0.8077,-0.3338,0.0,0.0,0.0,0.0,0.0,0.0,0.0,0.0,0.0,0.0,0.0,0.0,0.0,0.0,0.0,0.0,0.0,0.0,0.0,0.0,0.0,0.0,0.0,0.0,0.0,0.0,0.0,0.0,0.0,0.0,0.0,0.0,0.0,0.0,0.0,0.0,0.0,0.0,0.0,0.0,0.0,0.0,0.0,0.0,0.0,0.0,0.0,0.0,0.0,0.0,0.0,0.0,0.0,0.0,0.0,0.0,0.0,0.0,0.0,0.0,0.0,0.0,0.0,0.0,0.0,0.0,0.0,0.0,0.0,0.0,0.0,0.0,0.0,0.0,0.0,0.0,0.0,0.0,0.0,0.0,0.0,0.0,0.0,0.0,0.0,0.0,0.0,0.0,0.0,0.0,0.0,0.0,0.0,0.0,0.0,0.0,0.0,0.0,0.0,0.0,0.0,0.0,5.232,4.8651,4.5937,4.066,3.5629,3.1436,2.4625,1.6878,0.7919,-0.356,0.0,0.0,0.0,0.0,0.0,0.0,0.0,0.0,0.0,0.0,0.0,0.0,0.0,0.0,0.0,0.0,0.0,0.0,0.0,0.0,0.0,0.0,0.0,0.0,0.0,0.0,0.0,0.0,0.0,0.0,0.0,0.0,0.0,0.0,0.0,0.0,0.0,0.0,0.0,0.0,0.0,0.0,0.0,0.0,0.0,0.0,0.0,0.0,0.0,0.0,0.0,0.0,0.0,0.0,0.0,0.0,0.0,0.0,0.0,0.0,0.0,0.0,0.0,0.0,0.0,0.0,0.0,0.0,0.0,0.0,0.0,0.0,0.0,0.0,0.0,0.0,0.0,0.0,0.0,0.0,0.0,0.0,0.0,0.0,0.0,0.0,0.0,0.0,0.0,0.0,0.0,0.0,0.0,0.0,0.0,0.0,0.0,0.0,0.0,0.0,0.0,0.0,5.4393,4.9685,4.5405,4.0682,3.6175,3.2116,2.4786,1.6379,0.6768,-0.5603,0.0,0.0,0.0,0.0,0.0,0.0,0.0,0.0,0.0,0.0,0.0,0.0,0.0,0.0,0.0,0.0,0.0,0.0,0.0,0.0,0.0,0.0,0.0,0.0,0.0,0.0,0.0,0.0,0.0,0.0,0.0,0.0,0.0,0.0,0.0,0.0,0.0,0.0,0.0,0.0,0.0,0.0,0.0,0.0,0.0,0.0,0.0,0.0,0.0,0.0,0.0,0.0,0.0,0.0,0.0,0.0,0.0,0.0,0.0,0.0,0.0,0.0,0.0,0.0,0.0,0.0,0.0,0.0,0.0,0.0,0.0,0.0,0.0,0.0,0.0,0.0,0.0,0.0,0.0,0.0,0.0,0.0,0.0,0.0,0.0,0.0,0.0,0.0,0.0,0.0,0.0,0.0,0.0,0.0,0.0,0.0,0.0,0.0,0.0,0.0,0.0,0.0,0.0,5.2493,4.6607,4.2407,3.8134,3.3473,2.5833,1.6422,0.5306,0.0,0.0,0.0,0.0,0.0,0.0,0.0,0.0,0.0,0.0,0.0,0.0,0.0,0.0,0.0,0.0,0.0,0.0,0.0,0.0,0.0,0.0,0.0,0.0,0.0,0.0,0.0,0.0,0.0,0.0,0.0,0.0,0.0,0.0,0.0,0.0,0.0,0.0,0.0,0.0,0.0,0.0,0.0,0.0,0.0,0.0,0.0,0.0,0.0,0.0,0.0,0.0,0.0,0.0,0.0,0.0,0.0,0.0,0.0,0.0,0.0,0.0,0.0,0.0,0.0,0.0,0.0,0.0,0.0,0.0,0.0,0.0,0.0,0.0,0.0,0.0,0.0,0.0,0.0,0.0,0.0,0.0,0.0,0.0,0.0,0.0,0.0,0.0,0.0,0.0,0.0,0.0,0.0,0.0,0.0,0.0,0.0,0.0,0.0,0.0,0.0,0.0,0.0,0.0,0.0,5.4983,4.7103,3.8998,3.1406,2.7389,1.9348,0.5594,0.0,0.0,0.0,0.0,0.0,0.0,0.0,0.0,0.0,0.0,0.0,0.0,0.0,0.0]}]]]